[[{"header":{"parameterUnit":"m.s-1","parameterCategory":1,"la1":30.6,"la2":29.2853,"lo1":-89.7004,"lo2":-87.6739,"dy":0.0162,"dx":0.0183,"nx":112,"ny":82,"refTime":"2024-09-29T18:00:00:Z","depth":0,"parameterNumber":2,"parameterNumberName":"U-component_of_WINDS"},"data":[0.0,0.0,0.0,0.0,0.0,0.0,0.0,0.0,0.0,0.0,0.0,0.0,0.0,0.0,0.0,0.0,0.0,0.0,0.0,0.0,0.0,0.0,0.0,0.0,0.0,0.0,0.0,0.0,0.0,0.0,0.0,0.0,0.0,0.0,0.0,0.0,0.0,0.0,0.0,0.0,0.0,0.0,0.0,0.0,0.0,0.0,0.0,0.0,0.0,0.0,0.0,0.0,0.0,0.0,0.0,0.0,0.0,0.0,0.0,0.0,0.0,0.0,0.0,0.0,0.0,0.0,0.0,0.0,0.0,0.0,0.0,0.0,0.0,0.0,0.0,0.0,0.0,0.0,0.0,0.0,0.0,0.0,0.0,0.0,0.0,0.0,0.0,0.0,0.0,0.0,1.4787,1.2829,1.1418,1.0433,0.9942,1.0031,0.982,0.9137,0.0,0.0,0.0,0.0,0.0,0.0,0.0,0.0,0.0,0.0,0.0,0.0,0.0,0.0,0.0,0.0,0.0,0.0,0.0,0.0,0.0,0.0,0.0,0.0,0.0,0.0,0.0,0.0,0.0,0.0,0.0,0.0,0.0,0.0,0.0,0.0,0.0,0.0,0.0,0.0,0.0,0.0,0.0,0.0,0.0,0.0,0.0,0.0,0.0,0.0,0.0,0.0,0.0,0.0,0.0,0.0,0.0,0.0,0.0,0.0,0.0,0.0,0.0,0.0,0.0,0.0,0.0,0.0,0.0,0.0,0.0,0.0,0.0,0.0,0.0,0.0,0.0,0.0,0.0,0.0,0.0,0.0,0.0,0.0,0.0,0.0,0.0,0.0,0.0,0.0,0.0,0.0,0.0,0.0,0.0,0.0,0.0,0.0,0.0,0.0,0.0,0.0,0.0,0.0,1.3706,1.2051,1.1761,1.1189,1.0002,0.9778,0.951,0.912,0.0,0.0,0.0,0.0,0.0,0.0,0.0,0.0,0.0,0.0,0.0,0.0,0.0,0.0,0.0,0.0,0.0,0.0,0.0,0.0,0.0,0.0,0.0,0.0,0.0,0.0,0.0,0.0,0.0,0.0,0.0,0.0,0.0,0.0,0.0,0.0,0.0,0.0,0.0,0.0,0.0,0.0,0.0,0.0,0.0,0.0,0.0,0.0,0.0,0.0,0.0,0.0,0.0,0.0,0.0,0.0,0.0,0.0,0.0,0.0,0.0,0.0,0.0,0.0,0.0,0.0,0.0,0.0,0.0,0.0,0.0,0.0,0.0,0.0,0.0,0.0,0.0,0.0,0.0,0.0,0.0,0.0,0.0,0.0,0.0,0.0,0.0,0.0,0.0,0.0,0.0,0.0,0.0,0.0,0.0,0.0,0.0,0.0,0.0,0.0,0.0,0.0,0.0,1.4121,1.306,1.1929,1.1212,1.0518,0.9812,0.9648,0.9454,0.912,0.894,0.0,0.0,0.0,0.0,0.0,0.0,0.0,0.0,0.0,0.0,0.0,0.0,0.0,0.0,0.0,0.0,0.0,0.0,0.0,0.0,0.0,0.0,0.0,0.0,0.0,0.0,0.0,0.0,0.0,0.0,0.0,0.0,0.0,0.0,0.0,0.0,0.0,0.0,0.0,0.0,0.0,0.0,0.0,0.0,0.0,0.0,0.0,0.0,0.0,0.0,0.0,0.0,0.0,0.0,0.0,0.0,0.0,0.0,0.0,0.0,0.0,0.0,0.0,0.0,0.0,0.0,0.0,0.0,0.0,0.0,0.0,0.0,0.0,0.0,0.0,0.0,0.0,0.0,0.0,0.0,0.0,0.0,0.0,0.0,0.0,0.0,0.0,0.0,0.0,0.0,0.0,0.0,0.0,0.0,0.0,0.0,0.0,0.0,0.0,0.0,0.0,0.0,1.3401,1.2304,1.1504,1.0518,0.9811,0.9616,0.9526,0.9348,0.9056,0.868,0.0,0.0,0.0,0.0,0.0,0.0,0.0,0.0,0.0,0.0,0.0,0.0,0.0,0.0,0.0,0.0,0.0,0.0,0.0,0.0,0.0,0.0,0.0,0.0,0.0,0.0,0.0,0.0,0.0,0.0,0.0,0.0,0.0,0.0,0.0,0.0,0.0,0.0,0.0,0.0,0.0,0.0,0.0,0.0,0.0,0.0,0.0,0.0,0.0,0.0,0.0,0.0,0.0,0.0,0.0,0.0,0.0,0.0,0.0,0.0,0.0,0.0,0.0,0.0,0.0,0.0,0.0,0.0,0.0,0.0,0.0,0.0,0.0,0.0,0.0,0.0,0.0,0.0,0.0,0.0,0.0,0.0,0.0,0.0,0.0,0.0,0.0,0.0,0.0,0.0,0.0,0.0,0.0,0.0,0.0,0.0,0.0,0.0,0.0,0.0,0.0,0.0,1.2204,1.1123,1.0154,0.9968,0.9811,0.9616,0.9324,0.9047,0.883,0.8319,0.0,0.0,0.0,0.0,0.0,0.0,0.0,0.0,0.0,0.0,0.0,0.0,0.0,0.0,0.0,0.0,0.0,0.0,0.0,0.0,0.0,0.0,0.0,0.0,0.0,0.0,0.0,0.0,0.0,0.0,0.0,0.0,0.0,0.0,0.0,0.0,0.0,0.0,0.0,0.0,0.0,0.0,0.0,0.0,0.0,0.0,0.0,0.0,0.0,0.0,0.0,0.0,0.0,0.0,0.0,0.0,0.0,0.0,0.0,0.0,0.0,0.0,0.0,0.0,0.0,0.0,0.0,0.0,0.0,0.0,0.0,0.0,0.0,0.0,0.0,0.0,0.0,0.0,0.0,0.0,0.0,0.0,0.0,0.0,0.0,0.0,0.0,0.0,0.0,0.0,0.0,0.0,0.0,0.0,0.0,0.0,0.0,0.0,0.0,0.0,0.0,0.0,1.2069,1.1013,0.0,0.9786,0.9672,0.9607,0.9478,0.9275,0.9015,0.0,0.0,0.0,0.0,0.0,0.0,0.0,0.0,0.0,0.0,0.0,0.0,0.0,0.0,0.0,0.0,0.0,0.0,0.0,0.0,0.0,0.0,0.0,0.0,0.0,0.0,0.0,0.0,0.0,0.0,0.0,0.0,0.0,0.0,0.0,0.0,0.0,0.0,0.0,0.0,0.0,0.0,0.0,0.0,0.0,0.0,0.0,0.0,0.0,0.0,0.0,0.0,0.0,0.0,0.0,0.0,0.0,0.0,0.0,0.0,0.0,0.0,0.0,0.0,0.0,0.0,0.0,0.0,0.0,0.0,0.0,0.0,0.0,0.0,0.0,0.0,0.0,0.0,0.0,0.0,0.0,0.0,0.0,0.0,0.0,0.0,0.0,0.0,0.0,0.0,0.0,0.0,0.0,0.0,0.0,0.0,0.0,0.0,0.0,0.0,0.0,0.0,1.3014,1.1826,1.073,0.0,0.9778,0.9664,0.9607,0.9502,0.9307,0.895,0.0,0.0,0.0,0.0,0.0,0.0,0.0,0.0,0.0,0.0,0.0,0.0,0.0,0.0,0.0,0.0,0.0,0.0,0.0,0.0,0.0,0.0,0.0,0.0,0.0,0.0,0.0,0.0,0.0,0.0,0.0,0.0,0.0,0.0,0.0,0.0,0.0,0.0,0.0,0.0,0.0,0.0,0.0,0.0,0.0,0.0,0.0,0.0,0.0,0.0,0.0,0.0,0.0,0.0,0.0,0.0,0.0,0.0,0.0,0.0,0.0,0.0,0.0,0.0,0.0,0.0,0.0,0.0,0.0,0.0,0.0,0.0,0.0,0.0,0.0,0.0,0.0,0.0,0.0,0.0,0.0,0.0,0.0,0.0,0.0,0.0,0.0,0.0,0.0,0.0,0.0,0.0,0.0,0.0,0.0,0.0,0.0,0.0,0.0,0.0,0.0,0.0,1.2915,1.1348,1.0121,0.9934,0.9909,0.9819,0.9624,0.9307,0.8973,0.0,0.0,0.0,0.0,0.0,0.0,0.0,0.0,0.0,0.0,0.0,0.0,0.0,0.0,0.0,0.0,0.0,0.0,0.0,0.0,0.0,0.0,0.0,0.0,0.0,0.0,0.0,0.0,0.0,0.0,0.0,0.0,0.0,0.0,0.0,0.0,0.0,0.0,0.0,0.0,0.0,0.0,0.0,0.0,0.0,0.0,0.0,0.0,0.0,0.0,0.0,0.0,0.0,0.0,0.0,0.0,0.0,0.0,0.0,0.0,0.0,0.0,0.0,0.0,0.0,0.0,0.0,0.0,0.0,0.0,0.0,0.0,0.0,0.0,0.0,0.0,0.0,0.0,0.0,0.0,0.0,0.0,0.0,0.0,0.0,0.0,0.0,0.0,0.0,0.0,0.0,0.0,0.0,0.0,0.0,0.0,0.0,0.0,0.0,0.0,0.0,0.0,0.0,1.2926,1.145,1.0282,1.0129,0.9991,0.9885,0.9811,0.96,0.9324,0.8966,0.0,0.0,0.0,0.0,0.0,0.0,0.0,0.0,0.0,0.0,0.0,0.0,0.0,0.0,0.0,0.0,0.0,0.0,0.0,0.0,0.0,0.0,0.0,0.0,0.0,0.0,0.0,0.0,0.0,0.0,0.0,0.0,0.0,0.0,0.0,0.0,0.0,0.0,0.0,0.0,0.0,0.0,0.0,0.0,0.0,0.0,0.0,0.0,0.0,0.0,0.0,0.0,0.0,0.0,0.0,0.0,0.0,0.0,0.0,0.0,0.0,0.0,0.0,0.0,0.0,0.0,0.0,0.0,0.0,0.0,0.0,0.0,0.0,0.0,0.0,0.0,0.0,0.0,0.0,0.0,0.0,0.0,0.0,0.0,0.0,0.0,0.0,0.0,0.0,0.0,0.0,0.0,0.0,0.0,0.0,0.0,0.0,0.0,0.0,0.0,0.0,0.0,1.2603,1.1451,1.0574,1.0422,1.0209,1.0046,0.9926,0.9786,0.9551,0.9129,0.0,0.0,0.0,0.0,0.0,0.0,0.0,0.0,0.0,0.0,0.0,0.0,0.0,0.0,0.0,0.0,0.0,0.0,0.0,0.0,0.0,0.0,0.0,0.0,0.0,0.0,0.0,0.0,0.0,0.0,0.0,0.0,0.0,0.0,0.0,0.0,0.0,0.0,0.0,0.0,0.0,0.0,0.0,0.0,0.0,0.0,0.0,0.0,0.0,0.0,0.0,0.0,0.0,0.0,0.0,0.0,0.0,0.0,0.0,0.0,0.0,0.0,0.0,0.0,0.0,0.0,0.0,0.0,0.0,0.0,0.0,0.0,0.0,0.0,0.0,0.0,0.0,0.0,0.0,0.0,0.0,0.0,0.0,0.0,0.0,0.0,0.0,0.0,0.0,0.0,0.0,0.0,0.0,0.0,0.0,0.0,0.0,0.0,0.0,0.0,0.0,0.0,1.2087,1.1424,1.0935,1.0737,1.0523,1.0264,0.9966,0.9917,0.9689,0.9153,0.0,0.0,0.0,0.0,0.0,0.0,0.0,0.0,0.0,0.0,0.0,0.0,0.0,0.0,0.0,0.0,0.0,0.0,0.0,0.0,0.0,0.0,0.0,0.0,0.0,0.0,0.0,0.0,0.0,0.0,0.0,0.0,0.0,0.0,0.0,0.0,0.0,0.0,0.0,0.0,0.0,0.0,0.0,0.0,0.0,0.0,0.0,0.0,0.0,0.0,0.0,0.0,0.0,0.0,0.0,0.0,0.0,0.0,0.0,0.0,2.0195,0.0,0.0,0.0,0.0,0.0,0.0,0.0,0.0,0.0,0.0,0.0,0.0,0.0,0.0,0.0,0.0,0.0,0.0,0.0,0.0,0.0,0.0,0.0,0.0,0.0,0.0,0.0,0.0,0.0,0.0,0.0,0.0,0.0,0.0,0.0,0.0,0.0,0.0,0.0,0.0,0.0,1.1981,1.1424,1.0984,1.0943,1.0596,1.032,1.0145,0.9991,0.9738,0.9347,0.9137,0.0,0.0,0.0,0.0,0.0,0.0,0.0,0.0,0.0,0.0,0.0,0.0,0.0,0.0,0.0,0.0,0.0,0.0,0.0,0.0,0.0,0.0,0.0,0.0,0.0,0.0,0.0,0.0,0.0,0.0,0.0,0.0,0.0,0.0,0.0,0.0,0.0,0.0,0.0,0.0,0.0,0.0,0.0,0.0,0.0,0.0,0.0,0.0,0.0,0.0,0.0,0.0,0.0,0.0,0.0,0.0,0.0,0.0,0.0,0.0,2.0956,0.0,0.0,0.0,0.0,0.0,0.0,0.0,0.0,0.0,0.0,0.0,0.0,0.0,0.0,0.0,0.0,0.0,0.0,0.0,0.0,0.0,0.0,0.0,0.0,0.0,0.0,0.0,0.0,0.0,0.0,0.0,0.0,0.0,0.0,0.0,0.0,0.0,0.0,0.0,0.0,1.1556,1.1279,1.1094,1.1094,1.0769,1.0485,1.0306,1.0154,0.9926,0.9649,0.9388,0.0,0.0,0.0,0.0,0.0,0.0,0.0,0.0,0.0,0.0,0.0,0.0,0.0,0.0,0.0,0.0,0.0,0.0,0.0,0.0,0.0,0.0,0.0,0.0,0.0,0.0,0.0,0.0,0.0,0.0,0.0,0.0,0.0,0.0,0.0,0.0,0.0,0.0,0.0,0.0,0.0,0.0,0.0,0.0,0.0,0.0,0.0,0.0,0.0,0.0,0.0,0.0,0.0,2.3749,2.4372,2.4293,2.4613,2.4047,2.2736,2.2065,2.1368,2.0792,2.1832,0.0,0.0,0.0,0.0,0.0,0.0,0.0,0.0,0.0,0.0,0.0,0.0,0.0,0.0,0.0,0.0,0.0,0.0,0.0,0.0,0.0,0.0,0.0,0.0,1.5726,1.5235,1.5739,0.0,0.0,0.0,0.0,0.0,0.0,0.0,0.0,0.0,0.0,0.0,1.1088,1.1118,1.1195,1.1195,1.0907,1.0623,1.0426,1.0298,1.0154,0.9966,0.9681,0.9453,0.0,0.0,0.0,0.0,0.0,0.0,0.0,0.0,0.0,0.0,0.0,0.0,0.0,0.0,0.0,0.0,0.0,0.0,0.0,0.0,0.0,0.0,0.0,0.0,0.0,0.0,0.0,0.0,0.0,0.0,0.0,0.0,2.0449,2.067,0.0,0.0,0.0,0.0,0.0,0.0,0.0,0.0,0.0,0.0,0.0,0.0,0.0,2.2914,2.247,2.2222,2.2551,2.3389,2.3623,2.4172,2.4985,2.5303,2.4569,2.3052,2.2945,0.0,2.0713,2.0883,0.0,0.0,0.0,0.0,0.0,0.0,0.0,0.0,0.0,0.0,0.0,0.0,0.0,0.0,0.0,0.0,0.0,0.0,0.0,0.0,0.0,0.0,1.8333,1.6847,1.5554,1.4692,0.0,1.4519,1.426,1.4198,1.4062,0.0,0.0,0.0,0.0,0.0,0.0,0.0,1.102,1.1118,1.1195,1.1195,1.0907,1.0623,1.0426,1.0385,1.0322,1.0162,1.0131,1.0072,1.0048,0.9721,0.0,0.0,0.0,0.0,0.0,0.0,0.0,0.0,0.0,0.0,0.0,0.0,0.0,0.0,0.0,0.0,0.0,0.0,0.0,0.0,0.0,0.0,0.0,0.0,0.0,0.0,0.0,0.0,0.0,1.9049,1.9905,1.9905,2.0426,2.0734,0.0,0.0,0.0,0.0,0.0,0.0,0.0,0.0,0.0,2.2684,2.2664,2.2383,2.1801,2.1636,2.2152,2.3333,2.4248,2.5192,2.6185,2.6517,2.5756,2.4116,2.3411,2.2275,2.095,2.1133,2.1614,2.2223,0.0,0.0,0.0,0.0,2.1969,2.0903,2.1719,2.1177,2.0022,1.9885,0.0,0.0,0.0,0.0,0.0,0.0,0.0,0.0,0.0,0.0,1.6306,1.5728,1.4576,1.3581,1.3581,1.3536,1.3502,0.0,1.3236,1.2903,1.2797,0.0,0.0,0.0,0.0,1.1151,1.1285,1.124,1.1195,1.1195,1.0907,1.0664,1.0582,1.0466,1.0377,1.0322,1.0243,1.0186,1.0186,1.004,0.9933,0.0,0.0,0.0,0.0,0.0,0.0,0.0,0.0,0.0,0.0,0.0,0.0,0.0,0.0,0.0,0.0,0.0,0.0,0.0,0.0,0.0,0.0,0.0,0.0,0.0,0.0,0.0,0.0,1.9197,1.9689,1.9769,2.0545,2.0815,0.0,0.0,0.0,0.0,0.0,0.0,2.2799,2.2883,2.2731,2.2275,2.2258,2.1929,2.1303,2.1254,2.2027,2.3605,2.4794,2.6109,2.7504,2.7396,2.652,2.4933,2.3667,2.2341,2.1119,2.128,2.1436,2.1539,2.178,2.1855,2.1921,2.2394,2.1681,2.0642,2.1738,2.1399,2.0397,2.0201,1.9987,1.9693,1.9118,0.0,0.0,0.0,0.0,1.7354,1.6096,1.5199,1.4562,1.4386,1.3547,1.2807,1.2807,1.2807,1.2856,0.0,1.2595,1.2136,1.2159,0.0,0.0,0.0,0.0,1.1395,1.1492,1.1378,1.1244,1.1195,1.0948,1.0772,1.0696,1.0547,1.0474,1.0474,1.0371,1.0349,1.039,1.0349,1.0349,1.0398,0.0,0.0,0.0,0.0,0.0,0.0,0.0,0.0,0.0,0.0,0.0,0.0,0.0,0.0,0.0,0.0,0.0,0.0,0.0,0.0,0.0,0.0,0.0,0.0,0.0,0.0,0.0,0.0,0.0,2.1087,2.0887,0.0,0.0,0.0,0.0,2.1337,2.3283,2.3991,2.2868,2.3157,2.2972,2.2159,2.2111,2.1937,2.1587,2.1569,2.2685,2.4902,2.4994,2.6399,2.8856,2.7594,2.6277,2.4933,2.3667,2.2341,2.1082,2.0855,2.1402,2.2414,2.2095,2.1993,2.2037,2.2373,2.1742,2.0734,2.107,2.1114,2.1056,2.1042,2.0481,1.984,2.0037,1.976,0.0,0.0,1.8322,1.7979,1.5594,1.4916,1.4544,1.3227,1.284,1.2807,1.2807,1.2807,1.2775,0.0,1.2596,1.245,1.2059,0.0,1.1827,1.1508,1.1622,1.1687,1.1524,1.1492,1.1419,1.1211,1.1062,1.0911,1.0704,1.068,1.068,1.068,1.0672,1.0772,1.0951,1.0789,1.0745,1.0951,1.0555,0.0,0.0,0.0,0.0,0.0,0.0,0.0,0.0,0.0,0.0,0.0,0.0,0.0,0.0,0.0,0.0,0.0,0.0,0.0,0.0,0.0,0.0,0.0,0.0,0.0,0.0,0.0,0.0,2.1153,2.1588,0.0,2.0384,2.0974,2.1264,2.0926,2.18,2.2161,2.1723,2.1849,2.1898,2.179,2.1583,2.152,2.1614,2.1393,2.2121,2.3791,2.3791,2.4717,2.6399,2.5942,2.4994,2.376,2.3294,2.2341,2.1096,2.1002,2.12,2.1593,2.1483,2.1427,2.1441,2.1551,2.1325,2.0962,2.1069,2.1109,2.1109,2.1109,2.0895,2.05,1.9688,1.9293,1.8703,1.6646,1.6146,1.581,1.4021,1.3547,1.3416,1.2931,1.2807,1.2807,1.2807,1.2807,1.2783,1.2751,1.2743,1.2629,1.224,1.2304,1.2246,1.1752,1.1825,1.1874,1.1703,1.1573,1.1476,1.1411,1.124,1.1102,1.1037,1.0932,1.0903,1.0903,1.0761,1.0805,1.0992,1.0935,1.0984,1.1126,1.0785,1.0509,0.0,0.0,0.0,0.0,0.0,0.0,0.0,0.0,0.0,0.0,0.0,0.0,0.0,0.0,0.0,0.0,0.0,0.0,0.0,0.0,0.0,0.0,0.0,0.0,0.0,2.0822,2.1439,2.1301,2.192,2.1962,2.0884,2.1206,2.1313,2.0859,2.1193,2.1348,2.1109,2.1203,2.1311,2.1425,2.1235,2.1204,2.1425,2.1204,2.1758,2.3107,2.3107,2.376,2.4994,2.4564,2.3915,2.3076,2.2723,2.203,2.1122,2.1216,2.1203,2.1109,2.1109,2.1109,2.1109,2.1109,2.1109,2.1109,2.1109,2.1109,2.1109,2.1109,2.1109,2.0856,1.9431,1.9004,1.8428,1.5684,1.4912,1.4586,1.3161,1.2807,1.2807,1.2807,1.2807,1.2807,1.2807,1.2807,1.2807,1.2807,1.2807,1.2726,1.2523,1.258,1.2515,1.2132,1.2085,1.203,1.1882,1.1703,1.1573,1.1508,1.1386,1.126,1.1203,1.107,1.1025,1.1053,1.0911,1.0919,1.1171,1.1086,1.1135,1.1313,1.1021,1.085,1.0766,0.0,0.0,0.0,0.0,0.0,0.0,0.0,0.0,0.0,0.0,0.0,0.0,0.0,0.0,0.0,0.0,0.0,0.0,0.0,0.0,0.0,0.0,0.0,2.0271,2.079,2.1266,2.1575,2.1855,2.1819,2.1206,2.1737,2.1828,2.1194,2.1723,2.1828,2.1149,2.1435,2.1462,2.1149,2.1136,2.1136,2.1136,2.1136,2.1786,2.3074,2.3074,2.3728,2.4872,2.3635,2.3074,2.2995,2.2039,2.1435,2.1162,2.1475,2.1435,2.1136,2.1122,2.1109,2.1109,2.1109,2.1109,2.1109,2.1109,2.1109,2.1109,2.1109,2.1109,2.0824,1.9387,1.894,1.8364,1.5619,1.4847,1.452,1.3161,1.2807,1.2807,1.2807,1.2807,1.2807,1.2807,1.2807,1.2807,1.2807,1.2807,1.2807,1.2807,1.2807,1.2742,1.2621,1.2426,0.0,1.203,1.189,1.1741,1.1533,1.1516,1.1443,1.1228,1.1086,1.109,1.1195,1.107,1.1163,1.1492,1.1309,1.13,1.1508,1.1309,1.13,1.1471,0.0,0.0,0.0,0.0,0.0,0.0,0.0,0.0,0.0,0.0,0.0,0.0,0.0,0.0,0.0,0.0,0.0,0.0,0.0,0.0,0.0,1.9872,2.055,2.0856,2.1583,2.2119,2.2173,2.2714,2.2802,2.2115,2.2244,2.2223,2.1783,2.1915,2.1961,2.175,2.185,2.1863,2.175,2.175,2.175,2.175,2.175,2.1932,2.2308,2.2308,2.2471,2.2794,2.2438,2.2308,2.229,2.2027,2.185,2.175,2.1863,2.185,2.1697,2.1283,2.1109,2.1109,2.1109,2.1109,2.1109,2.1109,2.1109,2.1109,2.1109,2.1109,2.0652,1.8267,1.756,1.698,1.4161,1.3391,1.3293,1.2898,1.2807,1.2807,1.2807,1.2807,1.2807,1.2807,1.2807,1.2807,1.2807,1.2807,1.2807,1.2807,1.2807,1.2742,1.2621,1.2556,0.0,1.2255,1.2069,1.1908,1.1859,1.1851,1.1817,1.1638,1.1611,1.1516,1.1427,1.1256,1.1313,1.1717,1.1654,1.1583,1.1516,1.129,1.1195,0.0,0.0,0.0,0.0,0.0,0.0,0.0,0.0,0.0,0.0,0.0,0.0,0.0,0.0,0.0,0.0,0.0,0.0,0.0,0.0,0.0,0.0,2.0579,2.1217,2.1587,2.2105,2.2431,2.2405,2.2896,2.3024,2.2465,2.2438,2.2343,2.2024,2.2098,2.2111,2.2024,2.2098,2.2111,2.1991,2.1991,2.1991,2.1991,2.1991,2.1991,2.1991,2.1991,2.1991,2.1991,2.1991,2.1991,2.2024,2.2111,2.2098,2.1991,2.2111,2.2098,0.0,0.0,0.0,0.0,0.0,2.1109,2.1109,2.1109,2.1109,2.1014,2.0399,2.0227,1.9718,1.6947,1.6106,1.5651,1.3424,1.2807,1.2807,1.2807,1.2807,1.2807,1.2807,1.2807,1.2807,1.2807,1.2807,1.2807,1.2807,1.2807,0.0,1.2807,1.2807,1.2767,1.2694,1.2645,1.2556,1.2426,1.2255,1.2142,1.2142,1.2142,1.2078,1.2012,1.1931,0.0,0.0,0.0,1.1624,1.1874,1.1882,0.0,0.0,0.0,0.0,0.0,0.0,0.0,0.0,1.2083,1.2012,0.0,0.0,0.0,0.0,0.0,0.0,0.0,0.0,0.0,0.0,0.0,0.0,0.0,0.0,0.0,0.0,2.1301,2.1863,2.2352,2.2411,2.2472,2.2472,2.2699,2.2786,2.2498,2.2472,2.2378,2.2151,2.2378,2.2418,2.2205,2.2432,0.0,0.0,0.0,2.2164,2.2138,2.2138,2.2124,2.2084,2.2084,2.2084,2.2084,2.2084,2.2084,2.2098,2.2352,2.2325,2.2111,2.2365,2.2311,2.2071,2.205,2.1836,2.1555,2.1256,2.1136,2.1109,2.1109,0.0,0.0,1.9463,1.9004,1.8492,1.5716,1.4912,1.4618,1.3194,1.2807,1.2807,1.2823,1.2815,1.2815,1.2856,1.2831,1.2807,1.2831,1.2815,1.2807,1.2807,1.2807,1.2807,1.2807,1.2807,1.2807,1.2807,1.2702,1.2629,1.2629,1.2442,1.2337,1.2337,0.0,0.0,1.2312,1.2174,1.2119,1.2296,1.2135,1.207,1.2086,1.2079,1.2217,1.2613,1.2588,1.2823,1.3334,1.3374,1.348,1.3617,1.2437,1.2228,0.0,0.0,0.0,0.0,0.0,0.0,0.0,0.0,0.0,0.0,0.0,0.0,0.0,0.0,0.0,2.1315,2.1903,2.2285,2.2405,2.2619,2.2813,2.2813,2.2867,2.288,2.2813,2.2813,2.2859,2.3046,2.3092,2.3233,2.3455,2.3509,2.3522,2.3469,2.3455,2.3313,2.3038,2.306,2.2939,2.2733,0.0,0.0,2.2733,2.2733,2.2733,2.2733,2.2786,2.2773,2.2733,2.2786,2.2773,2.2679,2.2211,2.1836,2.1582,2.1529,2.1309,2.1109,2.1109,2.1109,2.0887,1.9463,1.9004,1.8492,1.5716,1.4912,0.0,1.3194,1.2807,1.284,1.3011,1.2904,1.288,1.3197,1.3043,1.284,1.3011,1.2904,1.2807,1.2807,1.2807,1.2807,1.2807,1.2807,1.2807,1.2807,1.2775,1.275,1.275,1.2629,1.2547,1.2547,1.2547,1.249,1.232,1.2402,1.2418,1.2312,1.2433,1.2523,1.2645,1.2495,1.2527,1.2765,1.2501,1.2547,1.2922,1.3239,1.3531,1.3847,1.3426,1.3375,0.0,0.0,0.0,0.0,0.0,0.0,0.0,0.0,0.0,0.0,0.0,2.0027,2.0762,0.0,2.1577,2.2325,2.2686,2.2926,2.3073,2.322,2.3295,2.3113,2.31,2.3153,2.3335,2.3348,2.3415,2.3541,2.3554,2.3621,2.3803,2.3803,2.3803,2.3803,2.3803,2.3736,2.3554,2.3554,2.3394,2.31,2.31,2.3041,2.2893,2.2893,2.2893,2.2893,2.2893,2.2893,2.2893,2.2893,2.2893,2.2867,2.2572,2.2278,2.1964,2.185,2.167,2.155,2.155,2.155,2.1181,1.9042,1.8263,1.7695,1.4954,1.4095,1.3867,1.3277,1.31,1.3124,1.3214,1.3165,1.3149,1.3362,1.3238,1.3124,1.3214,1.3165,1.3076,1.2986,1.2962,1.2904,1.2815,1.2807,1.2807,1.2807,1.2807,1.2807,1.2807,1.2726,1.2702,1.2702,1.2702,1.267,1.2548,1.2726,1.2824,1.271,1.2906,1.3044,1.31,1.2986,1.3086,1.3348,1.3094,1.3142,1.3491,1.3702,1.3902,1.4164,1.4136,1.4027,0.0,0.0,0.0,0.0,0.0,0.0,0.0,2.0087,2.007,2.0628,2.0935,2.1368,2.2111,2.2245,2.2498,2.3287,2.3425,2.3581,2.3857,2.3901,2.3875,2.3652,2.3514,2.3514,2.379,2.3857,2.391,2.3928,2.3977,2.3968,2.4058,2.4004,2.3977,2.3977,2.3977,2.395,2.3884,2.3884,2.3674,2.3292,2.338,2.3247,2.2987,2.2987,2.2987,2.2987,2.292,2.2893,2.2893,2.2893,2.2893,2.2893,2.2893,2.2712,2.2472,2.2178,2.2031,2.1958,2.1681,2.1582,2.1119,1.8194,1.7149,1.6568,1.4138,1.3305,1.3181,1.3362,1.3402,1.341,1.3417,1.3435,1.3419,1.3492,1.3459,1.3419,1.3417,1.3427,1.3362,1.3173,1.3149,1.3108,1.2929,1.2904,1.2888,1.2815,1.2807,1.2807,1.2807,1.2807,1.2807,1.2807,1.2807,1.2815,1.2848,1.3043,1.3149,1.3149,1.3321,1.3419,1.3425,1.339,1.3552,1.3945,1.3708,1.3797,1.4229,1.4261,1.4351,1.4452,1.4676,1.4479,2.1233,2.1072,2.1162,2.1375,2.1238,2.1238,0.0,2.189,2.189,2.2479,2.2626,2.2773,2.31,2.3145,2.33,2.3696,2.3941,2.4115,2.4155,2.4382,2.4623,2.4863,2.4231,2.3763,2.3803,2.4008,2.4262,2.4479,2.4506,2.4649,2.4954,2.4676,2.4506,2.4506,2.4506,2.4422,2.4155,2.4155,2.3875,2.3292,2.3594,2.3567,2.3273,2.3273,2.3273,2.3225,2.2979,2.2893,2.2893,2.2893,2.2893,2.2893,2.2893,2.288,2.2813,2.2485,2.2205,2.1813,2.0522,2.0044,1.9578,1.6601,1.5643,1.5362,1.3839,1.3394,1.3378,1.3402,1.3402,1.3443,1.3536,1.349,1.3484,1.3766,1.3638,1.3417,1.3544,1.349,1.3402,1.3378,1.337,1.337,1.3353,1.3345,1.3206,1.2848,1.2807,1.2807,1.2807,1.2807,1.2807,1.2807,1.2807,1.2864,1.3051,1.3238,1.337,1.337,1.3394,1.3441,1.3569,1.3297,1.3464,1.414,1.3797,1.3848,1.4371,1.457,1.4659,1.4684,1.4854,1.4846,2.2286,2.2462,2.2678,2.2978,2.2943,2.2948,2.3467,2.3154,2.2886,2.3335,2.3429,2.3522,2.3781,2.3945,2.4182,2.4489,2.477,2.497,2.497,2.493,2.4943,2.5064,2.4609,2.4409,2.4756,2.489,2.501,2.5144,2.5106,2.5197,2.5331,2.5211,2.5064,2.4903,2.489,2.4756,2.4426,2.4412,2.4212,2.3834,2.3968,2.3875,2.3581,2.3581,2.3487,2.3278,2.3027,2.2893,2.2893,2.2893,2.2893,2.2893,2.2893,2.2893,2.288,2.276,2.2639,2.2317,2.078,2.0269,1.9791,1.6787,1.5741,1.5459,1.4099,1.3612,1.3547,1.3652,1.3677,1.3701,1.3774,1.3734,1.3717,1.3863,1.379,1.3701,1.3774,1.3734,1.3652,1.3547,1.353,1.3498,1.3427,1.3402,1.3353,1.3173,1.3149,1.3149,1.3149,1.3149,1.3149,1.3149,1.3149,1.3173,1.328,1.3425,1.353,1.353,1.3628,1.3717,1.3755,1.3649,1.3782,1.4318,1.3819,1.3796,1.422,1.4065,1.3983,1.4028,1.416,1.4199,2.3097,2.3386,2.3659,2.3921,2.4063,2.4129,2.4295,2.4078,2.3848,2.3981,2.4075,2.4205,2.4302,2.4519,2.4823,2.505,2.5398,2.5611,2.5518,2.5398,2.5291,2.5211,2.501,2.5013,2.5478,2.5518,2.5545,2.5625,2.5638,2.5638,2.5638,2.5558,2.5411,2.5211,2.5117,2.497,2.4719,2.4639,2.4452,2.4209,2.4289,2.4168,2.3924,2.3924,2.3728,2.3434,2.3241,2.3094,2.3027,2.3027,2.2974,2.2893,2.2893,2.2893,2.2907,2.2987,2.2685,2.207,2.0609,1.9738,1.8925,1.6394,1.5468,1.5157,1.4175,1.3847,1.3771,1.388,1.3969,1.4034,1.3993,1.401,1.405,1.405,1.405,1.405,1.405,1.401,1.3945,1.3779,1.3714,1.3642,1.3539,1.3549,1.3549,1.3549,1.3549,1.3516,1.3419,1.3402,1.3402,1.3402,1.3417,1.3449,1.3449,1.3612,1.3682,1.3682,1.388,1.3977,1.3977,1.4026,1.4188,1.4468,1.4088,1.4064,1.4356,1.3938,1.3748,1.3756,1.3723,1.3706,2.3501,2.3489,2.3568,2.3749,2.4042,2.4285,2.4223,2.466,2.4943,2.4626,2.4836,2.4957,2.4639,2.4863,2.5101,2.5115,2.561,2.5877,2.5558,2.5758,2.5864,2.5531,2.5491,2.5491,2.5518,2.5518,2.5625,2.5957,2.5984,2.5984,2.5984,2.5665,2.5504,2.5504,2.5224,2.5115,2.5064,2.4746,2.4452,2.4209,2.4452,2.4439,2.4195,2.4195,2.4035,2.379,2.379,2.3581,2.3278,2.3278,2.314,2.2893,2.2893,2.2893,2.2934,2.3207,2.2163,2.0492,1.9191,1.7628,1.6011,1.4686,1.4114,1.3967,1.3896,1.4026,1.4123,1.3953,1.4111,1.4338,1.4213,1.4294,1.4379,1.4379,1.4379,1.4379,1.4379,1.4286,1.42,1.4164,1.4018,1.3896,1.3888,1.3888,1.3888,1.3888,1.3888,1.3758,1.3451,1.3402,1.3402,1.3402,1.353,1.3601,1.3601,1.379,1.3896,1.3896,1.4066,1.4208,1.4208,1.4326,1.4468,1.4692,1.4654,1.4781,1.496,1.4584,1.4353,1.4361,1.3898,1.3706,2.3815,2.399,2.4229,2.4735,2.4878,2.4879,2.4879,2.4982,2.4943,2.4449,2.4422,2.4409,2.4115,2.4462,2.485,2.505,2.561,2.6024,2.6079,2.6186,2.6066,2.5571,2.5692,2.5651,2.5264,2.5398,2.5638,2.5971,2.5998,2.6078,2.6279,2.6146,2.6012,2.585,2.5743,2.561,2.5371,2.5077,2.4877,2.4783,2.4653,2.4546,2.4452,2.4289,2.4155,2.4048,2.3884,2.375,2.3621,2.3621,2.3589,2.3496,2.3496,2.3496,2.3368,2.235,2.0983,1.9556,1.9094,1.7882,1.6249,1.4796,1.4229,1.4107,1.4184,1.4221,1.4188,1.4237,1.4298,1.4379,1.4322,1.4354,1.4395,1.4395,1.4395,1.4395,1.4395,1.4346,1.4351,1.4351,1.4205,1.4083,1.4083,1.3985,1.3945,1.4066,1.3977,1.3855,1.3742,1.3725,1.3725,1.3725,1.3774,1.3815,1.3815,1.3977,1.4083,1.4083,1.4253,1.4351,1.4351,1.4363,1.4484,1.4708,1.4563,1.4438,1.4337,1.4013,1.3709,1.3479,1.3321,1.3242,2.4142,2.4371,2.4624,2.5042,2.5048,2.4968,2.4968,2.5049,2.4877,2.4195,2.4128,2.4048,2.3576,2.4008,2.4583,2.4877,2.5623,2.6212,2.636,2.648,2.6333,2.5745,2.5877,2.581,2.5277,2.5411,2.5638,2.5971,2.6091,2.6225,2.6373,2.6386,2.6306,2.6158,2.6051,2.5904,2.5678,2.5277,2.5024,2.4917,2.4693,2.4599,2.4586,2.4399,2.4356,2.4342,2.4155,2.4022,2.3928,2.3928,2.3539,2.2898,2.2898,2.2563,2.1954,2.0955,1.9632,1.8304,1.8304,1.7226,1.5725,1.4803,1.4408,1.4294,1.4363,1.4399,1.4375,1.4379,1.4484,1.4611,1.4546,1.4578,1.4619,1.4619,1.4619,1.4619,1.4619,1.4578,1.4492,1.4492,1.4391,1.427,1.427,1.4172,1.4131,1.4253,1.4164,1.4066,1.401,1.3945,1.3904,1.3904,1.3904,1.3928,1.3993,1.4143,1.4205,1.4261,1.4432,1.4492,1.4492,1.4586,1.4708,1.4895,1.4747,1.4657,1.4514,1.4057,1.3669,1.3436,1.3123,1.3003,2.4474,2.461,2.4773,2.4673,2.4613,2.4613,2.4586,2.4836,2.482,2.3937,2.3928,2.3848,2.3014,2.3567,2.4289,2.4546,2.5625,2.64,2.6426,2.668,2.6653,2.6105,0.0,0.0,0.0,0.0,2.5705,2.5998,2.6265,2.6373,2.6386,2.6386,2.6386,2.6386,2.6158,2.6011,2.6011,2.5449,2.497,2.4626,2.4626,2.4613,2.4599,2.4599,2.4599,2.4599,2.4599,2.4439,2.4222,2.4113,2.3024,2.133,2.1258,2.0295,1.8962,1.9207,1.8289,1.6899,1.6824,1.5744,1.4452,1.4667,1.4594,1.4411,1.4419,1.4578,1.4676,1.4468,1.47,1.4966,1.4765,1.4846,1.5006,1.5006,1.5006,1.5006,1.5006,1.4838,1.4724,1.4724,1.4533,1.4403,1.4395,1.4403,1.4411,1.4411,1.4411,1.4383,1.4213,1.4034,1.392,1.3912,1.392,1.3993,1.4164,1.4233,1.427,1.4395,1.4581,1.4724,1.4724,1.4917,1.5049,1.5197,1.5205,1.5302,1.5489,1.4651,1.4251,1.4171,1.3417,1.3023,2.5016,2.4905,2.4705,2.4964,2.4996,2.485,2.4409,2.4369,2.4168,2.3308,2.2979,2.2739,2.2331,2.3161,2.4048,2.4519,2.5625,2.6547,2.7028,2.7295,2.7255,2.6667,0.0,2.6974,2.6239,2.656,2.6707,2.6346,2.6185,2.6198,2.6373,2.6386,2.6386,2.6386,2.6319,2.6319,2.6319,2.5957,2.5516,2.497,2.497,2.485,2.4599,2.4599,2.4599,2.4599,2.4599,2.4559,2.4419,2.3213,2.2423,2.1833,2.0634,1.9927,1.9452,1.8313,1.7625,1.7094,1.5916,1.5205,1.4876,1.4925,1.4781,1.4659,1.4789,1.4773,1.4724,1.4806,1.4933,1.499,1.4949,1.4974,1.5006,1.5006,1.5006,1.5006,1.5006,1.4966,1.4941,1.4941,1.4757,1.4594,1.4419,1.4508,1.4635,1.4635,1.4635,1.457,1.4354,1.429,1.4245,1.4123,1.4221,1.4261,1.4188,1.4424,1.4594,1.4635,1.4806,1.4941,1.4941,1.4982,1.5049,1.5197,1.5335,1.5337,1.5191,1.5113,1.4765,1.4109,1.3904,1.3617,2.5236,2.511,2.4894,2.4931,2.4905,2.473,2.4142,2.4008,2.3728,2.2719,2.2352,2.2098,2.1683,2.2686,2.3768,2.4319,2.5651,2.6787,2.7375,2.775,2.7722,2.7255,2.7495,0.0,2.6841,2.7108,2.7175,2.6841,2.6507,2.636,2.6386,2.6386,2.6386,2.6386,2.6386,2.6333,2.6238,2.6078,2.577,2.5277,2.5277,2.5184,2.4973,2.4853,2.4836,2.4823,2.4653,2.4258,2.3591,2.2607,2.1421,2.0141,1.9136,1.8299,1.7578,1.6674,1.6339,1.6224,1.5305,1.5006,1.5006,1.5006,1.4941,1.4838,1.4974,1.4933,1.4838,1.4974,1.5006,1.5006,1.5006,1.5006,1.5006,1.5006,1.5006,1.5006,1.5006,1.5006,1.5006,1.5006,1.4925,1.4789,1.4684,1.4749,1.4822,1.4822,1.4822,1.4781,1.4676,1.4464,1.431,1.4294,1.431,1.4343,1.4408,1.4594,1.4741,1.4814,1.4949,1.5006,1.5006,1.5041,1.5171,1.5318,1.5536,1.5594,1.5494,1.5416,1.5051,1.4349,1.419,1.3859,2.5274,2.5203,2.5042,2.4673,2.4546,2.4346,2.3834,2.3656,2.3268,2.2184,2.1897,2.171,2.1203,2.2298,2.3487,2.4155,2.5665,2.7001,2.7669,2.8018,2.8085,2.7789,2.7762,2.7655,2.7443,2.7429,2.7403,2.7362,2.7081,2.6814,2.652,2.6507,2.6493,2.6453,2.6453,2.6306,2.6051,2.6051,2.5904,2.5571,2.5571,2.5545,2.5504,2.5251,2.5144,2.5117,2.4602,2.3667,2.2531,2.1888,2.0103,1.769,1.7252,1.6259,1.5039,1.5015,1.5006,1.5006,1.5006,1.5023,1.5039,1.5015,1.5006,1.5006,1.5006,1.5006,1.5006,1.5006,1.5006,1.5006,1.5006,1.5006,1.5006,1.5006,1.5006,1.5006,1.5006,1.5006,1.5006,1.5006,1.5006,1.5006,1.5006,1.5006,1.5006,1.5006,1.5006,1.5006,1.5006,1.4599,1.4335,1.4419,1.4359,1.4399,1.4684,1.4732,1.4806,1.4998,1.5006,1.5006,1.5006,1.5139,1.5286,1.5512,1.5683,1.5821,1.5925,1.5587,1.5133,1.4589,1.4273,1.3859,2.5135,2.4964,2.4673,2.4636,2.4275,2.3834,2.3487,2.2832,2.2198,2.1756,2.1462,2.1229,2.1122,2.2111,2.33,2.4346,2.5638,2.6841,2.7951,2.8152,2.8165,2.8112,2.8112,2.8085,2.8045,2.8031,2.7924,2.7642,2.7575,2.7415,2.7175,2.7148,2.7001,2.6747,2.6747,2.6613,2.6319,2.6319,2.6212,2.5917,2.5917,2.5784,2.5518,2.5464,2.5438,2.5361,2.3857,0.0,2.2615,1.9782,1.8358,1.771,1.619,1.5421,1.5132,1.5025,1.5006,1.5006,1.5006,1.5065,1.5171,1.5055,1.5006,1.5006,1.5006,1.5006,1.5006,1.5006,1.5006,1.5006,1.5006,1.5006,1.5006,1.5006,1.5006,1.5006,1.5006,1.5006,1.5006,1.5006,1.5006,1.5006,1.5006,1.5006,1.5006,1.5006,1.5006,1.5006,1.5006,1.4925,1.4827,1.4676,1.4795,1.4835,1.4716,1.4838,1.4974,1.4998,1.5006,1.5006,1.5006,1.5139,1.5286,1.5512,1.5683,1.5699,1.5505,1.5422,1.4968,1.419,1.4149,1.3859,2.518,2.4894,2.4559,2.4412,2.4088,2.3643,2.2993,2.2405,2.1857,2.1416,2.1203,2.1109,2.1109,2.1937,2.2926,2.3772,2.4773,2.5945,2.7268,2.7455,2.767,2.8125,2.8179,2.8179,2.8179,2.8179,2.8125,2.7978,2.7965,2.7777,2.7336,2.7309,2.7175,2.6787,2.6787,2.668,2.6386,2.6386,2.6319,2.6225,2.6225,2.6106,2.5959,2.5812,2.5268,2.4339,2.3326,2.1981,2.0319,1.8602,1.7454,1.6689,1.5617,1.5197,1.5173,1.5033,1.5006,1.5006,1.5006,1.5025,1.5082,1.5031,1.5033,1.509,1.5031,1.5006,1.5006,1.5006,1.5006,1.5006,1.5006,1.5006,1.5006,1.5006,1.5006,1.5006,1.5006,1.5006,1.5006,1.5006,1.5041,1.5106,1.5106,1.5187,1.522,1.5122,1.5106,1.5074,1.5015,1.5006,1.4974,1.4854,1.4838,1.4871,1.4938,1.4976,1.5088,1.5244,1.5163,1.5155,1.5244,1.5423,1.5561,1.565,1.5821,1.5836,1.5711,1.5505,1.5051,1.439,1.419,1.3859,2.5107,2.4821,2.4532,2.4275,2.3888,2.3415,2.2592,2.2098,2.167,2.1203,2.1109,2.1109,2.1109,2.1724,2.2472,2.3172,2.4026,2.5106,2.6573,2.6894,2.7295,2.8098,2.8179,2.8179,2.8179,2.8179,2.8179,2.8179,2.8179,2.7978,2.7523,2.7496,2.7295,2.6934,2.6921,2.6747,2.6386,2.6386,2.6386,2.6386,2.6386,2.6386,2.6386,2.5793,2.4774,2.3427,2.2428,2.0561,1.825,1.7701,1.6856,1.5796,1.548,1.5318,1.5294,1.5147,1.512,1.512,1.512,1.5145,1.5169,1.5137,1.513,1.5155,1.5047,1.5006,1.5006,1.5006,1.5031,1.5055,1.5015,1.5063,1.512,1.512,1.5049,1.5033,1.5112,1.512,1.512,1.512,1.5204,1.5262,1.5262,1.5383,1.5463,1.5278,1.5262,1.5244,1.5106,1.512,1.512,1.512,1.4927,1.4897,1.5173,1.5139,1.5204,1.5496,1.5343,1.5327,1.5512,1.5683,1.5812,1.5812,1.5991,1.6022,1.594,1.5609,1.5187,1.46,1.4246,1.3859,2.4666,2.4636,2.4532,2.4275,2.3603,2.2893,2.2498,2.1777,2.1176,2.1122,2.1109,2.1109,2.1109,2.139,2.2037,2.3105,2.4026,2.5106,2.6573,2.7281,2.7749,2.8138,2.8179,2.8179,2.8179,2.8179,2.8179,2.8179,2.8179,2.8165,2.8112,2.8098,2.7844,2.7282,2.7269,2.7001,2.64,2.6386,2.6386,2.6386,2.6386,2.6386,2.6347,2.4761,2.3899,2.3568,2.0392,1.8823,0.0,1.6852,1.6082,1.5958,1.5804,1.5723,1.5699,1.5528,1.5463,1.5463,1.5463,1.5569,1.5715,1.552,1.5252,1.5023,1.5006,1.5006,1.5006,1.5006,1.5082,1.514,1.5047,1.5212,1.5463,1.5463,1.5294,1.5221,1.5431,1.5463,1.5463,1.5463,1.548,1.5448,1.5448,1.5504,1.5512,1.5496,1.5448,1.5488,1.5463,1.5463,1.5463,1.5463,1.5262,1.5164,1.5197,1.5374,1.548,1.5512,1.5496,1.5496,1.5512,1.5683,1.5812,1.5812,1.6105,1.6075,1.5748,1.5706,1.5203,1.435,1.4172,1.3859,2.4536,2.4599,2.4572,2.4452,2.3661,2.2813,2.2485,2.1737,2.1109,2.1109,2.1109,2.1162,2.1368,2.1355,2.1617,2.2585,2.2892,2.3554,2.5037,2.5598,2.6226,2.7228,2.755,2.7791,2.8152,2.8179,2.8179,2.8179,2.8179,2.8112,2.7924,2.7924,2.7602,2.7014,2.7001,2.68,2.6386,2.6386,2.6386,2.6386,2.6386,2.6386,2.6347,2.4574,2.3244,2.2108,1.9684,1.8023,0.0,1.6287,1.6007,1.5983,1.5845,1.5812,1.5788,1.5577,1.5512,1.5512,1.5512,1.5561,1.561,1.5536,1.5342,1.513,1.513,1.5057,1.5006,1.5006,1.5098,1.5181,1.5147,1.5325,1.5512,1.5512,1.5455,1.5383,1.5464,1.5512,1.5512,1.5512,1.5601,1.5666,1.5666,1.5764,1.5756,1.5691,1.5666,1.5634,1.5528,1.5512,1.5512,1.5512,1.5408,1.5447,1.5553,1.5536,1.561,1.578,1.5731,1.5723,1.5788,1.5861,1.5934,1.5934,1.6178,1.6224,1.6057,1.5916,1.557,1.5134,1.4523,1.4068,2.4291,2.4466,2.4559,2.4386,2.3621,2.28,2.2378,2.1683,2.1109,2.1109,2.1109,2.1176,2.1422,2.1355,2.147,2.2178,2.2338,2.2846,2.4142,2.473,2.5478,2.664,2.7081,2.751,2.8005,2.8138,2.8179,2.8179,2.8179,2.8018,2.7589,2.7575,2.7335,2.6841,2.6787,2.668,2.6386,2.6386,2.6386,2.6386,2.6386,2.6149,2.5581,2.3844,2.2068,2.0322,1.8585,1.7132,0.0,1.6007,1.6007,1.5991,1.5902,1.5853,1.5837,1.5715,1.5634,1.5634,1.5634,1.5634,1.5634,1.5634,1.5545,1.5382,1.5294,1.5155,1.5015,1.5033,1.5179,1.5302,1.5408,1.5456,1.5505,1.561,1.5634,1.561,1.5618,1.5634,1.5634,1.5634,1.5772,1.5853,1.5853,1.5959,1.5958,1.5869,1.5853,1.5813,1.5691,1.5634,1.5634,1.5634,1.5634,1.5699,1.5804,1.5715,1.574,1.5991,1.5926,1.5934,1.6072,1.608,1.6104,1.6161,1.6373,1.6462,1.6462,1.6124,1.5868,1.5624,1.4767,1.4196,2.3843,2.4195,2.4466,2.3928,2.3348,2.2746,2.2124,2.1537,2.1109,2.1109,2.1109,2.1109,2.1109,2.1381,2.1676,2.197,2.2739,2.3585,2.4466,2.5384,2.6198,2.6747,2.7081,2.7416,2.7669,2.8005,2.8179,2.8179,2.8179,2.7924,2.7349,2.7309,2.7134,2.6787,2.6787,2.668,2.6386,2.6386,2.6386,2.6386,2.6386,2.5502,2.3776,2.2028,2.0282,1.8545,1.6772,1.6007,0.0,1.6007,1.6007,1.6007,1.5999,1.5999,1.5999,1.5999,1.5999,1.5999,1.5999,1.5999,1.5999,1.5999,1.5918,1.578,1.5569,1.526,1.5039,1.5148,1.5327,1.5553,1.5902,1.574,1.5561,1.5918,1.5902,1.5821,1.5958,1.5999,1.5999,1.5999,1.5999,1.5999,1.5999,1.5999,1.6007,1.5999,1.5999,1.5999,1.5999,1.5999,1.5999,1.5999,1.5999,1.5926,1.5829,1.5934,1.5999,1.6007,1.5999,1.608,1.6292,1.63,1.6389,1.6568,1.6712,1.6801,1.6801,1.6325,1.5884,1.5487,1.4815,1.4188,2.3035,2.3322,2.3434,2.346,2.2859,2.2218,2.2031,2.1537,2.1109,2.1109,2.1109,2.1229,2.163,2.1649,2.201,2.3287,2.3581,2.3941,2.481,2.5569,2.6131,2.648,2.7362,2.7938,2.8031,2.8125,2.8179,2.8179,2.8179,2.7924,2.7336,2.7309,2.7081,2.6547,2.6533,2.648,2.6386,2.6386,2.6386,2.6386,2.5184,2.4335,2.3696,2.0767,1.9105,1.8504,1.6772,1.6007,1.6007,1.6007,1.6007,1.6007,1.6007,1.6007,1.6007,1.6007,1.6007,1.6007,1.6007,1.6007,1.6007,1.6007,1.5918,1.574,1.5569,1.535,1.5148,1.5335,1.5553,1.5748,1.5942,1.5926,1.5869,1.5975,1.5958,1.5934,1.5991,1.6007,1.6007,1.6007,1.6007,1.6007,1.6007,1.6007,1.6007,1.6007,1.6007,1.6007,1.6007,1.6007,1.6007,1.6007,1.6007,1.5983,1.5926,1.5975,1.6007,1.6007,1.6112,1.6243,1.63,1.6422,1.6519,1.6619,1.6411,1.6325,1.6325,1.6007,1.5511,1.4858,1.4529,1.4035,2.2365,2.2733,2.292,2.2966,2.2485,2.1951,2.1877,2.1456,2.1109,2.1109,2.1109,2.1256,2.177,2.1796,2.2144,2.334,2.3567,2.3915,2.4796,2.5411,2.6065,2.668,2.7496,2.8018,2.8018,2.8125,2.8179,2.8179,2.8179,2.7924,2.7336,2.7309,2.7041,2.6413,2.6386,2.6386,2.6386,2.6386,2.6386,2.6386,2.4614,2.3444,2.2723,1.9876,1.8218,1.7574,1.6492,1.6007,0.0,1.6007,1.6007,1.6007,1.6007,1.6007,1.6007,1.6007,1.6007,1.6007,1.6007,1.6007,1.5991,1.5926,1.5772,1.5561,1.5528,1.5391,1.5343,1.5561,1.574,1.5902,1.5975,1.6007,1.6007,1.6007,1.6007,1.6007,1.6007,1.6007,1.6007,1.6007,1.6007,1.6007,1.6007,1.6007,1.6007,1.6007,1.6007,1.6007,1.6007,1.6007,1.6007,1.6007,1.6007,1.6007,1.6007,1.6007,1.6031,1.6096,1.6243,1.6365,1.6461,1.6625,1.6714,1.6779,1.6581,1.6463,1.6463,1.596,1.5264,1.4406,1.4195,1.388,0.0,2.2358,2.2706,2.2392,2.2124,2.189,2.1622,2.1309,0.0,2.1109,2.1109,2.1216,2.1609,2.1863,2.2124,2.2539,2.3052,2.3719,2.4572,2.5251,2.6052,2.7229,2.7562,2.7736,2.7736,2.8018,2.8179,2.8179,2.8179,2.7924,2.7336,2.7309,2.7041,2.6413,2.6386,2.6386,2.6386,2.6386,2.6347,2.6188,2.4455,2.2723,2.098,1.9196,1.7533,1.6007,1.6007,1.6007,1.6007,1.6007,1.6007,1.6007,1.6007,1.6007,1.6007,1.6007,1.6007,1.6007,1.6007,1.6007,1.5975,1.5829,1.5528,1.5237,1.5472,1.5528,1.5553,1.5723,1.5902,1.6007,1.6007,1.6007,1.6007,1.6007,1.6007,1.6007,1.6007,1.6007,1.6007,1.6007,1.6007,1.6007,1.6007,1.6007,1.6007,1.6007,1.6007,1.6007,1.6007,1.6007,1.6007,1.6007,1.6007,1.6007,1.6007,1.6007,1.6072,1.6276,1.6308,1.6479,1.6777,1.6817,1.6906,1.7112,1.7024,1.698,1.6936,1.6057,1.5096,1.4112,1.3926,1.3734,2.1298,0.0,2.1496,2.143,2.1363,2.1296,0.0,2.1162,2.1109,2.1109,2.1109,2.1403,2.2412,2.2278,2.2525,2.4182,2.4569,2.4903,2.5596,2.6386,2.7162,2.7898,2.8031,2.8085,2.8085,2.8138,2.8179,2.8179,2.8179,2.7924,2.7336,2.7309,2.7041,2.6413,2.6386,2.6386,2.6386,2.6386,2.574,2.4375,2.2631,2.0888,1.9146,1.7419,1.641,1.6007,1.6007,1.6007,1.6007,1.6007,1.6007,1.6007,1.6007,1.6007,1.6007,1.6007,1.6007,1.6007,1.6007,1.6007,1.5975,1.5829,1.5528,1.5262,1.5618,1.5618,1.5553,1.5723,1.5902,1.6007,1.6007,1.6007,1.6007,1.6007,1.6007,1.6007,1.6007,1.6007,1.6007,1.6007,1.6007,1.6007,1.6007,1.6007,1.6007,1.6007,1.6007,1.6007,1.6007,1.6007,1.6007,1.6007,1.6007,1.6007,1.6007,1.6007,1.6023,1.6064,1.6365,1.6552,1.6641,1.6909,1.7071,1.7112,1.6409,1.5837,1.5477,1.4911,1.4444,1.4119,1.4034,1.3878,2.156,2.1627,2.171,2.171,2.171,2.171,2.171,2.1403,2.1109,2.1109,2.1216,2.1582,2.2345,2.2539,2.302,2.4312,2.486,2.5422,2.6239,2.6987,2.767,2.8125,2.8179,2.8179,2.8179,2.8179,2.8179,2.8179,2.8179,2.7991,2.7495,2.7376,2.7095,2.66,2.6453,2.6386,2.6386,2.6386,2.5541,2.3776,2.2028,2.0282,1.8545,1.6772,1.6007,1.6007,1.6007,1.6007,1.6007,1.6007,1.6007,1.6007,1.6007,1.6007,1.6007,1.6007,1.6007,1.5991,1.5951,1.5772,1.5634,1.5658,1.5463,1.5254,1.5569,1.5642,1.5666,1.5845,1.5926,1.6007,1.6007,1.6007,1.6007,1.6007,1.6007,1.6007,1.6007,1.6007,1.6007,1.6007,1.6007,1.6007,1.6007,1.6007,1.6007,1.6007,1.6007,1.6007,1.6007,1.6007,1.6007,1.6007,1.6007,1.6007,1.6007,1.6007,1.6039,1.612,1.6349,1.6527,1.6698,1.6893,1.7031,1.7112,1.6585,1.5975,1.5235,1.498,1.4552,1.3966,1.3966,1.3878,2.2223,2.2471,2.2653,2.2352,2.2392,2.2458,2.2311,2.171,2.1176,2.1176,2.1408,2.1743,2.2231,2.2913,2.3554,2.4071,2.4807,2.5678,2.68,2.7388,2.7802,2.8152,2.8179,2.8179,2.8179,2.8179,2.8179,2.8179,2.8179,2.8058,2.7709,2.7469,2.7175,2.6787,2.6547,2.6386,2.6386,2.6149,2.5144,2.3364,2.1625,1.9886,1.8137,1.6689,1.6007,1.6007,1.6007,0.0,1.6007,1.6007,1.6007,1.6007,1.6007,1.6007,1.6007,1.6007,1.6007,1.5983,1.5869,1.5593,1.5302,1.5504,1.5391,1.5278,1.5496,1.5658,1.5813,1.595,1.6007,1.6007,1.6007,1.6007,1.6007,1.6007,1.6007,1.6007,1.6007,1.6007,1.6007,1.6007,1.6007,1.6007,1.6007,1.6007,1.6007,1.6007,1.6007,1.6007,1.6007,1.6007,1.6007,1.6007,1.6007,1.6007,1.6007,1.6007,1.6064,1.6251,1.6292,1.647,1.6793,1.6833,1.6914,1.7112,1.7024,1.6506,1.5539,1.5452,1.4902,1.3869,1.3869,1.3856,2.2728,2.3529,2.392,2.2157,2.2278,2.2639,2.189,2.1609,2.1515,2.1515,2.1555,2.2064,2.3581,2.3781,2.4165,2.5449,2.5984,2.6507,2.7428,2.7642,2.7802,2.8152,2.8179,2.8179,2.8179,2.8179,2.8179,2.8179,2.8179,2.8058,2.7709,2.7469,2.7175,2.6787,2.6547,2.6386,2.6386,2.4945,2.3324,2.1585,1.9836,1.8105,1.641,1.6122,1.6007,1.6007,0.0,1.6007,1.6007,1.6007,1.6007,1.6007,1.6007,1.6007,1.6007,1.6007,1.6007,1.5999,1.5975,1.5869,1.5699,1.5723,1.5618,1.5504,1.5683,1.5788,1.5813,1.595,1.6007,1.6007,1.6007,1.6007,1.6007,1.6007,1.6007,1.6007,1.6007,1.6007,1.6007,1.6007,1.6007,1.6007,1.6007,1.6007,1.6007,1.6007,1.6007,1.6007,1.6007,1.6007,1.6007,1.6007,1.6007,1.6007,1.6007,1.6007,1.6015,1.6039,1.6219,1.647,1.6793,1.6947,1.708,1.7112,1.6709,1.6217,1.5667,1.5271,1.4773,1.4231,1.4231,1.4163,2.2493,2.331,2.395,2.278,2.3407,2.4142,2.3616,2.3,2.2512,2.2512,2.2512,2.2806,2.3794,2.4382,2.5144,2.6493,2.6814,2.7054,2.7615,2.7696,2.7802,2.8152,2.8179,2.8179,2.8179,2.8179,2.8179,2.8179,2.8179,2.8125,2.7991,2.755,2.7242,2.7068,2.6627,2.6386,2.6386,2.3724,2.1988,2.1182,1.944,1.7696,1.6007,1.6007,1.6007,1.6007,1.6007,1.6007,1.6007,1.6007,1.6007,1.6007,1.6007,1.6007,1.6007,1.6007,1.5942,1.591,1.5975,1.5821,1.565,1.574,1.5764,1.5666,1.5788,1.5845,1.5943,1.5983,1.6007,1.6007,1.6007,1.6007,1.6007,1.6007,1.6007,1.6007,1.6007,1.6007,1.6007,1.6007,1.6007,1.6007,1.6007,1.6007,1.6007,1.6007,1.6007,1.6007,1.6007,1.6007,1.6007,1.6007,1.6007,1.6007,1.6007,1.6007,1.6047,1.6178,1.6259,1.647,1.6793,1.689,1.693,1.693,1.6844,1.6447,1.5826,1.57,1.5395,1.4958,1.4703,1.4536,2.2575,2.322,2.3864,2.3582,2.4312,2.5104,2.5077,2.4168,2.3372,2.3639,2.3639,2.3768,2.4245,2.5184,2.6213,2.7162,2.7429,2.759,2.7776,2.7802,2.7924,2.8165,2.8179,2.8179,2.8179,2.8179,2.8179,2.8179,2.8179,2.8152,2.8085,2.759,2.7269,2.7202,2.6653,2.6188,2.5792,2.2751,2.1222,2.1182,1.9033,1.7296,1.6007,1.6007,1.6007,1.6007,1.6007,1.6007,1.6007,1.6007,1.6007,1.6007,1.6007,1.6007,1.6007,1.6007,1.5959,1.5853,1.5958,1.5829,1.5618,1.5796,1.5837,1.5837,1.5837,1.5934,1.6007,1.6007,1.6007,1.6007,1.6007,1.6007,1.6007,1.6007,1.6007,1.6007,1.6007,1.6007,1.6007,1.6007,1.6007,1.6007,1.6007,1.6007,1.6007,1.6007,1.6007,1.6007,1.6007,1.6007,1.6007,1.6007,1.6007,1.6007,1.6007,1.6007,1.6096,1.6357,1.6324,1.647,1.6793,1.6809,1.6825,1.6874,1.6908,1.6582,1.584,1.5854,1.5632,1.5155,1.4814,1.4641,2.3628,2.4012,2.4254,2.4227,2.4071,2.4138,2.4941,2.4168,2.3634,2.473,2.473,2.4796,2.5677,2.6573,2.7202,2.7296,2.7764,2.8125,2.8152,2.8152,2.8165,2.8179,2.8179,2.8179,2.8179,2.8179,2.8179,2.8179,2.8179,2.8058,2.7749,2.7483,2.7134,2.6867,2.6547,2.5621,2.4016,2.2108,2.1222,2.1182,1.7787,1.6122,1.6007,1.6007,1.6007,1.6007,1.6007,1.6007,1.6007,1.6007,1.6007,1.6007,1.6007,1.6007,1.6007,1.6007,1.5999,1.5991,1.5999,1.5991,1.5966,1.5983,1.5983,1.5983,1.5983,1.5991,1.6007,1.6007,1.6007,1.6007,1.6007,1.6007,1.6007,1.6007,1.6007,1.6007,1.6007,1.6007,1.6007,1.6007,1.6007,1.6007,1.6007,1.6007,1.6007,1.6007,1.6007,1.6007,1.6007,1.6007,1.6007,1.6007,1.6007,1.6007,1.6007,1.6007,1.6153,1.6535,1.6397,1.647,1.6793,1.6809,1.6882,1.7088,1.6657,1.6217,1.5711,1.5184,1.4641,1.4199,1.4162,1.4155,2.2826,2.3518,2.4303,2.4312,2.4525,2.4856,2.5259,2.5197,2.5269,2.5998,2.5785,2.5596,2.5931,2.652,2.7054,2.7282,2.7643,2.7978,2.8165,2.8179,2.8179,2.8179,2.8179,2.8179,2.8179,2.8179,2.8179,2.8179,2.8018,2.7816,2.7709,2.7241,2.6934,2.6787,2.5484,2.4455,2.3816,2.1009,1.9592,1.9552,1.7141,1.6007,1.6007,1.6007,1.6007,1.6007,1.6007,1.6007,1.6007,1.6007,1.6007,1.6007,1.6007,1.6007,1.6007,1.6007,1.6007,1.6007,1.6007,1.6007,1.6007,1.6007,1.6007,1.6007,1.6007,1.6007,1.6007,1.6007,1.6007,1.6007,1.6007,1.6007,1.6007,1.6007,1.6007,1.6007,1.6007,1.6007,1.6007,1.6007,1.6007,1.6007,1.6007,1.6007,1.6007,1.6007,1.6007,1.6007,1.6007,1.6007,1.6007,1.6007,1.6007,1.6047,1.6194,1.6211,1.6323,1.6687,1.647,1.6519,1.6947,1.6605,1.64,1.6463,1.6135,1.5775,1.5406,1.527,1.5104,1.4844,1.4642,1.4498,2.2684,2.3256,2.4046,2.4126,2.4624,2.5207,2.5554,2.5959,2.6464,2.7109,2.6694,2.6238,2.6145,2.6493,2.6894,2.7094,2.7522,2.7951,2.8152,2.8179,2.8179,2.8179,2.8179,2.8179,2.8179,2.8179,2.8138,2.8045,2.7816,2.7615,2.7428,2.7,2.6774,2.6694,2.4794,2.3536,2.2963,2.0079,1.83,1.7778,1.6566,1.6007,1.6007,1.6007,1.6007,1.6007,1.6007,1.6007,1.6007,1.6007,1.6007,1.6007,1.6007,1.6007,1.6007,1.6007,1.6007,1.6007,1.6007,1.6007,1.6007,1.6007,1.6007,1.6007,1.6007,1.6007,1.6007,1.6007,1.6007,1.6007,1.6007,1.6007,1.6007,1.6007,1.6007,1.6007,1.6007,1.6007,1.6007,1.6007,1.6007,1.6007,1.6007,1.6007,1.6007,1.6007,1.6007,1.6007,1.6007,1.6007,1.6023,1.608,1.6137,1.6259,1.6381,1.6389,1.6434,1.6569,1.6361,1.6452,1.6868,1.6238,1.5915,1.5969,1.56,1.53,1.508,1.4958,1.4864,1.4763,1.4578,1.442,2.3471,2.3456,2.3468,2.3747,2.4279,2.497,2.582,2.6322,2.69,2.7968,2.7442,2.6734,2.6453,2.6627,2.6787,2.6787,2.7562,2.8179,2.8179,2.8179,2.8179,2.8179,2.8179,2.8179,2.8179,2.8179,2.8058,2.7722,2.7696,2.7442,2.6814,2.6814,2.6694,2.64,2.4694,2.2923,2.1182,1.943,1.7696,1.5999,1.5999,1.5999,1.6007,1.6007,1.6007,1.6007,1.6007,1.6007,1.6007,1.6007,1.6007,1.6007,1.6007,1.6007,1.6007,1.6007,1.6007,1.6007,1.6007,1.6007,1.6007,1.6007,1.6007,1.6007,1.6007,1.6007,1.6007,1.6007,1.6007,1.6007,1.6007,1.6007,1.6007,1.6007,1.6007,1.6007,1.6007,1.6007,1.6007,1.6007,1.6007,1.6007,1.6007,1.6007,1.6007,1.6007,1.6007,1.6007,1.6007,1.6007,1.6072,1.6284,1.647,1.6619,1.6576,1.6584,1.6443,1.6101,1.6109,1.6186,1.6393,1.5758,1.5489,1.5704,1.5111,1.4771,1.4771,1.399,1.3585,1.3592,1.3734,1.3795,2.307,2.3299,2.3866,2.4365,2.5263,2.6268,2.7146,2.724,2.7295,2.7738,2.7629,2.7281,2.6787,2.6934,2.7134,2.7134,2.7389,2.771,2.8125,2.8005,2.7951,2.8165,2.8179,2.8098,2.7856,2.8058,2.7978,2.7469,2.7443,2.7228,2.68,2.6627,2.591,2.4627,2.2883,2.1141,1.9389,1.7562,1.6373,1.5853,1.5853,1.5918,1.6007,1.6007,1.6007,1.6007,1.6007,1.6007,1.6007,1.6007,1.6007,1.6007,1.6007,1.6007,1.6007,1.6007,1.6007,1.6007,1.6007,1.6007,1.6007,1.6007,1.6007,1.6007,1.6007,1.6007,1.6007,1.6007,1.6007,1.6007,1.6007,1.6007,1.6007,1.6007,1.6007,1.6007,1.6007,1.6007,1.6007,1.6007,1.6007,1.6007,1.6007,1.6007,1.6007,1.6007,1.6007,1.6007,1.6007,1.6007,1.6023,1.6072,1.6276,1.6311,1.6135,1.6175,1.6152,1.5842,1.5498,1.552,1.5873,1.5389,1.5169,1.5219,1.4692,1.4348,1.4084,1.3867,1.3632,1.3471,1.368,1.3795,2.3525,2.3797,2.4386,2.5208,2.5998,2.6754,2.7608,2.7771,2.7702,2.7697,2.7509,2.7241,2.6894,2.6881,2.7001,2.7068,2.7229,2.7429,2.7791,2.7684,2.7684,2.7978,2.7911,2.7804,2.7709,2.7804,2.7643,2.7121,2.7094,2.6961,2.6667,2.648,2.5581,2.3856,2.2108,2.0362,1.8626,1.6747,1.5812,1.5812,1.5707,1.5731,1.5796,1.5942,1.6007,1.6007,1.6007,1.5966,1.5902,1.5975,1.6007,1.6007,1.6007,1.6007,1.5999,1.5926,1.5942,1.5991,1.5918,1.5934,1.5934,1.5934,1.5934,1.5934,1.5934,1.595,1.6007,1.6007,1.6007,1.6007,1.6007,1.6007,1.6007,1.6007,1.6007,1.6007,1.6007,1.6007,1.6007,1.6007,1.6007,1.6007,1.6007,1.6007,1.6007,1.6007,1.6007,1.6007,1.6007,1.6064,1.6104,1.6104,1.6133,1.6074,1.5922,1.5817,1.5739,1.5644,1.5111,1.4973,1.5345,1.4906,1.4643,1.4643,1.4219,1.3939,1.3714,1.3653,1.3573,1.3403,1.3605,1.3741,2.4512,2.4607,2.4914,2.6091,2.6466,2.672,2.7522,2.7924,2.8031,2.7709,2.7241,2.6867,2.6867,2.664,2.656,2.6814,2.7068,2.7282,2.7309,2.7282,2.7376,2.7629,2.7469,2.7403,2.7602,2.7443,2.7134,2.6814,2.6814,2.6694,2.64,2.6268,2.5343,2.3616,2.1867,2.012,1.8381,1.6649,1.5788,1.5788,1.5577,1.5448,1.5464,1.5804,1.5958,1.5958,1.5975,1.5926,1.5829,1.5926,1.6007,1.6007,1.6007,1.6007,1.5983,1.5837,1.5878,1.5958,1.5813,1.5788,1.5788,1.5812,1.5804,1.5796,1.5829,1.5902,1.5983,1.5999,1.6007,1.6007,1.6007,1.6007,1.6007,1.6007,1.6007,1.6007,1.6007,1.6007,1.6007,1.6007,1.6007,1.6007,1.6007,1.6007,1.6007,1.6007,1.6007,1.6007,1.6007,1.6145,1.6276,1.6276,1.6058,1.5872,1.5864,1.5469,1.528,1.5464,1.4908,1.4643,1.4829,1.4359,1.4048,1.4048,1.3783,1.3599,1.3585,1.3492,1.3417,1.3403,1.3559,1.3653,2.4128,2.4385,2.4974,2.6182,2.6934,2.7468,2.7655,2.7575,2.7483,2.7416,2.7296,2.7215,2.7215,2.7162,2.7135,2.7202,2.7028,2.7001,2.7269,2.7068,2.7028,2.7362,2.7349,2.7242,2.7028,2.7161,2.7081,2.652,2.6694,2.6694,2.64,2.5104,2.3564,2.1827,2.0079,1.83,1.6566,1.5885,1.5569,1.5569,1.5343,1.5262,1.527,1.5489,1.5594,1.5634,1.5772,1.5853,1.5829,1.5926,1.6007,1.6007,1.6007,1.6007,1.5983,1.5837,1.5837,1.5804,1.5634,1.5569,1.5593,1.5772,1.5683,1.5626,1.5861,1.591,1.5861,1.5966,1.6007,1.6007,1.6007,1.6007,1.6007,1.6007,1.6007,1.6007,1.6007,1.6007,1.6007,1.6007,1.6007,1.6007,1.6007,1.6007,1.6007,1.6007,1.6007,1.6007,1.6007,1.6039,1.6064,1.6064,1.5892,1.57,1.5658,1.5103,1.4893,1.5222,1.4807,1.4722,1.5101,1.4321,1.3849,1.3849,1.3788,1.37,1.3585,1.3551,1.3519,1.3403,1.3559,1.3605,2.4274,2.4825,2.5606,2.6647,2.7203,2.7455,2.7308,2.7054,2.6841,2.6707,2.6854,2.6974,2.6734,2.6787,2.6841,2.6707,2.6627,2.6667,2.6827,2.6707,2.672,2.7014,2.6934,2.6841,2.6787,2.6841,2.676,2.6413,2.6533,2.6547,2.64,2.4648,2.2915,2.1251,1.9353,1.7584,1.5918,1.5521,1.5343,1.5343,1.5195,1.5106,1.5114,1.539,1.5463,1.5351,1.5569,1.5601,1.5536,1.5804,1.5918,1.5926,1.5975,1.595,1.5894,1.5715,1.565,1.5626,1.5447,1.5343,1.5375,1.5593,1.5528,1.5408,1.5804,1.5788,1.5707,1.5934,1.5942,1.5934,1.5983,1.6007,1.6007,1.6007,1.6007,1.6007,1.6007,1.6007,1.6007,1.6007,1.6007,1.6007,1.6007,1.6007,1.6007,1.6007,1.6007,1.6007,1.6007,1.6007,1.6007,1.6007,1.5715,1.5521,1.5521,1.4971,1.4885,1.5397,1.4731,1.4639,1.5397,1.4478,1.3957,1.4026,1.3964,1.3804,1.3519,1.3519,1.3478,1.3403,1.3485,1.3559,2.4399,2.5235,2.618,2.7015,2.7229,2.7108,2.6814,2.656,2.6293,2.5984,2.6346,2.6573,2.6024,2.6198,2.6293,2.6038,2.6238,2.6386,2.6386,2.6386,2.648,2.672,2.6533,2.648,2.672,2.6533,2.6386,2.6386,2.6346,2.6188,2.5912,2.4041,2.2286,2.0731,1.8698,1.7035,1.5764,1.5367,1.5197,1.5197,1.5057,1.5006,1.5015,1.5285,1.5333,1.5164,1.539,1.5343,1.5221,1.5593,1.5772,1.574,1.5853,1.5861,1.5707,1.5536,1.5472,1.5399,1.5213,1.5156,1.5181,1.5407,1.5302,1.526,1.5618,1.561,1.5497,1.5821,1.5869,1.5853,1.5959,1.5958,1.5958,1.5958,1.5934,1.5934,1.5991,1.6007,1.6007,1.6007,1.6007,1.6007,1.6007,1.6007,1.6007,1.6007,1.6007,1.6007,1.6007,1.6007,1.6007,1.6007,1.5628,1.5422,1.5505,1.5002,1.498,1.5717,1.4844,1.4746,1.5724,1.4844,1.4373,1.4503,1.4297,1.3983,1.3528,1.3528,1.3528,1.3528,1.3445,1.3471,2.3639,2.4594,2.5791,2.6666,2.6881,2.68,2.6507,2.6413,2.6226,2.5678,2.6039,2.6266,2.5678,2.6026,2.6293,2.6038,2.6238,2.6386,2.6386,2.6386,2.64,2.644,2.6413,2.64,2.644,2.6413,2.6386,2.6386,2.6198,2.5414,2.3977,2.1978,2.0174,1.8562,1.6792,1.5759,1.5553,1.5302,1.5197,1.5197,1.5057,1.5006,1.5006,1.5055,1.5063,1.5009,1.5195,1.5221,1.5213,1.5463,1.5553,1.5553,1.5577,1.5569,1.5528,1.5302,1.5237,1.5213,1.5065,1.5039,1.5033,1.5181,1.5147,1.5074,1.5439,1.5383,1.5278,1.5528,1.5675,1.5821,1.5804,1.5853,1.5853,1.5853,1.5699,1.5634,1.5942,1.6007,1.6007,1.6007,1.6007,1.6007,1.6007,1.6007,1.6007,1.6007,1.6007,1.6007,1.6007,1.6007,1.6007,1.6007,1.5628,1.5546,1.5883,1.5175,1.5058,1.5916,1.5479,1.5438,1.5957,1.5479,1.5231,1.5247,1.4852,1.4431,1.4025,1.4025,1.4025,1.3983,1.3611,1.341,2.4228,2.4887,2.5555,2.6647,2.6612,2.6306,2.6212,2.6012,2.5785,2.5358,2.5611,2.5772,2.5344,2.5611,2.5798,2.5556,2.5891,2.6185,2.6185,2.6332,2.6386,2.6386,2.6279,2.6185,2.6185,2.6185,2.6118,2.5905,2.5971,2.5205,2.3356,2.1417,1.9634,1.816,1.6242,1.526,1.5318,1.5179,1.5082,1.5082,1.5039,1.5006,1.5006,1.5006,1.5006,1.5006,1.5049,1.5082,1.5098,1.5245,1.5318,1.5335,1.5472,1.5416,1.531,1.5229,1.5132,1.5074,1.5031,1.5006,1.5031,1.514,1.5114,1.5072,1.5407,1.5317,1.5147,1.5439,1.5496,1.5496,1.5601,1.5626,1.5626,1.5626,1.5569,1.5561,1.5675,1.5821,1.5926,1.5983,1.6007,1.6007,1.6007,1.6007,1.6007,1.6007,1.6007,1.6007,1.6007,1.6007,1.6007,1.6007,1.5842,1.5793,1.5966,1.5669,1.5587,1.5966,1.5628,1.5587,1.5966,1.5628,1.5381,1.5381,1.4927,1.4589,1.4431,1.4431,1.4315,1.4108,1.3901,1.3652,2.429,2.4638,2.4855,2.6115,2.6078,2.5753,2.5757,2.5611,2.5411,2.5037,2.5197,2.5317,2.5024,2.5264,2.5424,2.513,2.5543,2.5877,2.5877,2.6065,2.6172,2.6172,2.5972,2.5877,2.5877,2.5877,2.5758,2.5531,2.5292,2.4341,2.2461,2.0545,1.881,1.7343,1.5795,1.5033,1.5171,1.5033,1.5006,1.5006,1.5006,1.5006,1.5006,1.5006,1.5006,1.5006,1.5006,1.5006,1.5015,1.5114,1.5171,1.514,1.5325,1.5293,1.5171,1.5171,1.5082,1.5006,1.5006,1.5006,1.5031,1.5122,1.5074,1.5055,1.5293,1.5187,1.5063,1.5301,1.5309,1.5229,1.5367,1.5408,1.5408,1.5408,1.5407,1.5415,1.5553,1.565,1.5764,1.5902,1.5902,1.5885,1.5926,1.5934,1.595,1.5999,1.6007,1.6007,1.6007,1.6007,1.6007,1.6007,1.6007,1.6007,1.6007,1.6007,1.6007,1.6007,1.5719,1.5669,1.6007,1.5628,1.5463,1.5546,1.5092,1.4878,1.4878,1.4878,1.4679,1.4232,1.4149,1.3859,2.2878,2.3121,2.3393,2.4517,2.4979,2.514,2.5139,2.5331,2.532,2.4746,2.489,2.501,2.4679,2.5093,2.5424,2.513,2.5331,2.5531,2.5531,2.5545,2.5558,2.5558,2.5545,2.5531,2.5531,2.5531,2.5531,2.5518,2.3871,2.2112,2.0446,1.8553,1.6815,1.5223,1.5053,1.5006,1.5023,1.5006,1.5006,1.5006,1.5006,1.5006,1.5006,1.5006,1.5006,1.5006,1.5006,1.5006,1.5006,1.5015,1.5023,1.5023,1.5031,1.5031,1.5023,1.5023,1.5015,1.5006,1.5006,1.5006,1.5006,1.5015,1.5015,1.5006,1.5031,1.5023,1.5006,1.5031,1.5114,1.5205,1.5213,1.5213,1.5213,1.5213,1.5122,1.5177,1.569,1.5634,1.5577,1.5756,1.5658,1.5593,1.5756,1.5829,1.5845,1.5983,1.6007,1.6007,1.6007,1.6007,1.6007,1.6007,1.6007,1.6007,1.6007,1.6007,1.6007,1.6007,1.5966,1.5966,1.6007,1.5628,1.5587,1.5966,1.5587,1.534,1.534,1.534,1.5133,1.4672,1.4273,1.3859,2.2555,2.2886,2.3259,2.4265,2.4602,2.4666,2.4811,2.5134,2.5239,2.471,2.4901,2.5066,2.4663,2.4773,2.4879,2.4773,2.5037,2.5237,2.5237,2.5398,2.5518,2.5518,2.5344,2.5237,2.5237,2.5237,2.5157,2.4933,2.4498,2.343,2.1578,1.9854,1.8186,1.6606,1.5535,1.5006,1.5006,1.5006,1.5006,1.5006,1.5006,1.5006,1.5006,1.5006,1.5006,1.5006,1.5006,1.5006,1.5006,1.5006,1.5006,1.5006,1.5006,1.5006,1.5006,1.5006,1.5006,1.5006,1.5006,1.5006,1.5006,1.5006,1.5006,1.5006,1.5006,1.5006,1.5006,1.5006,1.5009,1.5065,1.5065,1.5065,1.5065,1.5065,1.5017,1.5088,1.5366,1.5472,1.5536,1.5593,1.5561,1.5536,1.5601,1.5699,1.5756,1.5675,1.5861,1.5966,1.5886,1.5934,1.6007,1.6007,1.6007,1.6007,1.6007,1.6007,1.6007,1.6007,1.6007,1.6007,1.6007,1.5628,1.5463,1.5628,1.5463,1.5546,1.5801,1.5801,1.5587,1.5133,1.501,1.4563,2.214,2.2423,2.2812,2.3842,2.4011,2.4064,2.4632,2.4861,2.4922,2.4678,2.4827,2.4931,2.4636,2.4599,2.4599,2.4599,2.4796,2.493,2.493,2.5104,2.5211,2.5211,2.505,2.493,2.493,2.493,2.485,2.4613,2.4326,2.3554,2.2272,2.015,1.8271,1.6644,1.5573,1.5204,1.5624,1.5138,1.5113,1.5577,1.5047,1.4822,1.4917,1.4917,1.4949,1.5006,1.5006,1.5006,1.5006,1.5006,1.5006,1.5006,1.5006,1.5006,1.5006,1.5006,1.5006,1.5006,1.5006,1.5006,1.5006,1.5006,1.5006,1.5006,1.5006,1.5006,1.5006,1.5006,1.5006,1.5006,1.5006,1.5006,1.5006,1.5006,1.5006,1.5039,1.5122,1.5244,1.535,1.5375,1.5374,1.535,1.5375,1.552,1.5577,1.5528,1.5764,1.591,1.5829,1.5934,1.6007,1.6007,1.6007,1.6007,1.6007,1.6007,1.6007,1.6007,1.6007,1.6007,1.6007,1.5628,1.5381,1.5381,1.5257,1.5381,1.5793,1.5925,1.5793,1.5381,1.5381,1.501,0.0,0.0,0.0,2.3185,2.3228,2.3312,2.4505,2.4516,2.4378,2.467,2.4665,2.4609,2.4636,2.4599,2.4599,2.4599,2.4599,2.4599,2.4599,2.4599,2.4599,2.4599,2.4599,2.4599,2.4599,2.4599,2.4599,2.4599,2.3166,2.226,2.226,1.9245,1.6797,1.5122,1.5113,1.5662,1.6805,1.5512,1.5463,1.6673,1.5237,1.4604,1.4792,1.4784,1.4844,1.5006,1.5006,1.5006,1.5006,1.5006,1.5006,1.5006,1.5006,1.5006,1.5006,1.5006,1.5006,1.5006,1.5006,1.5006,1.5006,1.5006,1.5006,1.5006,1.5006,1.5006,1.5006,1.5006,1.5006,1.5006,1.5006,1.5006,1.5006,1.5006,1.5006,1.5006,1.5006,1.5006,1.5055,1.5156,1.509,1.5025,1.5164,1.5197,1.5262,1.5472,1.565,1.5804,1.5804,1.5926,1.5999,1.6007,1.6007,1.6007,1.6007,1.6007,1.6007,1.6007,1.6007,1.5966,1.5966,1.5587,1.534,1.534,1.4919,1.4919,1.534,1.5801,1.5801,1.5422,1.5422,1.5175,2.1291,0.0,0.0,0.0,0.0,0.0,2.379,2.4185,2.4585,2.4742,2.4751,2.48,2.4997,2.4784,2.4599,2.4599,2.4599,2.4599,2.4599,2.4599,2.4599,2.4599,2.4599,2.4599,2.4599,2.4599,2.4599,2.4599,2.4179,2.3957,2.3957,2.1999,1.9585,1.6835,1.7661,1.7255,1.5332,1.6925,1.7487,1.6991,1.7456,1.7287,1.663,1.64,1.5804,1.5006,1.5006,1.5006,1.5006,1.5006,1.5006,1.5006,1.5006,1.5006,1.5006,1.5006,1.5006,1.5006,1.5006,1.5006,1.5006,1.5006,1.5006,1.5006,1.5006,1.5006,1.5006,1.5006,1.5006,1.5006,1.5006,1.5006,1.5006,1.5006,1.5006,1.5006,1.5006,1.5006,1.5023,1.5033,1.5039,1.5023,1.5033,1.5147,1.5173,1.513,1.5382,1.5585,1.5585,1.574,1.5902,1.5991,1.6007,1.6007,1.6007,1.6007,1.6007,1.6007,1.5719,1.5587,1.5587,1.4852,1.448,1.448,1.4315,1.4315,1.448,1.5216,1.5669,1.5842,1.5546,1.534,0.0,0.0,0.0,0.0,0.0,0.0,2.3855,2.4159,2.4434,2.4755,2.4813,2.4832,2.4991,2.4748,2.4498,2.4619,2.4522,2.4466,2.4586,2.4599,2.4599,2.4599,2.4599,2.4559,2.4426,2.4532,2.4546,2.4426,2.4532,2.4304,2.3611,2.2707,2.1014,1.8499,1.9157,1.8878,1.7472,1.8472,1.884,1.857,1.878,1.8597,1.8106,1.8018,1.7631,1.7017,1.7017,1.7017,1.7017,1.7017,1.6215,1.5006,1.5006,1.5006,1.5006,1.5006,1.5006,1.5006,1.5006,1.5006,1.5006,1.5006,1.5006,1.5006,1.5006,1.5006,1.5006,1.5006,1.5006,1.5006,1.5006,1.5006,1.5006,1.5006,1.5006,1.5006,1.5006,1.5006,1.5006,1.5006,1.5006,1.5006,1.5006,1.5057,1.509,1.5023,1.5277,1.5512,1.5512,1.5731,1.5926,1.5991,1.6007,1.6007,1.6007,1.6007,1.6007,1.6007,1.5801,1.5587,1.5422,1.4721,1.4273,1.4108,1.3901,1.3901,1.4108,1.4968,1.5587,1.6007,1.5587,1.5505,0.0,0.0,0.0,0.0,0.0,0.0,2.4177,2.4163,2.4071,2.4682,2.4713,2.468,2.475,2.451,2.4323,2.4583,2.4404,2.4298,2.4559,2.4599,2.4599,2.4599,2.4599,2.4479,2.4235,2.4436,2.4439,2.4222,2.4439,2.3994,2.2521,2.2484,2.1737,2.0113,2.0171,2.0495,2.103,2.0023,1.9892,2.0643,1.97,1.9297,1.9355,1.961,1.9728,1.9779,1.9801,1.9811,1.9811,1.9811,1.811,1.5535,1.5344,1.5267,1.5228,1.5083,1.5006,1.5006,1.5006,1.5006,1.5006,1.5006,1.5006,1.5006,1.5006,1.5006,1.5006,1.5006,1.5006,1.5006,1.5006,1.5006,1.5006,1.5006,1.5006,1.5006,1.5006,1.5006,1.5006,1.5006,1.5006,1.5006,1.5006,1.5006,1.5006,1.5006,1.526,1.5456,1.5512,1.5772,1.5983,1.5999,1.6007,1.6007,1.6007,1.6007,1.6007,1.6007,1.5966,1.576,1.5422,1.4927,1.4473,1.4108,1.3652,1.3652,1.4149,1.501,1.5587,1.5925,1.5628,1.5669,0.0,0.0,0.0,0.0,0.0,0.0,2.334,2.3335,2.3446,2.4134,2.3979,2.3899,2.4445,2.4251,2.4004,2.4039,2.4174,2.4359,2.4556,2.4599,2.4599,2.4599,2.4599,2.4479,2.4235,2.4249,2.4262,2.4209,2.4439,2.4451,2.4142,2.4142,2.3388,2.1775,2.2556,2.1908,1.9536,2.1273,2.1754,2.1026,2.1761,2.167,2.0886,2.0933,2.0404,1.9505,1.9698,1.9811,1.9811,1.9811,1.9434,1.8716,1.7436,1.695,1.6759,1.5459,1.5006,1.5006,1.5006,1.5006,1.5006,1.5006,1.5006,1.5006,1.5006,1.5006,1.5006,1.5006,1.5006,1.5006,1.5006,1.5006,1.5006,1.5006,1.5006,1.5006,1.5006,1.5006,1.5006,1.5006,1.5006,1.5006,1.5006,1.5006,1.5006,1.5006,1.5155,1.531,1.5496,1.5699,1.5886,1.5991,1.6007,1.6007,1.6007,1.6007,1.6007,1.6007,1.5711,1.5463,1.5381,1.4645,1.419,1.4108,1.3652,1.3769,1.4597,1.5133,1.5422,1.5505,1.576,1.5925,0.0,0.0,0.0,2.2828,0.0,0.0,0.0,2.3354,2.3486,2.4016,2.3825,2.3692,2.4202,2.3875,2.3667,2.4133,2.3991,2.393,2.4201,2.4465,2.4599,2.4599,2.4599,2.4426,2.4035,2.4115,2.4209,2.4209,2.4439,2.4599,2.4599,2.4599,2.4216,2.3426,2.3809,2.3184,2.1462,2.253,2.274,2.2033,2.274,2.2907,2.2563,2.2703,2.2482,2.1993,2.2125,2.2185,2.2185,2.2185,2.2185,2.1961,1.9547,1.8613,1.8499,1.7692,1.7388,1.7388,1.7388,1.6864,1.6186,1.6186,1.565,1.5006,1.5006,1.5006,1.5006,1.5006,1.5006,1.5006,1.5006,1.5006,1.5006,1.5006,1.5006,1.5006,1.5006,1.5006,1.5006,1.5006,1.5006,1.5006,1.5006,1.5006,1.5006,1.5006,1.5204,1.5375,1.5504,1.5748,1.5943,1.5991,1.6007,1.6007,1.6007,1.6007,1.6007,1.6007,1.5793,1.5587,1.5422,1.4968,1.4645,1.439,1.4183,1.4266,1.4713,1.5175,1.5381,1.5422,1.5793,1.6007,0.0,0.0,0.0,0.0,0.0,2.3252,0.0,0.0,0.0,2.3837,2.3691,2.3588,2.3852,2.3452,2.3346,2.4108,2.3781,2.3508,2.3777,2.4123,2.4352,2.4346,2.4399,2.4262,2.3741,2.3848,2.3968,2.4035,2.4302,2.4452,2.4519,2.4572,2.4599,2.4599,2.4302,2.4008,2.3803,2.342,2.3113,2.2893,2.318,2.342,2.3643,2.4022,2.4302,2.4439,2.4559,2.4599,2.4599,2.4599,2.4599,2.429,2.1389,2.0263,2.0226,1.9924,1.9811,1.9811,1.9811,1.8943,1.7854,1.7854,1.675,1.5459,1.5459,1.5237,1.5006,1.5006,1.5006,1.5015,1.5047,1.5031,1.5015,1.5047,1.5031,1.5006,1.5006,1.5006,1.5006,1.5006,1.5006,1.5006,1.5006,1.5006,1.5006,1.5006,1.5252,1.5472,1.5512,1.5756,1.5966,1.5999,1.6007,1.6007,1.6007,1.6007,1.6007,1.6007,1.6007,1.5834,1.5546,1.5422,1.5216,1.4837,1.4754,1.4754,1.4837,1.5216,1.5381,1.5422,1.5793,1.6007,0.0,0.0,0.0,0.0,2.3325,0.0,0.0,0.0,2.3179,2.3208,0.0,2.3179,2.3208,0.0,0.0,2.3247,2.339,2.3501,2.3544,2.3533,2.3492,2.3447,2.3714,2.3741,2.3372,2.3153,2.3161,2.3372,2.3701,2.3981,2.4235,2.4452,2.4599,2.4599,2.4102,2.3843,2.3803,2.3241,2.2934,2.2893,2.318,2.3193,2.3027,2.3821,2.4075,2.3937,2.4372,2.4599,2.4599,2.4599,2.4599,2.4414,2.2633,2.1924,2.1737,2.0338,1.9811,1.9811,1.9811,1.9698,1.951,1.951,1.8461,1.714,1.714,1.6148,1.5006,1.5006,1.5006,1.5039,1.5163,1.509,1.5047,1.5171,1.5082,1.5006,1.5006,1.5006,1.5006,1.5006,1.5006,1.5006,1.5006,1.5006,1.5006,1.5006,1.5139,1.5294,1.5496,1.5683,1.5861,1.5991,1.6007,1.6007,1.6007,1.6007,1.6007,1.6007,1.6007,1.5966,1.5925,1.5587,1.5381,1.534,1.4919,1.4878,1.534,1.5381,1.5381,1.5422,1.5793,1.6007,0.0,0.0,0.0,0.0,0.0,0.0,2.3179,0.0,2.3106,0.0,0.0,0.0,0.0,0.0,0.0,0.0,2.333,2.3278,2.3278,2.322,2.328,2.3605,2.3409,2.3228,2.3073,2.2974,2.2947,2.3046,2.334,2.3567,2.3652,2.3968,2.4209,2.4346,2.3981,2.3803,2.3803,2.334,2.3046,2.2893,2.2993,2.3086,2.3153,2.3701,2.3924,2.3843,2.4382,2.4506,2.4396,2.4532,2.4599,2.4525,2.3846,2.3574,2.35,2.2831,2.2595,2.2595,2.2595,2.1961,2.1052,2.0113,1.9321,1.8603,1.7664,1.695,1.6186,1.5267,1.5006,1.5047,1.5148,1.514,1.5147,1.5181,1.514,1.5098,1.5031,1.5006,1.5006,1.5006,1.5006,1.5006,1.5006,1.5006,1.5006,1.5006,1.5122,1.5262,1.5456,1.5666,1.5845,1.5983,1.6007,1.6007,1.6007,1.6007,1.6007,1.6007,1.6007,1.6007,1.6007,1.5842,1.5752,1.5752,1.5546,1.5546,1.5752,1.5752,1.5752,1.5752,1.5925,1.6007,2.3106,0.0,0.0,0.0,0.0,0.0,0.0,0.0,0.0,0.0,0.0,0.0,0.0,0.0,0.0,0.0,0.0,2.3108,2.3108,2.2989,2.3037,2.3498,2.3085,2.2788,2.2788,2.2653,2.2572,2.2653,2.2832,2.3033,2.3193,2.3603,2.3901,2.4195,2.3995,2.3884,2.3803,2.3474,2.3166,2.2893,2.2987,2.306,2.322,2.3674,2.3884,2.3843,2.4382,2.4479,2.4342,2.4519,2.4599,2.4599,2.4599,2.4599,2.4599,2.4599,2.4599,2.4599,2.4599,2.3846,2.267,2.1513,2.0827,2.0226,1.9057,1.8082,1.7178,1.5995,1.5344,1.5047,1.5148,1.5197,1.5213,1.5262,1.5237,1.5164,1.5065,1.5039,1.5006,1.5006,1.5006,1.5006,1.5006,1.5006,1.5006,1.5006,1.5082,1.5189,1.5375,1.5593,1.5772,1.591,1.5975,1.6007,1.6007,1.6007,1.6007,1.6007,1.6007,1.6007,1.6007,1.6007,1.6007,1.6007,1.6007,1.6007,1.6007,1.6007,1.6007,1.6007,1.6007,1.6007,0.0,0.0,0.0,2.3193,0.0,0.0,0.0,0.0,2.3486,0.0,0.0,0.0,0.0,0.0,0.0,0.0,0.0,0.0,0.0,0.0,0.0,0.0,0.0,2.2498,2.2498,2.1992,2.1743,2.2024,2.205,2.2305,2.288,2.3482,2.3901,2.4195,2.4195,2.4062,2.3803,2.3474,2.3166,2.2893,2.3166,2.3153,2.2934,2.3781,2.4035,2.3843,2.4382,2.4599,2.4586,2.4599,2.4599,2.4599,2.4599,2.4599,2.4599,2.4599,2.4599,2.4599,2.4599,2.4562,2.4525,2.4451,2.3388,2.2111,2.2073,1.9887,1.7407,1.7331,1.6186,1.5047,1.5148,1.5197,1.5245,1.5424,1.5327,1.5197,1.5189,1.509,1.5006,1.5006,1.5006,1.5006,1.5006,1.5006,1.5006,1.5006,1.5006,1.5041,1.5189,1.5407,1.5593,1.5804,1.5902,1.6007,1.6007,1.6007,1.6007,1.6007,1.6007,1.6007,1.6007,1.6007,1.6007,1.6007,1.6007,1.6007,1.6007,1.6007,1.6007,1.6007,1.6007,1.6007,0.0,0.0,2.3515,2.3193,0.0,0.0,0.0,0.0,0.0,0.0,0.0,0.0,0.0,0.0,0.0,0.0,0.0,0.0,0.0,0.0,0.0,0.0,0.0,0.0,0.0,2.2056,2.1881,2.1762,2.1917,2.2104,2.2305,2.3046,2.3607,2.395,2.395,2.391,2.3803,2.3474,2.3166,2.2893,2.3,2.3,2.292,2.3394,2.346,2.3255,2.4008,2.4235,2.4088,2.4439,2.4599,2.4599,2.4599,2.4599,2.4599,2.4599,2.4599,2.4599,2.4599,2.4599,2.4599,2.4599,2.4216,2.3574,2.2521,2.1426,2.0113,1.8006,1.7026,1.6383,1.5421,1.5197,1.5213,1.5278,1.5245,1.5164,1.5082,1.5047,1.5006,1.5006,1.5006,1.5006,1.5006,1.5006,1.5006,1.5006,1.5006,1.5033,1.5173,1.5254,1.5359,1.5585,1.5658,1.5699,1.5853,1.5934,1.6007,1.6007,1.6007,1.6007,1.6007,1.6007,1.6007,1.6007,1.6007,1.6007,1.6007,1.6007,1.6007,1.6007,1.6007,1.6007,2.3106,2.3267,0.0,2.3164,2.3267,0.0,2.3164,0.0,2.3252,0.0,0.0,0.0,0.0,0.0,0.0,0.0,0.0,0.0,0.0,2.2271,0.0,0.0,0.0,0.0,0.0,0.0,2.1774,2.1454,2.1703,2.1917,2.1977,2.2832,2.346,2.379,2.391,2.391,2.3803,2.3474,2.3166,2.2893,2.2893,2.2893,2.2907,2.318,2.322,2.3108,2.3861,2.4102,2.3968,2.4436,2.4599,2.4599,2.4599,2.4599,2.4599,2.4599,2.4599,2.4599,2.4599,2.4599,2.4599,2.4599,2.4599,2.4414,2.3351,2.2633,2.1662,1.8981,1.7854,1.7054,1.5532,1.5148,1.5197,1.5197,1.5197,1.5164,1.509,1.5009,1.5006,1.5006,1.5006,1.5006,1.5006,1.5006,1.5006,1.5006,1.5006,1.5047,1.513,1.5156,1.5245,1.5367,1.5528,1.5675,1.5853,1.5934,1.6007,1.6007,1.6007,1.6007,1.6007,1.6007,1.6007,1.6007,1.6007,1.6007,1.6007,1.6007,1.6007,1.6007,1.6007,1.6007]},{"header":{"parameterUnit":"m.s-1","parameterCategory":1,"la1":30.6,"la2":29.2853,"lo1":-89.7004,"lo2":-87.6739,"dy":0.0162,"dx":0.0183,"nx":112,"ny":82,"refTime":"2024-09-29T18:00:00:Z","depth":0,"parameterNumber":3,"parameterNumberName":"V-component_of_WINDS"},"data":[0.0,0.0,0.0,0.0,0.0,0.0,0.0,0.0,0.0,0.0,0.0,0.0,0.0,0.0,0.0,0.0,0.0,0.0,0.0,0.0,0.0,0.0,0.0,0.0,0.0,0.0,0.0,0.0,0.0,0.0,0.0,0.0,0.0,0.0,0.0,0.0,0.0,0.0,0.0,0.0,0.0,0.0,0.0,0.0,0.0,0.0,0.0,0.0,0.0,0.0,0.0,0.0,0.0,0.0,0.0,0.0,0.0,0.0,0.0,0.0,0.0,0.0,0.0,0.0,0.0,0.0,0.0,0.0,0.0,0.0,0.0,0.0,0.0,0.0,0.0,0.0,0.0,0.0,0.0,0.0,0.0,0.0,0.0,0.0,0.0,0.0,0.0,0.0,0.0,0.0,4.4193,4.5775,4.7675,4.818,4.6648,4.7068,4.6074,4.2985,0.0,0.0,0.0,0.0,0.0,0.0,0.0,0.0,0.0,0.0,0.0,0.0,0.0,0.0,0.0,0.0,0.0,0.0,0.0,0.0,0.0,0.0,0.0,0.0,0.0,0.0,0.0,0.0,0.0,0.0,0.0,0.0,0.0,0.0,0.0,0.0,0.0,0.0,0.0,0.0,0.0,0.0,0.0,0.0,0.0,0.0,0.0,0.0,0.0,0.0,0.0,0.0,0.0,0.0,0.0,0.0,0.0,0.0,0.0,0.0,0.0,0.0,0.0,0.0,0.0,0.0,0.0,0.0,0.0,0.0,0.0,0.0,0.0,0.0,0.0,0.0,0.0,0.0,0.0,0.0,0.0,0.0,0.0,0.0,0.0,0.0,0.0,0.0,0.0,0.0,0.0,0.0,0.0,0.0,0.0,0.0,0.0,0.0,0.0,0.0,0.0,0.0,0.0,0.0,4.4744,4.6914,4.739,4.7288,4.6555,4.6003,4.4862,4.2908,0.0,0.0,0.0,0.0,0.0,0.0,0.0,0.0,0.0,0.0,0.0,0.0,0.0,0.0,0.0,0.0,0.0,0.0,0.0,0.0,0.0,0.0,0.0,0.0,0.0,0.0,0.0,0.0,0.0,0.0,0.0,0.0,0.0,0.0,0.0,0.0,0.0,0.0,0.0,0.0,0.0,0.0,0.0,0.0,0.0,0.0,0.0,0.0,0.0,0.0,0.0,0.0,0.0,0.0,0.0,0.0,0.0,0.0,0.0,0.0,0.0,0.0,0.0,0.0,0.0,0.0,0.0,0.0,0.0,0.0,0.0,0.0,0.0,0.0,0.0,0.0,0.0,0.0,0.0,0.0,0.0,0.0,0.0,0.0,0.0,0.0,0.0,0.0,0.0,0.0,0.0,0.0,0.0,0.0,0.0,0.0,0.0,0.0,0.0,0.0,0.0,0.0,0.0,4.4533,4.5547,4.7187,4.7042,4.6601,4.5916,4.5512,4.4595,4.2908,4.1948,0.0,0.0,0.0,0.0,0.0,0.0,0.0,0.0,0.0,0.0,0.0,0.0,0.0,0.0,0.0,0.0,0.0,0.0,0.0,0.0,0.0,0.0,0.0,0.0,0.0,0.0,0.0,0.0,0.0,0.0,0.0,0.0,0.0,0.0,0.0,0.0,0.0,0.0,0.0,0.0,0.0,0.0,0.0,0.0,0.0,0.0,0.0,0.0,0.0,0.0,0.0,0.0,0.0,0.0,0.0,0.0,0.0,0.0,0.0,0.0,0.0,0.0,0.0,0.0,0.0,0.0,0.0,0.0,0.0,0.0,0.0,0.0,0.0,0.0,0.0,0.0,0.0,0.0,0.0,0.0,0.0,0.0,0.0,0.0,0.0,0.0,0.0,0.0,0.0,0.0,0.0,0.0,0.0,0.0,0.0,0.0,0.0,0.0,0.0,0.0,0.0,0.0,4.5977,4.6121,4.7011,4.6721,4.6156,4.5359,4.4939,4.4098,4.2603,4.0726,0.0,0.0,0.0,0.0,0.0,0.0,0.0,0.0,0.0,0.0,0.0,0.0,0.0,0.0,0.0,0.0,0.0,0.0,0.0,0.0,0.0,0.0,0.0,0.0,0.0,0.0,0.0,0.0,0.0,0.0,0.0,0.0,0.0,0.0,0.0,0.0,0.0,0.0,0.0,0.0,0.0,0.0,0.0,0.0,0.0,0.0,0.0,0.0,0.0,0.0,0.0,0.0,0.0,0.0,0.0,0.0,0.0,0.0,0.0,0.0,0.0,0.0,0.0,0.0,0.0,0.0,0.0,0.0,0.0,0.0,0.0,0.0,0.0,0.0,0.0,0.0,0.0,0.0,0.0,0.0,0.0,0.0,0.0,0.0,0.0,0.0,0.0,0.0,0.0,0.0,0.0,0.0,0.0,0.0,0.0,0.0,0.0,0.0,0.0,0.0,0.0,0.0,4.5946,4.6219,4.6522,4.6522,4.6156,4.5359,4.3864,4.2565,4.1652,3.9245,0.0,0.0,0.0,0.0,0.0,0.0,0.0,0.0,0.0,0.0,0.0,0.0,0.0,0.0,0.0,0.0,0.0,0.0,0.0,0.0,0.0,0.0,0.0,0.0,0.0,0.0,0.0,0.0,0.0,0.0,0.0,0.0,0.0,0.0,0.0,0.0,0.0,0.0,0.0,0.0,0.0,0.0,0.0,0.0,0.0,0.0,0.0,0.0,0.0,0.0,0.0,0.0,0.0,0.0,0.0,0.0,0.0,0.0,0.0,0.0,0.0,0.0,0.0,0.0,0.0,0.0,0.0,0.0,0.0,0.0,0.0,0.0,0.0,0.0,0.0,0.0,0.0,0.0,0.0,0.0,0.0,0.0,0.0,0.0,0.0,0.0,0.0,0.0,0.0,0.0,0.0,0.0,0.0,0.0,0.0,0.0,0.0,0.0,0.0,0.0,0.0,0.0,4.5941,4.6206,0.0,4.6042,4.5627,4.5321,4.4709,4.3754,4.2412,0.0,0.0,0.0,0.0,0.0,0.0,0.0,0.0,0.0,0.0,0.0,0.0,0.0,0.0,0.0,0.0,0.0,0.0,0.0,0.0,0.0,0.0,0.0,0.0,0.0,0.0,0.0,0.0,0.0,0.0,0.0,0.0,0.0,0.0,0.0,0.0,0.0,0.0,0.0,0.0,0.0,0.0,0.0,0.0,0.0,0.0,0.0,0.0,0.0,0.0,0.0,0.0,0.0,0.0,0.0,0.0,0.0,0.0,0.0,0.0,0.0,0.0,0.0,0.0,0.0,0.0,0.0,0.0,0.0,0.0,0.0,0.0,0.0,0.0,0.0,0.0,0.0,0.0,0.0,0.0,0.0,0.0,0.0,0.0,0.0,0.0,0.0,0.0,0.0,0.0,0.0,0.0,0.0,0.0,0.0,0.0,0.0,0.0,0.0,0.0,0.0,0.0,4.5479,4.6246,4.6593,0.0,4.6003,4.5588,4.5321,4.4824,4.3787,4.2106,0.0,0.0,0.0,0.0,0.0,0.0,0.0,0.0,0.0,0.0,0.0,0.0,0.0,0.0,0.0,0.0,0.0,0.0,0.0,0.0,0.0,0.0,0.0,0.0,0.0,0.0,0.0,0.0,0.0,0.0,0.0,0.0,0.0,0.0,0.0,0.0,0.0,0.0,0.0,0.0,0.0,0.0,0.0,0.0,0.0,0.0,0.0,0.0,0.0,0.0,0.0,0.0,0.0,0.0,0.0,0.0,0.0,0.0,0.0,0.0,0.0,0.0,0.0,0.0,0.0,0.0,0.0,0.0,0.0,0.0,0.0,0.0,0.0,0.0,0.0,0.0,0.0,0.0,0.0,0.0,0.0,0.0,0.0,0.0,0.0,0.0,0.0,0.0,0.0,0.0,0.0,0.0,0.0,0.0,0.0,0.0,0.0,0.0,0.0,0.0,0.0,0.0,4.5507,4.6929,4.7488,4.6609,4.6495,4.6194,4.5397,4.3787,4.2101,0.0,0.0,0.0,0.0,0.0,0.0,0.0,0.0,0.0,0.0,0.0,0.0,0.0,0.0,0.0,0.0,0.0,0.0,0.0,0.0,0.0,0.0,0.0,0.0,0.0,0.0,0.0,0.0,0.0,0.0,0.0,0.0,0.0,0.0,0.0,0.0,0.0,0.0,0.0,0.0,0.0,0.0,0.0,0.0,0.0,0.0,0.0,0.0,0.0,0.0,0.0,0.0,0.0,0.0,0.0,0.0,0.0,0.0,0.0,0.0,0.0,0.0,0.0,0.0,0.0,0.0,0.0,0.0,0.0,0.0,0.0,0.0,0.0,0.0,0.0,0.0,0.0,0.0,0.0,0.0,0.0,0.0,0.0,0.0,0.0,0.0,0.0,0.0,0.0,0.0,0.0,0.0,0.0,0.0,0.0,0.0,0.0,0.0,0.0,0.0,0.0,0.0,0.0,4.5545,4.7466,4.8372,4.7526,4.6877,4.638,4.6156,4.5163,4.3864,4.2183,0.0,0.0,0.0,0.0,0.0,0.0,0.0,0.0,0.0,0.0,0.0,0.0,0.0,0.0,0.0,0.0,0.0,0.0,0.0,0.0,0.0,0.0,0.0,0.0,0.0,0.0,0.0,0.0,0.0,0.0,0.0,0.0,0.0,0.0,0.0,0.0,0.0,0.0,0.0,0.0,0.0,0.0,0.0,0.0,0.0,0.0,0.0,0.0,0.0,0.0,0.0,0.0,0.0,0.0,0.0,0.0,0.0,0.0,0.0,0.0,0.0,0.0,0.0,0.0,0.0,0.0,0.0,0.0,0.0,0.0,0.0,0.0,0.0,0.0,0.0,0.0,0.0,0.0,0.0,0.0,0.0,0.0,0.0,0.0,0.0,0.0,0.0,0.0,0.0,0.0,0.0,0.0,0.0,0.0,0.0,0.0,0.0,0.0,0.0,0.0,0.0,0.0,4.6729,4.8751,4.9748,4.8902,4.8028,4.7264,4.6571,4.6042,4.4934,4.2947,0.0,0.0,0.0,0.0,0.0,0.0,0.0,0.0,0.0,0.0,0.0,0.0,0.0,0.0,0.0,0.0,0.0,0.0,0.0,0.0,0.0,0.0,0.0,0.0,0.0,0.0,0.0,0.0,0.0,0.0,0.0,0.0,0.0,0.0,0.0,0.0,0.0,0.0,0.0,0.0,0.0,0.0,0.0,0.0,0.0,0.0,0.0,0.0,0.0,0.0,0.0,0.0,0.0,0.0,0.0,0.0,0.0,0.0,0.0,0.0,0.0,0.0,0.0,0.0,0.0,0.0,0.0,0.0,0.0,0.0,0.0,0.0,0.0,0.0,0.0,0.0,0.0,0.0,0.0,0.0,0.0,0.0,0.0,0.0,0.0,0.0,0.0,0.0,0.0,0.0,0.0,0.0,0.0,0.0,0.0,0.0,0.0,0.0,0.0,0.0,0.0,0.0,4.8477,5.0361,5.1308,5.0512,4.9639,4.8416,4.6762,4.6533,4.5463,4.3061,0.0,0.0,0.0,0.0,0.0,0.0,0.0,0.0,0.0,0.0,0.0,0.0,0.0,0.0,0.0,0.0,0.0,0.0,0.0,0.0,0.0,0.0,0.0,0.0,0.0,0.0,0.0,0.0,0.0,0.0,0.0,0.0,0.0,0.0,0.0,0.0,0.0,0.0,0.0,0.0,0.0,0.0,0.0,0.0,0.0,0.0,0.0,0.0,0.0,0.0,0.0,0.0,0.0,0.0,0.0,0.0,0.0,0.0,0.0,0.0,4.1695,0.0,0.0,0.0,0.0,0.0,0.0,0.0,0.0,0.0,0.0,0.0,0.0,0.0,0.0,0.0,0.0,0.0,0.0,0.0,0.0,0.0,0.0,0.0,0.0,0.0,0.0,0.0,0.0,0.0,0.0,0.0,0.0,0.0,0.0,0.0,0.0,0.0,0.0,0.0,0.0,0.0,4.8503,5.0361,5.1538,5.1347,4.9983,4.8684,4.7603,4.6877,4.5692,4.3859,4.2985,0.0,0.0,0.0,0.0,0.0,0.0,0.0,0.0,0.0,0.0,0.0,0.0,0.0,0.0,0.0,0.0,0.0,0.0,0.0,0.0,0.0,0.0,0.0,0.0,0.0,0.0,0.0,0.0,0.0,0.0,0.0,0.0,0.0,0.0,0.0,0.0,0.0,0.0,0.0,0.0,0.0,0.0,0.0,0.0,0.0,0.0,0.0,0.0,0.0,0.0,0.0,0.0,0.0,0.0,0.0,0.0,0.0,0.0,0.0,0.0,4.4059,0.0,0.0,0.0,0.0,0.0,0.0,0.0,0.0,0.0,0.0,0.0,0.0,0.0,0.0,0.0,0.0,0.0,0.0,0.0,0.0,0.0,0.0,0.0,0.0,0.0,0.0,0.0,0.0,0.0,0.0,0.0,0.0,0.0,0.0,0.0,0.0,0.0,0.0,0.0,0.0,4.993,5.1274,5.2193,5.2193,5.0665,4.9328,4.8487,4.7641,4.6571,4.5272,4.405,0.0,0.0,0.0,0.0,0.0,0.0,0.0,0.0,0.0,0.0,0.0,0.0,0.0,0.0,0.0,0.0,0.0,0.0,0.0,0.0,0.0,0.0,0.0,0.0,0.0,0.0,0.0,0.0,0.0,0.0,0.0,0.0,0.0,0.0,0.0,0.0,0.0,0.0,0.0,0.0,0.0,0.0,0.0,0.0,0.0,0.0,0.0,0.0,0.0,0.0,0.0,0.0,0.0,4.9305,4.9218,4.9126,4.9098,4.9855,5.1066,4.9055,4.8851,4.9735,4.6885,0.0,0.0,0.0,0.0,0.0,0.0,0.0,0.0,0.0,0.0,0.0,0.0,0.0,0.0,0.0,0.0,0.0,0.0,0.0,0.0,0.0,0.0,0.0,0.0,5.3844,5.4472,5.2088,0.0,0.0,0.0,0.0,0.0,0.0,0.0,0.0,0.0,0.0,0.0,5.1475,5.2308,5.2811,5.2811,5.1314,4.9977,4.918,4.8449,4.7641,4.6762,4.5425,4.4355,0.0,0.0,0.0,0.0,0.0,0.0,0.0,0.0,0.0,0.0,0.0,0.0,0.0,0.0,0.0,0.0,0.0,0.0,0.0,0.0,0.0,0.0,0.0,0.0,0.0,0.0,0.0,0.0,0.0,0.0,0.0,0.0,4.6268,4.6427,0.0,0.0,0.0,0.0,0.0,0.0,0.0,0.0,0.0,0.0,0.0,0.0,0.0,4.8448,4.8742,5.0652,5.1404,5.1028,5.345,5.3975,5.2827,5.3498,5.4225,5.4972,5.4635,0.0,5.0866,5.0416,0.0,0.0,0.0,0.0,0.0,0.0,0.0,0.0,0.0,0.0,0.0,0.0,0.0,0.0,0.0,0.0,0.0,0.0,0.0,0.0,0.0,0.0,5.7705,5.722,5.7544,5.7851,0.0,5.4425,5.1419,5.0341,5.0176,0.0,0.0,0.0,0.0,0.0,0.0,0.0,5.157,5.2308,5.2811,5.2811,5.1314,4.9977,4.918,4.8989,4.8563,4.7679,4.7406,4.7259,4.7144,4.5736,0.0,0.0,0.0,0.0,0.0,0.0,0.0,0.0,0.0,0.0,0.0,0.0,0.0,0.0,0.0,0.0,0.0,0.0,0.0,0.0,0.0,0.0,0.0,0.0,0.0,0.0,0.0,0.0,0.0,4.606,4.7396,4.7396,4.7259,4.6569,0.0,0.0,0.0,0.0,0.0,0.0,0.0,0.0,0.0,5.1174,5.1738,5.2413,5.3207,5.4663,5.5088,5.4555,5.5436,5.5358,5.4592,5.4822,5.5313,5.6047,5.6345,5.5922,5.4846,5.3139,5.1466,4.984,0.0,0.0,0.0,0.0,4.9782,5.0154,5.2353,5.3164,5.3109,5.2659,0.0,0.0,0.0,0.0,0.0,0.0,0.0,0.0,0.0,0.0,5.8675,5.8954,5.9289,5.9565,5.9565,5.8052,5.5972,0.0,5.3585,5.2982,4.9707,0.0,0.0,0.0,0.0,5.2461,5.2951,5.2881,5.2811,5.2811,5.1314,5.0168,4.9786,4.9371,4.8951,4.8563,4.8061,4.7794,4.7794,4.7106,4.6729,0.0,0.0,0.0,0.0,0.0,0.0,0.0,0.0,0.0,0.0,0.0,0.0,0.0,0.0,0.0,0.0,0.0,0.0,0.0,0.0,0.0,0.0,0.0,0.0,0.0,0.0,0.0,0.0,4.7814,4.8963,4.8931,4.9372,4.8962,0.0,0.0,0.0,0.0,0.0,0.0,5.1208,5.1471,5.2433,5.4279,5.5003,5.5849,5.6884,5.7611,5.757,5.6899,5.6349,5.5752,5.5164,5.5174,5.5601,5.633,5.6874,5.7449,5.7827,5.5347,5.3901,5.306,5.1311,5.0641,5.0868,5.2281,5.2749,5.3081,5.563,5.6389,5.6136,5.55,5.4913,5.4106,5.2527,0.0,0.0,0.0,0.0,5.5146,5.707,5.8245,5.9091,5.9778,6.0173,6.0415,6.0415,6.0415,5.9526,0.0,5.6664,5.6045,5.2276,0.0,0.0,0.0,0.0,5.3607,5.4065,5.3531,5.304,5.2811,5.1505,5.0544,5.0321,4.9754,4.941,4.941,4.8793,4.8558,4.8749,4.8558,4.8558,4.8787,0.0,0.0,0.0,0.0,0.0,0.0,0.0,0.0,0.0,0.0,0.0,0.0,0.0,0.0,0.0,0.0,0.0,0.0,0.0,0.0,0.0,0.0,0.0,0.0,0.0,0.0,0.0,0.0,0.0,5.2274,5.3111,0.0,0.0,0.0,0.0,5.065,5.1462,5.2643,5.4201,5.497,5.5977,5.7352,5.7413,5.7521,5.7737,5.7785,5.7314,5.6344,5.6303,5.5658,5.4557,5.5119,5.5716,5.633,5.6874,5.7449,5.7923,5.7008,5.6304,5.574,5.4858,5.452,5.4629,5.5462,5.609,5.6678,5.7595,5.7912,5.785,5.7813,5.6271,5.4509,5.5144,5.4289,0.0,0.0,5.66,5.757,5.9231,5.9688,5.986,6.0285,6.0408,6.0415,6.0415,6.0415,6.0102,0.0,5.8942,5.8414,5.6581,0.0,5.5791,5.4142,5.4677,5.4982,5.4218,5.4065,5.3722,5.2887,5.204,5.1194,5.0359,5.0245,5.0245,5.0245,5.0206,5.0544,5.1385,5.0621,5.055,5.1385,4.9792,0.0,0.0,0.0,0.0,0.0,0.0,0.0,0.0,0.0,0.0,0.0,0.0,0.0,0.0,0.0,0.0,0.0,0.0,0.0,0.0,0.0,0.0,0.0,0.0,0.0,0.0,0.0,0.0,5.4307,5.4892,0.0,5.2929,5.274,5.3045,5.3725,5.4556,5.5547,5.6683,5.7011,5.7327,5.7703,5.7822,5.7845,5.781,5.7892,5.7534,5.6822,5.6822,5.6425,5.5658,5.5872,5.6303,5.6835,5.7027,5.7449,5.796,5.7703,5.7464,5.7276,5.6983,5.6837,5.6874,5.7166,5.7418,5.7593,5.7886,5.7997,5.7997,5.7997,5.7409,5.6805,5.738,5.7143,5.6928,5.8173,5.8719,5.9134,5.9985,6.0173,6.0203,6.0349,6.0415,6.0415,6.0415,6.0415,6.03,5.9988,5.995,5.9415,5.774,5.7886,5.7459,5.5288,5.5632,5.5861,5.5059,5.4448,5.3989,5.3683,5.2881,5.2231,5.1926,5.1429,5.1156,5.1156,5.0627,5.0697,5.1576,5.1308,5.1538,5.2346,5.0741,4.9442,0.0,0.0,0.0,0.0,0.0,0.0,0.0,0.0,0.0,0.0,0.0,0.0,0.0,0.0,0.0,0.0,0.0,0.0,0.0,0.0,0.0,0.0,0.0,0.0,0.0,5.3891,5.5579,5.5673,5.6733,5.6842,5.5122,5.5333,5.5794,5.6257,5.6967,5.7576,5.7997,5.8253,5.8255,5.7881,5.795,5.7962,5.7881,5.7962,5.7714,5.7103,5.7103,5.6835,5.6303,5.6492,5.677,5.7116,5.7593,5.7862,5.8033,5.829,5.8253,5.7997,5.7997,5.7997,5.7997,5.7997,5.7997,5.7997,5.7997,5.7997,5.7997,5.7997,5.7997,5.8088,5.8498,5.8597,5.8781,5.9571,5.9809,5.989,6.0299,6.0415,6.0415,6.0415,6.0415,6.0415,6.0415,6.0415,6.0415,6.0415,6.0415,6.0033,5.8918,5.9185,5.888,5.6925,5.6855,5.6747,5.5899,5.5059,5.4448,5.4142,5.3569,5.3116,5.2849,5.2079,5.1729,5.2002,5.1194,5.1232,5.2416,5.2155,5.2384,5.3225,5.1849,5.1047,5.0785,0.0,0.0,0.0,0.0,0.0,0.0,0.0,0.0,0.0,0.0,0.0,0.0,0.0,0.0,0.0,0.0,0.0,0.0,0.0,0.0,0.0,0.0,0.0,5.4309,5.5699,5.6689,5.6572,5.8846,5.9442,5.7003,5.8139,5.8773,5.8132,5.8686,5.8773,5.8107,5.8792,5.8866,5.8107,5.807,5.807,5.807,5.807,5.7787,5.7201,5.7201,5.6933,5.6442,5.6972,5.7201,5.7275,5.8652,5.8792,5.8143,5.8902,5.8792,5.807,5.8033,5.7997,5.7997,5.7997,5.7997,5.7997,5.7997,5.7997,5.7997,5.7997,5.7997,5.8099,5.8471,5.8618,5.8801,5.9588,5.9826,5.9906,6.0299,6.0415,6.0415,6.0415,6.0415,6.0415,6.0415,6.0415,6.0415,6.0415,6.0415,6.0415,6.0415,6.0415,6.0109,5.9217,5.8459,0.0,5.6747,5.5938,5.5091,5.4256,5.418,5.3836,5.2964,5.2155,5.2034,5.2811,5.2079,5.2378,5.4065,5.3346,5.3307,5.4142,5.3346,5.3307,5.411,0.0,0.0,0.0,0.0,0.0,0.0,0.0,0.0,0.0,0.0,0.0,0.0,0.0,0.0,0.0,0.0,0.0,0.0,0.0,0.0,0.0,5.4414,5.608,5.5967,5.7822,5.9456,6.0103,6.0652,6.0786,6.0249,5.9993,5.9835,5.9747,5.9906,5.9931,5.9758,5.993,5.9967,5.9758,5.9758,5.9758,5.9758,5.9758,5.965,5.9469,5.9469,5.9408,5.9284,5.942,5.9469,5.9518,5.9907,5.993,5.9758,5.9967,5.993,5.9612,5.8474,5.7997,5.7997,5.7997,5.7997,5.7997,5.7997,5.7997,5.7997,5.7997,5.7997,5.8119,5.8831,5.9046,5.9215,5.9992,6.0248,6.027,6.0356,6.0415,6.0415,6.0415,6.0415,6.0415,6.0415,6.0415,6.0415,6.0415,6.0415,6.0415,6.0415,6.0415,6.0109,5.9217,5.8911,0.0,5.7657,5.6778,5.6173,5.5944,5.5906,5.5594,5.4753,5.4479,5.418,5.376,5.2957,5.3225,5.4976,5.483,5.5084,5.5976,5.5185,5.4566,0.0,0.0,0.0,0.0,0.0,0.0,0.0,0.0,0.0,0.0,0.0,0.0,0.0,0.0,0.0,0.0,0.0,0.0,0.0,0.0,0.0,0.0,5.6444,5.7999,5.8612,5.992,6.1007,6.1557,6.1751,6.1787,6.1618,6.1129,6.0665,6.0407,6.0713,6.075,6.0407,6.0713,6.075,6.0419,6.0419,6.0419,6.0419,6.0419,6.0419,6.0419,6.0419,6.0419,6.0419,6.0419,6.0419,6.0407,6.075,6.0713,6.0419,6.075,6.0713,0.0,0.0,0.0,0.0,0.0,5.7997,5.7997,5.7997,5.7997,5.8031,5.8209,5.8227,5.8402,5.9224,5.9459,5.958,6.0241,6.0415,6.0415,6.0415,6.0415,6.0415,6.0415,6.0415,6.0415,6.0415,6.0415,6.0415,6.0415,6.0415,0.0,6.0415,6.0415,6.0224,5.972,5.9331,5.8911,5.8459,5.7657,5.7122,5.7122,5.7122,5.6976,5.6511,5.6129,0.0,0.0,0.0,5.4836,5.5861,5.5899,0.0,0.0,0.0,0.0,0.0,0.0,0.0,0.0,5.7773,5.7748,0.0,0.0,0.0,0.0,0.0,0.0,0.0,0.0,0.0,0.0,0.0,0.0,0.0,0.0,0.0,0.0,5.8425,5.9967,6.141,6.1679,6.1741,6.1741,6.2365,6.2499,6.1814,6.1741,6.1484,6.086,6.1484,6.1594,6.1006,6.163,0.0,0.0,0.0,6.0896,6.0823,6.0823,6.0786,6.0676,6.0676,6.0676,6.0676,6.0676,6.0676,6.0713,6.141,6.1337,6.075,6.1447,6.13,6.0639,6.0481,5.9893,5.9123,5.84,5.807,5.7997,5.7997,0.0,0.0,5.8487,5.8597,5.876,5.9563,5.9809,5.9882,6.0292,6.0415,6.0415,6.0492,6.0453,6.0453,6.0644,6.053,6.0415,6.053,6.0453,6.0415,6.0415,6.0415,6.0415,6.0415,6.0415,6.0415,6.0415,5.9759,5.9255,5.9255,5.8536,5.8039,5.8039,0.0,0.0,5.7925,5.7275,5.7167,5.7848,5.7243,5.6938,5.7014,5.7135,5.7945,5.9498,5.9543,6.0651,6.2899,6.309,6.3587,6.4236,6.0453,5.9937,0.0,0.0,0.0,0.0,0.0,0.0,0.0,0.0,0.0,0.0,0.0,0.0,0.0,0.0,0.0,5.8462,6.0077,6.1227,6.1557,6.2144,6.2572,6.2572,6.2719,6.2756,6.2572,6.2572,6.2805,6.3319,6.3552,6.3833,6.4334,6.4481,6.4517,6.4371,6.4334,6.4053,6.3405,6.3356,6.3025,6.2352,0.0,0.0,6.2352,6.2352,6.2352,6.2352,6.2499,6.2462,6.2352,6.2499,6.2462,6.2205,6.0921,5.9893,5.9196,5.9049,5.8547,5.7997,5.7997,5.7997,5.8077,5.8487,5.8597,5.876,5.9563,5.9809,0.0,6.0292,6.0415,6.0568,6.1211,6.0874,6.0759,6.2089,6.1363,6.0568,6.1211,6.0874,6.0415,6.0415,6.0415,6.0415,6.0415,6.0415,6.0415,6.0415,6.0262,6.0148,6.0148,5.9415,5.8873,5.8873,5.8873,5.8606,5.7963,5.8345,5.8421,5.7925,5.8338,5.8918,5.9651,6.0401,6.1232,6.222,6.2313,6.2543,6.2985,6.4355,6.5053,6.5146,6.3678,6.3609,0.0,0.0,0.0,0.0,0.0,0.0,0.0,0.0,0.0,0.0,0.0,5.5023,5.7042,0.0,5.9281,6.1337,6.2328,6.2989,6.3392,6.3796,6.3894,6.3503,6.3466,6.3613,6.4004,6.404,6.4224,6.4677,6.4714,6.4897,6.5288,6.5288,6.5288,6.5288,6.5288,6.5105,6.4714,6.4714,6.4273,6.3466,6.3466,6.3196,6.2793,6.2793,6.2793,6.2793,6.2793,6.2793,6.2793,6.2793,6.2793,6.2719,6.1912,6.1104,6.0346,5.993,5.9538,5.9208,5.9208,5.9208,5.9299,5.9938,5.9854,5.9739,6.0966,6.105,6.0822,6.1473,6.1631,6.1745,6.2166,6.1936,6.186,6.2693,6.228,6.1745,6.2166,6.1936,6.1516,6.1096,6.0981,6.0874,6.0453,6.0415,6.0415,6.0415,6.0415,6.0415,6.0415,6.0033,5.9759,5.9759,5.9759,5.9606,5.9192,5.9873,6.0172,5.9797,6.0554,6.1203,6.1631,6.2094,6.2911,6.4173,6.3827,6.4056,6.4862,6.5696,6.6292,6.6636,6.6682,6.6705,0.0,0.0,0.0,0.0,0.0,0.0,0.0,5.4085,5.5049,5.6675,5.7519,5.8609,6.075,6.1117,6.1814,6.398,6.447,6.4787,6.5435,6.5668,6.5595,6.5094,6.4604,6.4604,6.5251,6.5435,6.5582,6.5742,6.5765,6.5852,6.5985,6.5839,6.5765,6.5765,6.5765,6.5692,6.5508,6.5508,6.5044,6.4103,6.4237,6.387,6.305,6.305,6.305,6.305,6.2866,6.2793,6.2793,6.2793,6.2793,6.2793,6.2793,6.2401,6.1741,6.0933,6.0529,6.0431,6.049,6.0525,6.0688,6.1547,6.1319,6.1033,6.2483,6.2426,6.2013,6.2693,6.2884,6.2923,6.3121,6.3037,6.2961,6.3305,6.3152,6.2961,6.3121,6.2999,6.2693,6.1975,6.186,6.1669,6.0988,6.0874,6.0797,6.0453,6.0415,6.0415,6.0415,6.0415,6.0415,6.0415,6.0415,6.0453,6.0606,6.1363,6.186,6.186,6.2502,6.2961,6.3159,6.3166,6.3931,6.5605,6.5016,6.5436,6.6942,6.7095,6.7515,6.8172,6.9043,6.9045,5.2552,5.2154,5.2791,5.5143,5.5237,5.5781,0.0,6.004,6.004,6.1655,6.2059,6.2462,6.3466,6.3699,6.4016,6.4995,6.5778,6.6256,6.6366,6.699,6.765,6.8311,6.6463,6.5178,6.5288,6.5962,6.6659,6.737,6.7444,6.7724,6.8444,6.7797,6.7444,6.7444,6.7444,6.71,6.6366,6.6366,6.5595,6.4103,6.4824,6.4751,6.3943,6.3943,6.3943,6.3919,6.3135,6.2793,6.2793,6.2793,6.2793,6.2793,6.2793,6.2756,6.2572,6.1777,6.1006,6.0442,6.0892,6.101,6.1162,6.1955,6.2163,6.2193,6.275,6.2846,6.277,6.2884,6.2884,6.3075,6.3854,6.3465,6.3266,6.4764,6.3992,6.3121,6.3893,6.3465,6.2884,6.277,6.2732,6.2732,6.2655,6.2617,6.2128,6.0606,6.0415,6.0415,6.0415,6.0415,6.0415,6.0415,6.0415,6.0683,6.1402,6.228,6.2732,6.2732,6.2846,6.3236,6.4007,6.4104,6.4907,6.6522,6.6514,6.6942,6.779,6.8547,6.8967,6.9082,6.9884,6.9846,5.516,5.5595,5.6308,5.787,5.8808,5.9978,6.2247,6.2655,6.2879,6.4004,6.4261,6.4517,6.5338,6.5902,6.6439,6.7283,6.8054,6.8605,6.8605,6.8495,6.8531,6.8862,6.7614,6.7063,6.8017,6.8385,6.8715,6.9082,6.9096,6.9229,6.9596,6.9265,6.8862,6.8421,6.8385,6.8017,6.7223,6.7187,6.6636,6.5485,6.5852,6.5595,6.4787,6.4787,6.453,6.4066,6.316,6.2793,6.2793,6.2793,6.2793,6.2793,6.2793,6.2793,6.2756,6.2426,6.2095,6.1838,6.233,6.2498,6.2651,6.3482,6.3427,6.3175,6.4092,6.4038,6.3732,6.4229,6.4344,6.4458,6.4802,6.4611,6.4535,6.5222,6.4879,6.4458,6.4802,6.4611,6.4229,6.3732,6.3656,6.3503,6.2999,6.2884,6.2655,6.1975,6.186,6.186,6.186,6.186,6.186,6.186,6.186,6.1975,6.2311,6.3159,6.3656,6.3656,6.4114,6.4535,6.4886,6.4908,6.5719,6.7362,6.6988,6.7431,6.874,6.913,6.9307,6.9337,7.0187,7.0379,5.7529,5.8339,5.9113,6.0438,6.1977,6.3374,6.4231,6.4938,6.5521,6.5888,6.6145,6.6389,6.6769,6.748,6.8201,6.8825,6.9779,7.0367,7.011,6.9779,6.9486,6.9265,6.8715,6.8839,7.0,7.011,7.0183,7.0403,7.044,7.044,7.044,7.022,6.9816,6.9265,6.9009,6.8605,6.8031,6.7811,6.7297,6.6512,6.6733,6.6402,6.5618,6.5618,6.5191,6.4383,6.3747,6.3343,6.316,6.316,6.3013,6.2793,6.2793,6.2793,6.2829,6.305,6.3076,6.3087,6.3784,6.3936,6.4019,6.4996,6.474,6.4212,6.5115,6.5146,6.4962,6.5299,6.5719,6.6025,6.5834,6.591,6.6101,6.6101,6.6101,6.6101,6.6101,6.591,6.5605,6.5001,6.4695,6.4351,6.3694,6.3572,6.3572,6.3572,6.3572,6.3419,6.2961,6.2884,6.2884,6.2884,6.3121,6.3274,6.3274,6.4038,6.4542,6.4542,6.5299,6.5757,6.5757,6.5987,6.6751,6.8249,6.773,6.8174,6.9589,6.9674,6.9712,6.975,7.0393,7.0715,5.947,5.9727,6.0409,6.31,6.4409,6.5277,6.6216,6.7637,6.8531,6.7774,6.8238,6.8568,6.7811,6.8311,6.8848,6.8885,7.0243,7.0977,7.022,7.077,7.094,7.0146,7.0036,7.0036,7.011,7.011,7.0403,7.1197,7.127,7.127,7.127,7.0513,7.0073,7.0073,6.9302,6.8885,6.8862,6.8104,6.7297,6.6512,6.7297,6.726,6.6476,6.6476,6.6035,6.5251,6.5251,6.4787,6.4066,6.4066,6.3576,6.2793,6.2793,6.2793,6.2903,6.3759,6.3799,6.3658,6.4918,6.5077,6.497,6.6243,6.6048,6.536,6.5375,6.5987,6.6445,6.5643,6.6567,6.7637,6.6865,6.7247,6.7828,6.7828,6.7828,6.7828,6.7828,6.7209,6.6628,6.6636,6.5948,6.5375,6.5337,6.5337,6.5337,6.5337,6.5337,6.4726,6.3114,6.2884,6.2884,6.2884,6.3656,6.416,6.416,6.4879,6.5375,6.5375,6.6178,6.6667,6.6667,6.74,6.8249,6.912,6.9128,6.954,7.0381,7.0499,7.0547,7.0585,7.0678,7.0715,5.9598,6.0999,6.2709,6.402,6.5555,6.6765,6.7099,6.806,6.8531,6.7173,6.71,6.7063,6.6256,6.721,6.8274,6.8825,7.0243,7.138,7.1651,7.1945,7.1615,7.0257,7.0587,7.0477,6.9412,6.9779,7.044,7.1233,7.1307,7.1527,7.2078,7.1835,7.1468,7.0903,7.061,7.0243,6.9706,6.8898,6.8348,6.8091,6.7847,6.7554,6.7297,6.6733,6.6366,6.6072,6.5508,6.5141,6.4897,6.4897,6.4701,6.4444,6.4444,6.4444,6.4532,6.5139,6.5428,6.5625,6.6045,6.6303,6.6561,6.7259,6.6942,6.6369,6.6911,6.6904,6.6751,6.698,6.7446,6.7828,6.7561,6.7714,6.7905,6.7905,6.7905,6.7905,6.7905,6.7676,6.7515,6.7515,6.6827,6.6254,6.6254,6.5796,6.5605,6.6178,6.5757,6.5184,6.4649,6.4573,6.4573,6.4573,6.4802,6.4993,6.4993,6.5757,6.6254,6.6254,6.7056,6.7515,6.7515,6.7752,6.8325,6.9196,6.9825,7.0569,7.1467,7.2088,7.2425,7.2508,7.2537,7.2551,6.0897,6.2569,6.4356,6.5451,6.666,6.7565,6.7565,6.8243,6.8348,6.6476,6.6292,6.6072,6.4664,6.5962,6.754,6.8348,7.0279,7.1894,7.2422,7.2753,7.2349,7.0734,7.0977,7.0793,6.9449,6.9816,7.044,7.1233,7.1564,7.1931,7.2459,7.2496,7.2275,7.1747,7.1454,7.105,7.055,6.9449,6.8752,6.8458,6.7958,6.77,6.7664,6.715,6.6916,6.688,6.6366,6.5999,6.5742,6.5742,6.5674,6.557,6.557,6.5644,6.5851,6.6462,6.6946,6.7281,6.7281,6.7364,6.7609,6.8177,6.7782,6.7247,6.7752,6.7744,6.763,6.7828,6.8325,6.8738,6.8432,6.8585,6.8776,6.8776,6.8776,6.8776,6.8776,6.8585,6.8363,6.8363,6.7706,6.7133,6.7133,6.6674,6.6483,6.7056,6.6636,6.6178,6.591,6.5605,6.5413,6.5413,6.5413,6.5528,6.5834,6.6361,6.6827,6.7095,6.7897,6.8363,6.8363,6.8623,6.9196,7.0075,7.0705,7.1442,7.2347,7.2955,7.3307,7.3389,7.3486,7.3507,6.3242,6.432,6.5386,6.7216,6.7737,6.7737,6.7664,6.8238,6.8077,6.5655,6.5742,6.5521,6.3123,6.4751,6.6733,6.7554,7.0403,7.2532,7.2606,7.3303,7.323,7.16,0.0,0.0,0.0,0.0,7.0624,7.1307,7.2041,7.2459,7.2496,7.2496,7.2496,7.2496,7.1747,7.1344,7.1344,6.9802,6.8605,6.7774,6.7774,6.7737,6.77,6.77,6.77,6.77,6.77,6.726,6.6549,6.6589,6.6395,6.6138,6.6161,6.6381,6.6814,6.7679,6.8256,6.8573,6.8592,6.8367,6.8172,6.9005,6.8661,6.7981,6.802,6.8585,6.9043,6.8249,6.9158,7.022,6.9464,6.9846,7.0411,7.0411,7.0411,7.0411,7.0411,6.9807,6.9273,6.9273,6.8555,6.7943,6.7905,6.7943,6.7981,6.7981,6.7981,6.7668,6.6865,6.6025,6.549,6.5452,6.549,6.5834,6.6636,6.6781,6.7133,6.7905,6.8784,6.9273,6.9273,6.999,7.0801,7.1688,7.1726,7.2185,7.3064,7.3236,7.3315,7.3331,7.3512,7.3623,6.4121,6.5628,6.7079,6.7442,6.8096,6.8274,6.7063,6.6953,6.6402,6.393,6.3135,6.2475,6.1251,6.3527,6.6072,6.748,7.0403,7.2936,7.4133,7.4992,7.4882,7.3266,0.0,7.4111,7.2092,7.2973,7.3252,7.2261,7.1821,7.1857,7.2459,7.2496,7.2496,7.2496,7.2312,7.2188,7.2188,7.1197,6.9986,6.8605,6.8605,6.8274,6.77,6.77,6.77,6.77,6.77,6.759,6.7433,6.7775,6.7876,6.7822,6.8156,6.8366,6.8543,6.9099,6.9398,6.9531,6.981,6.9848,6.9799,7.0029,6.954,6.8967,6.9578,6.9502,6.9273,6.9655,7.0067,7.0334,7.0143,7.0258,7.0411,7.0411,7.0411,7.0411,7.0411,7.022,7.0105,7.0105,6.9425,6.8661,6.802,6.844,6.8852,6.8852,6.8852,6.8547,6.7714,6.7408,6.7018,6.6445,6.6904,6.7095,6.6751,6.7859,6.8661,6.8852,6.9655,7.0105,7.0105,7.0296,7.0801,7.1688,7.2338,7.3136,7.4044,7.4697,7.5085,7.5211,7.5249,7.5302,6.4999,6.6386,6.7593,6.7579,6.7963,6.7944,6.6329,6.5962,6.5191,6.2316,6.141,6.0713,5.9575,6.2328,6.5301,6.693,7.0477,7.3597,7.5212,7.6114,7.6166,7.4882,7.5542,0.0,7.3744,7.4353,7.4536,7.3619,7.2826,7.2422,7.2496,7.2496,7.2496,7.2496,7.2496,7.2349,7.1967,7.1527,7.0683,6.9449,6.9449,6.9192,6.8728,6.8398,6.8238,6.8201,6.7847,6.8031,6.8513,6.8433,6.8854,6.9524,6.9443,6.9506,6.9692,6.9954,7.0073,7.01,7.0306,7.0411,7.0411,7.0411,7.0105,6.9807,7.0258,7.0067,6.9807,7.0258,7.0411,7.0411,7.0411,7.0411,7.0411,7.0411,7.0411,7.0411,7.0411,7.0411,7.0411,7.0411,7.0029,6.9578,6.9082,6.9387,6.9731,6.9731,6.9731,6.954,6.9043,6.805,6.7324,6.7247,6.7324,6.7477,6.7782,6.8661,6.9349,6.9693,7.0143,7.0411,7.0411,7.0763,7.1374,7.2261,7.3093,7.396,7.4898,7.5353,7.5666,7.5802,7.5872,7.5933,6.5948,6.6852,6.7538,6.7674,6.7554,6.7003,6.5485,6.4884,6.382,6.0848,6.0162,5.9648,5.8253,6.1263,6.453,6.6366,7.0513,7.4184,7.6019,7.6848,7.7032,7.635,7.6276,7.5983,7.527,7.5234,7.516,7.505,7.4404,7.367,7.2863,7.2826,7.2789,7.2679,7.2679,7.2275,7.1454,7.1454,7.105,7.0257,7.0257,7.0183,7.0073,6.9376,6.9082,6.9009,6.8406,6.8735,6.9731,6.9158,6.982,7.1114,7.0337,7.0252,7.0563,7.0449,7.0411,7.0411,7.0411,7.0487,7.0563,7.0449,7.0411,7.0411,7.0411,7.0411,7.0411,7.0411,7.0411,7.0411,7.0411,7.0411,7.0411,7.0411,7.0411,7.0411,7.0411,7.0411,7.0411,7.0411,7.0411,7.0411,7.0411,7.0411,7.0411,7.0411,7.0411,7.0411,7.0411,6.85,6.7439,6.802,6.7553,6.7744,6.9082,6.9311,6.9655,7.0372,7.0411,7.0411,7.0411,7.1221,7.2108,7.2979,7.3781,7.463,7.5527,7.5557,7.5649,7.5716,7.5856,7.5933,6.7003,6.7442,6.7674,6.7687,6.6696,6.5485,6.453,6.2732,6.0884,5.9673,5.8866,5.8327,5.8033,6.075,6.4016,6.7003,7.044,7.3744,7.6665,7.7215,7.7252,7.7105,7.7105,7.7032,7.6922,7.6885,7.6592,7.5946,7.5763,7.5322,7.4536,7.4463,7.4184,7.3487,7.3487,7.312,7.2312,7.2312,7.1894,7.1087,7.1087,7.072,7.011,6.9963,6.9889,6.9917,7.0156,0.0,7.0648,7.1331,7.1791,7.2034,7.155,7.14,7.1382,7.0686,7.0411,7.0411,7.0411,7.0877,7.1374,7.064,7.0411,7.0411,7.0411,7.0411,7.0411,7.0411,7.0411,7.0411,7.0411,7.0411,7.0411,7.0411,7.0411,7.0411,7.0411,7.0411,7.0411,7.0411,7.0411,7.0411,7.0411,7.0411,7.0411,7.0411,7.0411,7.0411,7.0411,7.0029,6.957,6.9043,6.9417,6.9608,6.9234,6.9807,7.0258,7.0372,7.0411,7.0411,7.0411,7.1221,7.2108,7.2979,7.3781,7.4656,7.5574,7.5591,7.5682,7.5872,7.5879,7.5933,6.7236,6.7593,6.759,6.7187,6.6182,6.4848,6.3172,6.1557,6.0052,5.8841,5.8253,5.7997,5.7997,6.0272,6.2989,6.5424,6.8178,7.1284,7.4918,7.5432,7.5894,7.7142,7.7289,7.7289,7.7289,7.7289,7.7142,7.6738,7.6702,7.6188,7.4977,7.4903,7.4536,7.3722,7.3722,7.3303,7.2496,7.2496,7.2312,7.1931,7.1931,7.1725,7.1321,7.0917,7.0864,7.1064,7.0869,7.1339,7.2195,7.2253,7.27,7.3199,7.2117,7.1688,7.1573,7.0724,7.0411,7.0411,7.0411,7.0686,7.0954,7.0525,7.0724,7.0992,7.0525,7.0411,7.0411,7.0411,7.0411,7.0411,7.0411,7.0411,7.0411,7.0411,7.0411,7.0411,7.0411,7.0411,7.0411,7.0411,7.0763,7.1068,7.1068,7.145,7.1603,7.1145,7.1068,7.0916,7.0449,7.0411,7.0258,6.9884,6.9807,6.996,7.0465,7.0457,7.0793,7.1718,7.1336,7.1298,7.1718,7.2559,7.3208,7.3628,7.4431,7.5106,7.5532,7.5574,7.5666,7.5794,7.5872,7.5933,6.7264,6.762,6.7517,6.6696,6.5632,6.4224,6.2071,6.0713,5.9538,5.8253,5.7997,5.7997,5.7997,5.9685,6.1741,6.3772,6.6122,6.9096,7.3134,7.4015,7.4992,7.7069,7.7289,7.7289,7.7289,7.7289,7.7289,7.7289,7.7289,7.6738,7.5491,7.5417,7.4992,7.4001,7.3964,7.3487,7.2496,7.2496,7.2496,7.2496,7.2496,7.2496,7.2496,7.1962,7.1948,7.2233,7.1814,7.2451,7.3712,7.3203,7.3562,7.4316,7.2826,7.2261,7.2147,7.1259,7.0946,7.0946,7.0946,7.106,7.1175,7.1022,7.1183,7.1298,7.0602,7.0411,7.0411,7.0411,7.0525,7.064,7.0449,7.0678,7.0946,7.0946,7.0801,7.0724,7.0907,7.0946,7.0946,7.0946,7.1527,7.1994,7.1994,7.2567,7.275,7.207,7.1994,7.1718,7.1068,7.0946,7.0946,7.0946,7.0228,7.0274,7.1573,7.1221,7.1527,7.2902,7.2376,7.2299,7.2979,7.3781,7.4193,7.4193,7.5233,7.5786,7.5803,7.5872,7.5918,7.5993,7.5941,7.5933,6.7427,6.7687,6.7517,6.6696,6.4738,6.2793,6.1814,5.9832,5.818,5.8033,5.7997,5.7997,5.7997,5.8767,6.0444,6.3589,6.6122,6.9096,7.3134,7.4955,7.624,7.7179,7.7289,7.7289,7.7289,7.7289,7.7289,7.7289,7.7289,7.7252,7.7105,7.7069,7.6371,7.483,7.4793,7.4059,7.2532,7.2496,7.2496,7.2496,7.2496,7.2496,7.251,7.2943,7.3148,7.3214,7.3999,7.4454,0.0,7.5045,7.5254,7.528,7.4354,7.3972,7.3858,7.3055,7.275,7.275,7.275,7.3246,7.3734,7.3017,7.1756,7.0487,7.0411,7.0411,7.0411,7.0411,7.0954,7.1421,7.0602,7.1565,7.275,7.275,7.2147,7.1803,7.2597,7.275,7.275,7.275,7.2826,7.2873,7.2873,7.2941,7.2979,7.2902,7.2873,7.2864,7.275,7.275,7.275,7.275,7.1994,7.1535,7.1688,7.2329,7.2826,7.2979,7.2902,7.2902,7.2979,7.3781,7.4193,7.4193,7.5768,7.6653,7.676,7.6769,7.687,7.6955,7.6233,7.5933,6.7183,6.77,6.7627,6.7297,6.5007,6.2572,6.1777,5.9722,5.7997,5.7997,5.7997,5.8143,5.8609,5.8572,5.9391,6.2157,6.3001,6.4714,6.8788,7.033,7.2055,7.4808,7.5564,7.6225,7.7215,7.7289,7.7289,7.7289,7.7289,7.7105,7.6592,7.6592,7.5836,7.4221,7.4184,7.3634,7.2496,7.2496,7.2496,7.2496,7.2496,7.2496,7.251,7.3047,7.3441,7.375,7.4433,7.4893,0.0,7.5409,7.5509,7.5395,7.4545,7.4193,7.4078,7.3284,7.2979,7.2979,7.2979,7.3208,7.3437,7.3093,7.2176,7.1183,7.1183,7.0839,7.0411,7.0411,7.103,7.1612,7.1259,7.21,7.2979,7.2979,7.2711,7.2567,7.2949,7.2979,7.2979,7.2979,7.3399,7.3705,7.3705,7.4163,7.4325,7.3819,7.3705,7.3552,7.3055,7.2979,7.2979,7.2979,7.2682,7.2673,7.317,7.3093,7.3437,7.4439,7.401,7.3972,7.4478,7.4821,7.4966,7.4966,7.6112,7.6741,7.6776,7.7364,7.7394,7.6963,7.6723,7.6371,6.6399,6.7333,6.759,6.7113,6.4897,6.2536,6.1484,5.9575,5.7997,5.7997,5.7997,5.818,5.8756,5.8572,5.8988,6.0933,6.1374,6.2768,6.6329,6.7944,7.0,7.3318,7.4404,7.5454,7.6812,7.7179,7.7289,7.7289,7.7289,7.6848,7.5799,7.5763,7.5102,7.3744,7.3722,7.3303,7.2496,7.2496,7.2496,7.2496,7.2496,7.2582,7.2742,7.3248,7.3762,7.4221,7.4715,7.5142,0.0,7.5509,7.5509,7.5433,7.4813,7.4584,7.4507,7.3934,7.3752,7.3752,7.3752,7.3752,7.3752,7.3752,7.3132,7.2367,7.2147,7.1298,7.0449,7.0724,7.1412,7.2185,7.2682,7.2911,7.314,7.3637,7.3552,7.3437,7.3675,7.3752,7.3752,7.3752,7.4201,7.4584,7.4584,7.508,7.528,7.466,7.4584,7.4393,7.3819,7.3752,7.3752,7.3752,7.3752,7.3858,7.4155,7.3934,7.4248,7.5433,7.4927,7.4966,7.5815,7.5853,7.5968,7.6235,7.7029,7.7449,7.7449,7.8159,7.8211,7.7663,7.7552,7.7063,6.5066,6.6476,6.7333,6.5742,6.404,6.2389,6.0786,5.9171,5.7997,5.7997,5.7997,5.7997,5.7997,5.8646,5.9453,6.026,6.2475,6.491,6.7333,6.9743,7.1857,7.3487,7.4404,7.5197,7.6019,7.6812,7.7289,7.7289,7.7289,7.6592,7.5014,7.4903,7.4551,7.3722,7.3722,7.3303,7.2496,7.2496,7.2496,7.2496,7.2496,7.277,7.3311,7.3774,7.4232,7.4725,7.5263,7.5509,0.0,7.5509,7.5509,7.5509,7.5471,7.5471,7.5471,7.5471,7.5471,7.5471,7.5471,7.5471,7.5471,7.5471,7.4889,7.404,7.3246,7.1794,7.0563,7.1459,7.2299,7.3369,7.5013,7.4248,7.3408,7.5089,7.4813,7.4431,7.528,7.5471,7.5471,7.5471,7.5471,7.5471,7.5471,7.5471,7.5509,7.5471,7.5471,7.5471,7.5471,7.5471,7.5471,7.5471,7.5471,7.5127,7.4269,7.4966,7.5471,7.5509,7.5471,7.5853,7.6647,7.6685,7.7105,7.7946,7.8834,7.9254,7.9254,7.9354,7.9403,7.9442,7.8735,7.7977,6.3074,6.3967,6.4383,6.4457,6.2805,6.1043,6.0529,5.9171,5.7997,5.7997,5.7997,5.8327,5.9428,5.938,6.037,6.398,6.4787,6.5778,6.8164,7.0132,7.1674,7.2753,7.505,7.6628,7.6885,7.7142,7.7289,7.7289,7.7289,7.6592,7.4977,7.4903,7.428,7.2936,7.2899,7.2753,7.2496,7.2496,7.2496,7.2496,7.2881,7.3127,7.3337,7.4098,7.4544,7.4735,7.5263,7.5509,7.5509,7.5509,7.5509,7.5509,7.5509,7.5509,7.5509,7.5509,7.5509,7.5509,7.5509,7.5509,7.5509,7.5509,7.4889,7.4049,7.3246,7.2215,7.1459,7.2338,7.317,7.4087,7.5204,7.5127,7.486,7.5356,7.528,7.5165,7.5433,7.5509,7.5509,7.5509,7.5509,7.5509,7.5509,7.5509,7.5509,7.5509,7.5509,7.5509,7.5509,7.5509,7.5509,7.5509,7.5509,7.5395,7.5127,7.5356,7.5509,7.5509,7.6006,7.6418,7.6685,7.7258,7.7717,7.7975,7.8897,7.9354,7.9354,8.0016,7.9795,7.8727,7.7915,7.7132,6.1239,6.2352,6.2866,6.3099,6.1777,6.0309,6.0003,5.8951,5.7997,5.7997,5.7997,5.84,5.971,5.9783,6.0737,6.4127,6.4751,6.5705,6.8128,6.9816,7.149,7.3179,7.5417,7.6848,7.6848,7.7142,7.7289,7.7289,7.7289,7.6592,7.4977,7.4903,7.4169,7.2569,7.2496,7.2496,7.2496,7.2496,7.2496,7.2496,7.3034,7.3377,7.3603,7.4342,7.4805,7.5,7.5365,7.5509,0.0,7.5509,7.5509,7.5509,7.5509,7.5509,7.5509,7.5509,7.5509,7.5509,7.5509,7.5509,7.5433,7.5127,7.4201,7.3208,7.3055,7.2605,7.2376,7.3208,7.4049,7.4813,7.5356,7.5509,7.5509,7.5509,7.5509,7.5509,7.5509,7.5509,7.5509,7.5509,7.5509,7.5509,7.5509,7.5509,7.5509,7.5509,7.5509,7.5509,7.5509,7.5509,7.5509,7.5509,7.5509,7.5509,7.5509,7.5509,7.5624,7.593,7.6418,7.6991,7.7649,7.8213,7.8634,7.8939,7.95,7.9804,7.9804,8.0464,8.0161,7.893,7.8016,7.7239,0.0,6.1325,6.2279,6.152,6.0786,6.004,5.9306,5.8547,0.0,5.7997,5.7997,5.829,5.9269,5.9967,6.0786,6.1924,6.3442,6.5277,6.7627,6.9376,7.1578,7.4683,7.5726,7.6203,7.6203,7.6848,7.7289,7.7289,7.7289,7.6592,7.4977,7.4903,7.4169,7.2569,7.2496,7.2496,7.2496,7.2496,7.251,7.2567,7.3087,7.3603,7.4079,7.4561,7.5009,7.5509,7.5509,7.5509,7.5509,7.5509,7.5509,7.5509,7.5509,7.5509,7.5509,7.5509,7.5509,7.5509,7.5509,7.5509,7.5356,7.4469,7.3055,7.1879,7.2788,7.3055,7.317,7.3972,7.4813,7.5509,7.5509,7.5509,7.5509,7.5509,7.5509,7.5509,7.5509,7.5509,7.5509,7.5509,7.5509,7.5509,7.5509,7.5509,7.5509,7.5509,7.5509,7.5509,7.5509,7.5509,7.5509,7.5509,7.5509,7.5509,7.5509,7.5509,7.5815,7.657,7.6723,7.7526,7.914,7.9331,7.9751,8.0506,8.0525,8.0534,8.0543,8.0723,8.0471,7.9777,7.8977,7.8138,5.8219,0.0,5.9061,5.8877,5.8694,5.851,0.0,5.8143,5.7997,5.7997,5.7997,5.8804,6.1471,6.1104,6.1887,6.6439,6.7504,6.8421,7.0206,7.2371,7.45,7.6518,7.6885,7.7032,7.7032,7.7179,7.7289,7.7289,7.7289,7.6592,7.4977,7.4903,7.4169,7.2569,7.2496,7.2496,7.2496,7.2496,7.2686,7.3114,7.3591,7.4064,7.4533,7.5076,7.5383,7.5509,7.5509,7.5509,7.5509,7.5509,7.5509,7.5509,7.5509,7.5509,7.5509,7.5509,7.5509,7.5509,7.5509,7.5509,7.5356,7.4469,7.3055,7.1994,7.3476,7.3476,7.317,7.3972,7.4813,7.5509,7.5509,7.5509,7.5509,7.5509,7.5509,7.5509,7.5509,7.5509,7.5509,7.5509,7.5509,7.5509,7.5509,7.5509,7.5509,7.5509,7.5509,7.5509,7.5509,7.5509,7.5509,7.5509,7.5509,7.5509,7.5509,7.5509,7.5586,7.5777,7.6991,7.787,7.829,7.9551,8.0315,8.0506,8.0652,8.0767,8.0796,8.0943,8.063,7.9815,7.9592,7.8707,5.7664,5.8722,5.9648,5.9648,5.9648,5.9648,5.9648,5.8804,5.7997,5.7997,5.829,5.9196,6.1288,6.1924,6.3246,6.6683,6.8187,6.9729,7.2092,7.4147,7.5894,7.7142,7.7289,7.7289,7.7289,7.7289,7.7289,7.7289,7.7289,7.6775,7.5542,7.5087,7.4316,7.3083,7.2679,7.2496,7.2496,7.2496,7.2756,7.3311,7.3774,7.4232,7.4725,7.5263,7.5509,7.5509,7.5509,7.5509,7.5509,7.5509,7.5509,7.5509,7.5509,7.5509,7.5509,7.5509,7.5509,7.5433,7.5042,7.4401,7.3752,7.3667,7.275,7.1956,7.3246,7.359,7.3705,7.4545,7.5127,7.5509,7.5509,7.5509,7.5509,7.5509,7.5509,7.5509,7.5509,7.5509,7.5509,7.5509,7.5509,7.5509,7.5509,7.5509,7.5509,7.5509,7.5509,7.5509,7.5509,7.5509,7.5509,7.5509,7.5509,7.5509,7.5509,7.5509,7.5662,7.6044,7.6914,7.7755,7.8557,7.9474,8.0124,8.0506,8.0616,8.054,8.0246,8.0334,7.9976,7.9208,7.9208,7.8707,5.8081,6.0201,6.2132,6.141,6.152,6.1704,6.13,5.9648,5.818,5.818,5.8719,5.9636,6.108,6.2952,6.4714,6.6022,6.8041,7.055,7.3634,7.5249,7.6387,7.7215,7.7289,7.7289,7.7289,7.7289,7.7289,7.7289,7.7289,7.6959,7.613,7.5344,7.4536,7.3722,7.2936,7.2496,7.2496,7.2582,7.2894,7.3402,7.3893,7.4379,7.4825,7.5281,7.5509,7.5509,7.5509,0.0,7.5509,7.5509,7.5509,7.5509,7.5509,7.5509,7.5509,7.5509,7.5509,7.5395,7.466,7.3361,7.2185,7.2941,7.2605,7.207,7.2902,7.3667,7.4393,7.5242,7.5509,7.5509,7.5509,7.5509,7.5509,7.5509,7.5509,7.5509,7.5509,7.5509,7.5509,7.5509,7.5509,7.5509,7.5509,7.5509,7.5509,7.5509,7.5509,7.5509,7.5509,7.5509,7.5509,7.5509,7.5509,7.5509,7.5509,7.5509,7.5777,7.6456,7.6647,7.7487,7.9216,7.9407,7.9789,8.0506,8.0525,8.0234,7.971,7.9727,7.9434,7.8907,7.8907,7.883,6.0187,6.3141,6.4621,6.0567,6.1104,6.2095,6.004,5.9269,5.9013,5.9013,5.9123,6.0517,6.4787,6.5338,6.6279,6.9802,7.127,7.2826,7.5359,7.5946,7.6387,7.7215,7.7289,7.7289,7.7289,7.7289,7.7289,7.7289,7.7289,7.6959,7.613,7.5344,7.4536,7.3722,7.2936,7.2496,7.2496,7.2963,7.3415,7.3904,7.4353,7.4873,7.5383,7.5445,7.5509,7.5509,0.0,7.5509,7.5509,7.5509,7.5509,7.5509,7.5509,7.5509,7.5509,7.5509,7.5509,7.5471,7.5356,7.466,7.3858,7.3972,7.3476,7.2941,7.3781,7.4078,7.4393,7.5242,7.5509,7.5509,7.5509,7.5509,7.5509,7.5509,7.5509,7.5509,7.5509,7.5509,7.5509,7.5509,7.5509,7.5509,7.5509,7.5509,7.5509,7.5509,7.5509,7.5509,7.5509,7.5509,7.5509,7.5509,7.5509,7.5509,7.5509,7.5509,7.5548,7.5662,7.6303,7.7487,7.9216,7.9942,8.0353,8.0506,8.0551,8.0611,8.0601,8.0677,8.069,8.0708,8.0708,8.0323,5.8981,6.2139,6.4485,6.2377,6.431,6.6329,6.4774,6.3086,6.1851,6.1851,6.1851,6.2658,6.5375,6.699,6.9082,7.2665,7.3546,7.4331,7.5873,7.6093,7.6387,7.7215,7.7289,7.7289,7.7289,7.7289,7.7289,7.7289,7.7289,7.7142,7.6775,7.5564,7.472,7.4368,7.3156,7.2496,7.2496,7.3287,7.3786,7.4021,7.4497,7.4971,7.5509,7.5509,7.5509,7.5509,7.5509,7.5509,7.5509,7.5509,7.5509,7.5509,7.5509,7.5509,7.5509,7.5509,7.5204,7.4851,7.5356,7.463,7.3628,7.4049,7.3964,7.3705,7.4078,7.4545,7.5004,7.5395,7.5509,7.5509,7.5509,7.5509,7.5509,7.5509,7.5509,7.5509,7.5509,7.5509,7.5509,7.5509,7.5509,7.5509,7.5509,7.5509,7.5509,7.5509,7.5509,7.5509,7.5509,7.5509,7.5509,7.5509,7.5509,7.5509,7.5509,7.5509,7.57,7.6112,7.6494,7.7487,7.9216,7.9675,7.9866,7.9866,8.0323,8.0166,7.9335,7.9838,8.0136,8.0219,8.0306,8.0137,5.8239,6.1087,6.3933,6.4246,6.6683,6.8972,6.8898,6.6402,6.4323,6.5057,6.5057,6.5301,6.6499,6.9192,7.2018,7.45,7.5234,7.5674,7.6313,7.6387,7.6592,7.7252,7.7289,7.7289,7.7289,7.7289,7.7289,7.7289,7.7289,7.7215,7.7032,7.5674,7.4793,7.461,7.323,7.2567,7.2709,7.3554,7.4009,7.4021,7.4602,7.5104,7.5509,7.5509,7.5509,7.5509,7.5509,7.5509,7.5509,7.5509,7.5509,7.5509,7.5509,7.5509,7.5509,7.5509,7.508,7.4584,7.528,7.4669,7.3675,7.4316,7.4507,7.4507,7.4507,7.4966,7.5509,7.5509,7.5509,7.5509,7.5509,7.5509,7.5509,7.5509,7.5509,7.5509,7.5509,7.5509,7.5509,7.5509,7.5509,7.5509,7.5509,7.5509,7.5509,7.5509,7.5509,7.5509,7.5509,7.5509,7.5509,7.5509,7.5509,7.5509,7.5509,7.5509,7.593,7.6953,7.68,7.7487,7.9216,7.9292,7.9369,7.9598,8.019,7.9939,7.8735,7.925,7.9493,7.9585,7.9689,7.9721,6.0176,6.2248,6.3912,6.4799,6.5357,6.6206,6.8408,6.6402,6.4934,6.7944,6.7944,6.8128,7.0426,7.2885,7.461,7.4867,7.6151,7.7142,7.7215,7.7215,7.7252,7.7289,7.7289,7.7289,7.7289,7.7289,7.7289,7.7289,7.7289,7.6959,7.624,7.538,7.4551,7.3817,7.2936,7.2728,7.3233,7.375,7.4009,7.4021,7.4989,7.5445,7.5509,7.5509,7.5509,7.5509,7.5509,7.5509,7.5509,7.5509,7.5509,7.5509,7.5509,7.5509,7.5509,7.5509,7.5471,7.5433,7.5471,7.5433,7.5318,7.5395,7.5395,7.5395,7.5395,7.5433,7.5509,7.5509,7.5509,7.5509,7.5509,7.5509,7.5509,7.5509,7.5509,7.5509,7.5509,7.5509,7.5509,7.5509,7.5509,7.5509,7.5509,7.5509,7.5509,7.5509,7.5509,7.5509,7.5509,7.5509,7.5509,7.5509,7.5509,7.5509,7.5509,7.5509,7.6197,7.7793,7.7144,7.7487,7.9216,7.9292,7.9636,8.0391,8.0522,8.0611,8.0592,7.9977,7.9721,7.9762,7.9808,7.9769,5.8602,6.1266,6.3935,6.4809,6.5813,6.7149,6.9165,6.8646,6.8495,7.1307,7.0844,7.0206,7.1123,7.2863,7.4331,7.483,7.5821,7.6738,7.7252,7.7289,7.7289,7.7289,7.7289,7.7289,7.7289,7.7289,7.7289,7.7289,7.6848,7.6423,7.613,7.4845,7.4001,7.3722,7.3231,7.3087,7.3298,7.4029,7.4417,7.4428,7.518,7.5509,7.5509,7.5509,7.5509,7.5509,7.5509,7.5509,7.5509,7.5509,7.5509,7.5509,7.5509,7.5509,7.5509,7.5509,7.5509,7.5509,7.5509,7.5509,7.5509,7.5509,7.5509,7.5509,7.5509,7.5509,7.5509,7.5509,7.5509,7.5509,7.5509,7.5509,7.5509,7.5509,7.5509,7.5509,7.5509,7.5509,7.5509,7.5509,7.5509,7.5509,7.5509,7.5509,7.5509,7.5509,7.5509,7.5509,7.5509,7.5509,7.5509,7.5509,7.5509,7.57,7.6188,7.6265,7.7,7.8719,7.7487,7.7717,7.9942,7.9615,7.9498,7.9804,8.0429,8.0221,7.9259,7.9484,7.9317,7.8889,7.9483,7.943,5.8238,6.0781,6.3573,6.442,6.586,6.7643,6.9972,7.0364,7.1135,7.4228,7.334,7.1967,7.1711,7.2789,7.3891,7.4441,7.5616,7.6665,7.7215,7.7289,7.7289,7.7289,7.7289,7.7289,7.7289,7.7289,7.7179,7.6922,7.6423,7.5873,7.5359,7.4309,7.356,7.334,7.3303,7.3388,7.3529,7.4287,7.4786,7.4951,7.5309,7.5509,7.5509,7.5509,7.5509,7.5509,7.5509,7.5509,7.5509,7.5509,7.5509,7.5509,7.5509,7.5509,7.5509,7.5509,7.5509,7.5509,7.5509,7.5509,7.5509,7.5509,7.5509,7.5509,7.5509,7.5509,7.5509,7.5509,7.5509,7.5509,7.5509,7.5509,7.5509,7.5509,7.5509,7.5509,7.5509,7.5509,7.5509,7.5509,7.5509,7.5509,7.5509,7.5509,7.5509,7.5509,7.5509,7.5509,7.5509,7.5509,7.5586,7.5853,7.6121,7.6494,7.7067,7.7105,7.7735,7.9223,7.8229,7.845,8.0438,7.981,7.9556,7.9824,8.0256,7.9876,7.8725,7.8788,7.8527,7.799,7.8899,7.9007,5.9776,6.1206,6.2872,6.3727,6.5154,6.7231,7.0581,7.1229,7.2307,7.6451,7.5395,7.345,7.2679,7.3156,7.3722,7.3722,7.5726,7.7289,7.7289,7.7289,7.7289,7.7289,7.7289,7.7289,7.7289,7.7289,7.6959,7.6166,7.6093,7.5395,7.3795,7.367,7.334,7.2532,7.3007,7.3541,7.4021,7.446,7.4971,7.5471,7.5471,7.5471,7.5509,7.5509,7.5509,7.5509,7.5509,7.5509,7.5509,7.5509,7.5509,7.5509,7.5509,7.5509,7.5509,7.5509,7.5509,7.5509,7.5509,7.5509,7.5509,7.5509,7.5509,7.5509,7.5509,7.5509,7.5509,7.5509,7.5509,7.5509,7.5509,7.5509,7.5509,7.5509,7.5509,7.5509,7.5509,7.5509,7.5509,7.5509,7.5509,7.5509,7.5509,7.5509,7.5509,7.5509,7.5509,7.5509,7.5509,7.5509,7.5815,7.6609,7.7487,7.7975,7.7984,7.8022,7.8411,7.936,7.9398,7.9781,8.0576,7.9906,7.9919,8.0792,8.0071,7.9697,7.9697,7.8093,7.7292,7.733,7.8138,7.8484,5.838,6.0304,6.2889,6.4204,6.7122,7.0374,7.309,7.3222,7.3493,7.5953,7.5909,7.4955,7.3597,7.4001,7.4551,7.4551,7.5124,7.6004,7.7142,7.6812,7.6665,7.7252,7.7289,7.7069,7.6533,7.6959,7.6738,7.5344,7.527,7.4808,7.3758,7.3156,7.2916,7.3071,7.3554,7.4033,7.447,7.4401,7.4431,7.4584,7.4584,7.4889,7.5509,7.5509,7.5509,7.5509,7.5509,7.5509,7.5509,7.5509,7.5509,7.5509,7.5509,7.5509,7.5509,7.5509,7.5509,7.5509,7.5509,7.5509,7.5509,7.5509,7.5509,7.5509,7.5509,7.5509,7.5509,7.5509,7.5509,7.5509,7.5509,7.5509,7.5509,7.5509,7.5509,7.5509,7.5509,7.5509,7.5509,7.5509,7.5509,7.5509,7.5509,7.5509,7.5509,7.5509,7.5509,7.5509,7.5509,7.5509,7.5586,7.5815,7.657,7.7361,7.7997,7.8627,7.9389,8.0328,8.0434,8.0549,8.072,8.0575,8.0616,8.0885,8.0744,8.0092,7.8869,7.8392,7.7561,7.6399,7.783,7.8484,6.0887,6.2707,6.5115,6.7309,6.9766,7.2277,7.471,7.515,7.5217,7.5968,7.5579,7.4845,7.3891,7.3854,7.4059,7.4368,7.4683,7.5234,7.6225,7.5931,7.5931,7.6738,7.6555,7.6261,7.613,7.6261,7.5821,7.4515,7.4441,7.4074,7.3266,7.2753,7.2742,7.3285,7.375,7.421,7.4705,7.4388,7.4193,7.4193,7.3896,7.401,7.4516,7.5204,7.5509,7.5509,7.5509,7.5318,7.5013,7.5356,7.5509,7.5509,7.5509,7.5509,7.5471,7.5127,7.5204,7.5433,7.5089,7.4966,7.4966,7.4966,7.4966,7.4966,7.4966,7.5242,7.5509,7.5509,7.5509,7.5509,7.5509,7.5509,7.5509,7.5509,7.5509,7.5509,7.5509,7.5509,7.5509,7.5509,7.5509,7.5509,7.5509,7.5509,7.5509,7.5509,7.5509,7.5509,7.5509,7.5777,7.5968,7.5968,7.672,7.7491,7.8041,7.862,7.9352,8.0247,8.0071,8.0057,8.0344,8.0427,8.0475,8.0475,7.9877,7.9054,7.8023,7.7676,7.6976,7.6015,7.7407,7.8176,6.5234,6.6699,6.8334,7.1564,7.2591,7.3413,7.5616,7.6592,7.6885,7.613,7.4845,7.3817,7.3817,7.3193,7.2973,7.367,7.4368,7.483,7.4903,7.483,7.5087,7.5909,7.5344,7.516,7.5836,7.527,7.4551,7.367,7.367,7.334,7.2532,7.2539,7.2826,7.3363,7.3821,7.4276,7.4766,7.433,7.4078,7.4078,7.3284,7.2873,7.2949,7.4554,7.528,7.528,7.5356,7.4927,7.4269,7.5127,7.5509,7.5509,7.5509,7.5509,7.5395,7.4507,7.4698,7.528,7.4393,7.4078,7.4078,7.4193,7.4155,7.4116,7.4269,7.4813,7.5395,7.5471,7.5509,7.5509,7.5509,7.5509,7.5509,7.5509,7.5509,7.5509,7.5509,7.5509,7.5509,7.5509,7.5509,7.5509,7.5509,7.5509,7.5509,7.5509,7.5509,7.5509,7.5509,7.6159,7.657,7.657,7.7414,7.8011,7.7973,7.8211,7.8607,7.9327,7.8758,7.8767,7.9527,7.9653,7.9669,7.9669,7.8169,7.7369,7.7292,7.6515,7.6092,7.6015,7.6899,7.7676,6.2245,6.4363,6.7355,7.0615,7.3377,7.5469,7.5983,7.5763,7.538,7.5197,7.4867,7.4647,7.4647,7.45,7.4426,7.461,7.4258,7.4184,7.4793,7.4368,7.4258,7.505,7.5014,7.472,7.4258,7.4625,7.428,7.2863,7.334,7.334,7.2532,7.2908,7.3338,7.3833,7.4287,7.4786,7.5309,7.3938,7.3246,7.3246,7.2376,7.1994,7.2032,7.3064,7.356,7.3552,7.4201,7.4384,7.4269,7.5127,7.5509,7.5509,7.5509,7.5509,7.5395,7.4507,7.4307,7.4354,7.3552,7.3246,7.3361,7.4002,7.3781,7.3514,7.4821,7.4851,7.4622,7.5318,7.5509,7.5509,7.5509,7.5509,7.5509,7.5509,7.5509,7.5509,7.5509,7.5509,7.5509,7.5509,7.5509,7.5509,7.5509,7.5509,7.5509,7.5509,7.5509,7.5509,7.5509,7.5662,7.5777,7.5777,7.6611,7.7169,7.7177,7.7925,7.8442,7.8538,7.8459,7.8475,7.8601,7.8707,7.8792,7.8792,7.8446,7.7946,7.7292,7.7099,7.6669,7.6015,7.6899,7.7407,6.3235,6.5742,6.8829,7.2109,7.4235,7.5432,7.5028,7.4331,7.3619,7.3252,7.378,7.4111,7.3325,7.3472,7.3619,7.3252,7.3156,7.3266,7.3707,7.3377,7.3413,7.4221,7.4001,7.3744,7.3722,7.3744,7.3399,7.2569,7.2899,7.2936,7.2532,7.261,7.3094,7.396,7.3672,7.3954,7.4889,7.3217,7.2376,7.2376,7.1489,7.1068,7.1107,7.2406,7.275,7.2414,7.3246,7.3399,7.3093,7.4354,7.4889,7.4927,7.5356,7.5242,7.4775,7.3934,7.3628,7.3514,7.2673,7.2376,7.2529,7.3361,7.3055,7.2682,7.4354,7.4278,7.3896,7.5165,7.5204,7.4966,7.5395,7.5509,7.5509,7.5509,7.5509,7.5509,7.5509,7.5509,7.5509,7.5509,7.5509,7.5509,7.5509,7.5509,7.5509,7.5509,7.5509,7.5509,7.5509,7.5509,7.5509,7.5509,7.597,7.6288,7.6288,7.6796,7.7251,7.7628,7.736,7.7337,7.7628,7.7408,7.7424,7.7808,7.7462,7.7054,7.6669,7.6669,7.6438,7.6015,7.6476,7.6899,6.44,6.7383,7.049,7.3846,7.4683,7.4478,7.367,7.2973,7.2239,7.127,7.2386,7.301,7.138,7.1857,7.2239,7.1417,7.1967,7.2496,7.2496,7.2496,7.2753,7.3413,7.2899,7.2753,7.3413,7.2899,7.2496,7.2496,7.2386,7.2318,7.2418,7.2114,7.2471,7.3662,7.2793,7.2879,7.3964,7.249,7.1688,7.1688,7.0839,7.0411,7.0449,7.1909,7.2138,7.1535,7.2406,7.2376,7.1803,7.3361,7.4002,7.4049,7.4783,7.4622,7.3896,7.3093,7.2788,7.2643,7.1764,7.1497,7.1612,7.2482,7.2185,7.1794,7.3476,7.3437,7.3102,7.463,7.466,7.4384,7.508,7.528,7.528,7.528,7.5165,7.5165,7.5433,7.5509,7.5509,7.5509,7.5509,7.5509,7.5509,7.5509,7.5509,7.5509,7.5509,7.5509,7.5509,7.5509,7.5509,7.5509,7.5549,7.5591,7.5574,7.5636,7.5959,7.6607,7.6145,7.6084,7.6646,7.6145,7.6155,7.6846,7.6209,7.591,7.5993,7.5993,7.5993,7.5993,7.6007,7.6399,6.0591,6.4702,6.9676,7.3017,7.3854,7.3634,7.2826,7.2569,7.2055,7.055,7.1541,7.2165,7.055,7.1505,7.2239,7.1417,7.1967,7.2496,7.2496,7.2496,7.2532,7.2642,7.2569,7.2532,7.2642,7.2569,7.2496,7.2496,7.1857,7.1641,7.2052,7.1748,7.183,7.2425,7.2735,7.2966,7.317,7.2185,7.1688,7.1688,7.0839,7.0411,7.0411,7.064,7.0678,7.061,7.1489,7.1803,7.1764,7.275,7.317,7.317,7.3284,7.3246,7.3055,7.2185,7.1879,7.1764,7.0877,7.0563,7.0724,7.1612,7.1259,7.0916,7.2635,7.2567,7.207,7.3055,7.3743,7.4231,7.4354,7.4384,7.4384,7.4384,7.3858,7.3752,7.5204,7.5509,7.5509,7.5509,7.5509,7.5509,7.5509,7.5509,7.5509,7.5509,7.5509,7.5509,7.5509,7.5509,7.5509,7.5509,7.5549,7.5566,7.5535,7.5641,7.5704,7.5688,7.5659,7.5668,7.568,7.5659,7.5709,7.5786,7.5745,7.5786,7.5902,7.5902,7.5902,7.591,7.5978,7.6053,6.1703,6.5259,6.8806,7.2109,7.2621,7.2275,7.1894,7.1468,7.0844,6.9669,7.0367,7.0807,6.9633,7.0367,7.0881,7.0096,7.1013,7.1821,7.1821,7.2224,7.2496,7.2496,7.2078,7.1821,7.1821,7.1821,7.1637,7.1174,7.1233,7.1301,7.1353,7.1021,7.125,7.2164,7.1779,7.1794,7.2261,7.1412,7.0954,7.0954,7.0563,7.0411,7.0411,7.0411,7.0411,7.0411,7.0801,7.0954,7.103,7.1917,7.2261,7.2338,7.2788,7.272,7.2223,7.1841,7.1382,7.0916,7.0525,7.0411,7.0525,7.1421,7.1107,7.0716,7.2482,7.2062,7.1259,7.2635,7.2902,7.2902,7.3399,7.3514,7.3514,7.3514,7.3246,7.3208,7.3943,7.4431,7.4927,7.5395,7.5509,7.5509,7.5509,7.5509,7.5509,7.5509,7.5509,7.5509,7.5509,7.5509,7.5509,7.5509,7.5544,7.5514,7.5518,7.554,7.5557,7.5518,7.5549,7.5557,7.5518,7.5549,7.5599,7.5599,7.569,7.5716,7.5786,7.5786,7.5848,7.5887,7.5925,7.597,6.1762,6.4184,6.6148,6.9848,7.057,7.0398,7.0646,7.0367,6.9816,6.8788,6.9229,6.9559,6.8752,6.9412,6.9853,6.9045,7.0059,7.0977,7.0977,7.149,7.1908,7.1908,7.1358,7.0977,7.0977,7.0977,7.077,7.0146,7.0565,7.0816,7.0697,7.0342,7.0664,7.1722,7.0879,7.0724,7.1374,7.0724,7.0411,7.0411,7.0411,7.0411,7.0411,7.0411,7.0411,7.0411,7.0411,7.0411,7.0449,7.1107,7.1374,7.1421,7.21,7.1947,7.1374,7.1374,7.0954,7.0411,7.0411,7.0411,7.0525,7.1145,7.0916,7.064,7.1947,7.145,7.0678,7.1985,7.2024,7.1841,7.249,7.2682,7.2682,7.2682,7.2482,7.252,7.317,7.3628,7.4163,7.5013,7.5013,7.4936,7.5127,7.5165,7.5242,7.5471,7.5509,7.5509,7.5509,7.5509,7.5509,7.5509,7.5509,7.5509,7.5509,7.5509,7.5509,7.5509,7.557,7.554,7.5509,7.5549,7.5583,7.5566,7.5658,7.566,7.566,7.566,7.5739,7.5864,7.5879,7.5933,5.8078,5.9074,6.0351,6.5357,6.7145,6.7918,6.8834,6.9596,6.9683,6.8104,6.8385,6.8715,6.7921,6.9059,6.9853,6.9045,6.9596,7.0146,7.0146,7.0183,7.022,7.022,7.0183,7.0146,7.0146,7.0146,7.0146,7.011,6.9821,6.9865,7.029,7.0005,7.0041,7.0484,7.0441,7.0411,7.0487,7.0411,7.0411,7.0411,7.0411,7.0411,7.0411,7.0411,7.0411,7.0411,7.0411,7.0411,7.0411,7.0449,7.0487,7.0487,7.0525,7.0525,7.0487,7.0487,7.0449,7.0411,7.0411,7.0411,7.0411,7.0449,7.0449,7.0411,7.0525,7.0487,7.0411,7.0525,7.1107,7.1726,7.1764,7.1764,7.1764,7.1764,7.1145,7.1213,7.362,7.3552,7.3284,7.4125,7.3667,7.3361,7.4125,7.4269,7.4545,7.5395,7.5509,7.5509,7.5509,7.5509,7.5509,7.5509,7.5509,7.5509,7.5509,7.5509,7.5509,7.5509,7.5518,7.5518,7.5509,7.5549,7.5557,7.5518,7.5557,7.5608,7.5608,7.5608,7.5649,7.57,7.5856,7.5933,5.6357,5.7823,5.9523,6.2904,6.4406,6.5427,6.6915,6.7337,6.7506,6.766,6.784,6.7945,6.776,6.8178,6.8471,6.8178,6.8788,6.9339,6.9339,6.9779,7.011,7.011,6.9633,6.9339,6.9339,6.9339,6.9119,6.8618,6.8941,6.9146,6.9092,6.9241,6.9536,7.001,7.0256,7.0411,7.0411,7.0411,7.0411,7.0411,7.0411,7.0411,7.0411,7.0411,7.0411,7.0411,7.0411,7.0411,7.0411,7.0411,7.0411,7.0411,7.0411,7.0411,7.0411,7.0411,7.0411,7.0411,7.0411,7.0411,7.0411,7.0411,7.0411,7.0411,7.0411,7.0411,7.0411,7.0411,7.061,7.0877,7.0877,7.0877,7.0877,7.0877,7.0648,7.0793,7.2291,7.2788,7.3093,7.3361,7.3208,7.3093,7.3399,7.3858,7.4125,7.3943,7.4821,7.5318,7.4736,7.5165,7.5509,7.5509,7.5509,7.5509,7.5509,7.5509,7.5509,7.5509,7.5509,7.5509,7.5509,7.5549,7.5583,7.5549,7.5583,7.5566,7.5553,7.5553,7.5557,7.5649,7.5674,7.5801,5.4798,5.6115,5.7726,6.0721,6.1745,6.2688,6.5231,6.5729,6.5998,6.7006,6.7409,6.7579,6.7687,6.77,6.77,6.77,6.8128,6.8495,6.8495,6.8972,6.9265,6.9265,6.8825,6.8495,6.8495,6.8495,6.8274,6.7737,6.8338,6.865,6.8419,6.8992,6.9554,7.0001,7.0247,7.0208,6.9756,6.9903,6.9788,6.9366,6.9483,6.9731,6.999,6.999,7.0143,7.0411,7.0411,7.0411,7.0411,7.0411,7.0411,7.0411,7.0411,7.0411,7.0411,7.0411,7.0411,7.0411,7.0411,7.0411,7.0411,7.0411,7.0411,7.0411,7.0411,7.0411,7.0411,7.0411,7.0411,7.0411,7.0411,7.0411,7.0411,7.0411,7.0411,7.0563,7.1145,7.1718,7.2215,7.2529,7.2329,7.2215,7.2529,7.3017,7.3284,7.3055,7.4163,7.4851,7.4269,7.4966,7.5509,7.5509,7.5509,7.5509,7.5509,7.5509,7.5509,7.5509,7.5509,7.5509,7.5509,7.5549,7.5599,7.5599,7.5625,7.5599,7.5514,7.5527,7.5514,7.5599,7.5599,7.5674,0.0,0.0,0.0,5.8671,5.9158,5.9754,6.3733,6.4815,6.5201,6.6093,6.6969,6.7614,6.7687,6.77,6.77,6.77,6.77,6.77,6.77,6.77,6.77,6.77,6.77,6.77,6.77,6.77,6.77,6.77,6.8122,6.8382,6.8382,6.925,6.9965,7.0386,7.0348,6.9747,6.8516,6.89,6.8511,6.7341,6.7681,6.834,6.9218,6.918,6.9647,7.0411,7.0411,7.0411,7.0411,7.0411,7.0411,7.0411,7.0411,7.0411,7.0411,7.0411,7.0411,7.0411,7.0411,7.0411,7.0411,7.0411,7.0411,7.0411,7.0411,7.0411,7.0411,7.0411,7.0411,7.0411,7.0411,7.0411,7.0411,7.0411,7.0411,7.0411,7.0411,7.0411,7.064,7.1497,7.0992,7.0686,7.1535,7.1688,7.1994,7.2788,7.3628,7.4155,7.4155,7.4927,7.5471,7.5509,7.5509,7.5509,7.5509,7.5509,7.5509,7.5509,7.5509,7.5518,7.5518,7.5557,7.5608,7.5608,7.5652,7.5652,7.5608,7.5553,7.5553,7.5591,7.5591,7.5641,5.2697,0.0,0.0,0.0,0.0,0.0,6.0783,6.1594,6.2612,6.4771,6.5436,6.6002,6.7305,6.7633,6.77,6.77,6.77,6.77,6.77,6.77,6.77,6.77,6.77,6.77,6.77,6.77,6.77,6.77,6.781,6.7889,6.7889,6.8467,6.9155,6.9956,6.9067,6.8726,6.8981,6.7883,6.7619,6.8148,6.7345,6.7912,6.9603,6.8975,6.9315,7.0411,7.0411,7.0411,7.0411,7.0411,7.0411,7.0411,7.0411,7.0411,7.0411,7.0411,7.0411,7.0411,7.0411,7.0411,7.0411,7.0411,7.0411,7.0411,7.0411,7.0411,7.0411,7.0411,7.0411,7.0411,7.0411,7.0411,7.0411,7.0411,7.0411,7.0411,7.0411,7.0411,7.0487,7.0724,7.0563,7.0487,7.0724,7.1259,7.1573,7.1183,7.2367,7.3323,7.3323,7.4049,7.4813,7.5433,7.5509,7.5509,7.5509,7.5509,7.5509,7.5509,7.557,7.5557,7.5557,7.5745,7.5817,7.5817,7.5848,7.5848,7.5817,7.5633,7.554,7.5544,7.5566,7.5608,0.0,0.0,0.0,0.0,0.0,0.0,5.9792,6.0554,6.1537,6.3761,6.4535,6.5113,6.6181,6.6522,6.674,6.707,6.7146,6.7333,6.7664,6.77,6.77,6.77,6.77,6.759,6.7223,6.7517,6.7554,6.7223,6.7517,6.7807,6.7969,6.8235,6.8734,6.9494,6.8788,6.8217,6.7865,6.7033,6.6524,6.6397,6.6176,6.6917,6.8467,6.8288,6.8792,6.9872,6.9872,6.9872,6.9872,6.9872,7.0062,7.0411,7.0411,7.0411,7.0411,7.0411,7.0411,7.0411,7.0411,7.0411,7.0411,7.0411,7.0411,7.0411,7.0411,7.0411,7.0411,7.0411,7.0411,7.0411,7.0411,7.0411,7.0411,7.0411,7.0411,7.0411,7.0411,7.0411,7.0411,7.0411,7.0411,7.0411,7.0411,7.0839,7.0992,7.0487,7.1871,7.2979,7.2979,7.401,7.4927,7.5433,7.5509,7.5509,7.5509,7.5509,7.5509,7.5509,7.5553,7.5557,7.5591,7.5731,7.5856,7.5887,7.5925,7.5925,7.5887,7.5682,7.5557,7.5509,7.5557,7.5574,0.0,0.0,0.0,0.0,0.0,0.0,5.9747,6.0468,6.1009,6.2658,6.3652,6.4293,6.4475,6.4692,6.5055,6.575,6.615,6.6646,6.759,6.77,6.77,6.77,6.77,6.737,6.6586,6.7136,6.726,6.6549,6.726,6.7876,6.8297,6.8309,6.855,6.9003,6.8783,6.783,6.607,6.6137,6.5319,6.365,6.4561,6.5538,6.6539,6.7278,6.8098,6.8978,6.9053,6.9091,6.9091,6.9091,6.9556,7.0256,7.0298,7.0315,7.0323,7.0394,7.0411,7.0411,7.0411,7.0411,7.0411,7.0411,7.0411,7.0411,7.0411,7.0411,7.0411,7.0411,7.0411,7.0411,7.0411,7.0411,7.0411,7.0411,7.0411,7.0411,7.0411,7.0411,7.0411,7.0411,7.0411,7.0411,7.0411,7.0411,7.0411,7.0411,7.1794,7.2911,7.2979,7.4401,7.5395,7.5471,7.5509,7.5509,7.5509,7.5509,7.5509,7.5509,7.5518,7.5561,7.5591,7.569,7.5779,7.5887,7.597,7.597,7.5879,7.5674,7.5557,7.5527,7.5549,7.554,0.0,0.0,0.0,0.0,0.0,0.0,5.7768,5.7938,5.8399,6.0017,6.0583,6.116,6.2457,6.2868,6.3046,6.3241,6.4443,6.5917,6.7467,6.77,6.77,6.77,6.77,6.737,6.6586,6.6623,6.6659,6.6512,6.726,6.7754,6.7823,6.7823,6.8046,6.8538,6.6926,6.6195,6.6486,6.4513,6.3857,6.447,6.3648,6.4298,6.6115,6.6264,6.7001,6.8162,6.8838,6.9091,6.9091,6.9091,6.9198,6.9395,6.9768,6.9928,6.9974,7.0273,7.0411,7.0411,7.0411,7.0411,7.0411,7.0411,7.0411,7.0411,7.0411,7.0411,7.0411,7.0411,7.0411,7.0411,7.0411,7.0411,7.0411,7.0411,7.0411,7.0411,7.0411,7.0411,7.0411,7.0411,7.0411,7.0411,7.0411,7.0411,7.0411,7.0411,7.1298,7.2223,7.2902,7.3858,7.4736,7.5433,7.5509,7.5509,7.5509,7.5509,7.5509,7.5509,7.5532,7.5583,7.5599,7.5785,7.5872,7.5887,7.597,7.591,7.5755,7.5649,7.5591,7.5574,7.5561,7.5527,0.0,0.0,0.0,5.65,0.0,0.0,0.0,5.7804,5.813,5.9348,5.9341,5.9478,6.0663,6.0708,6.0957,6.2159,6.3218,6.4326,6.56,6.6876,6.77,6.77,6.77,6.7223,6.6035,6.6256,6.6512,6.6512,6.726,6.77,6.77,6.77,6.7797,6.8033,6.6657,6.5925,6.5931,6.4291,6.3554,6.3761,6.3554,6.4241,6.5644,6.6051,6.6827,6.7812,6.8221,6.8406,6.8406,6.8406,6.8406,6.8479,6.9166,6.9463,6.9494,6.9663,6.974,6.974,6.974,6.9909,7.0109,7.0109,7.023,7.0411,7.0411,7.0411,7.0411,7.0411,7.0411,7.0411,7.0411,7.0411,7.0411,7.0411,7.0411,7.0411,7.0411,7.0411,7.0411,7.0411,7.0411,7.0411,7.0411,7.0411,7.0411,7.0411,7.1527,7.2529,7.2941,7.4087,7.5004,7.5433,7.5509,7.5509,7.5509,7.5509,7.5509,7.5509,7.5514,7.5557,7.5591,7.5682,7.5785,7.5794,7.5833,7.5818,7.5692,7.5641,7.5599,7.5591,7.5514,7.5509,0.0,0.0,0.0,0.0,0.0,5.755,0.0,0.0,0.0,5.8999,5.8637,5.8383,5.9035,5.8691,5.8985,6.091,6.1751,6.2356,6.2965,6.5171,6.6793,6.7003,6.715,6.6659,6.5228,6.5521,6.5852,6.6035,6.6769,6.7297,6.748,6.7627,6.77,6.77,6.6769,6.5962,6.5288,6.4347,6.3503,6.2793,6.3686,6.4347,6.4848,6.5999,6.6769,6.726,6.759,6.77,6.77,6.77,6.77,6.777,6.8619,6.8959,6.897,6.9058,6.9091,6.9091,6.9091,6.9334,6.9662,6.9662,6.9936,7.0273,7.0273,7.0361,7.0411,7.0411,7.0411,7.0449,7.0602,7.0525,7.0449,7.0602,7.0525,7.0411,7.0411,7.0411,7.0411,7.0411,7.0411,7.0411,7.0411,7.0411,7.0411,7.0411,7.1756,7.2788,7.2979,7.4325,7.5318,7.5471,7.5509,7.5509,7.5509,7.5509,7.5509,7.5509,7.5509,7.5506,7.5566,7.5591,7.5633,7.5668,7.5684,7.5684,7.5668,7.5633,7.5599,7.5591,7.5514,7.5509,0.0,0.0,0.0,0.0,5.7732,0.0,0.0,0.0,5.7369,5.7442,0.0,5.7369,5.7442,0.0,0.0,5.7721,5.9094,6.0142,6.0251,6.2013,6.3572,6.442,6.5154,6.5228,6.4323,6.3613,6.3527,6.4323,6.5118,6.5888,6.6586,6.7297,6.77,6.77,6.6219,6.5398,6.5288,6.3747,6.2903,6.2793,6.3686,6.3723,6.316,6.5448,6.6145,6.5655,6.7076,6.77,6.77,6.77,6.77,6.7767,6.826,6.849,6.855,6.8937,6.9091,6.9091,6.9091,6.9123,6.9176,6.9176,6.9504,6.9882,6.9882,7.0118,7.0411,7.0411,7.0411,7.0563,7.1336,7.0992,7.0602,7.1374,7.0954,7.0411,7.0411,7.0411,7.0411,7.0411,7.0411,7.0411,7.0411,7.0411,7.0411,7.0411,7.1221,7.2147,7.2902,7.3781,7.4622,7.5433,7.5509,7.5509,7.5509,7.5509,7.5509,7.5509,7.5509,7.5518,7.5527,7.5557,7.5599,7.5608,7.5652,7.566,7.5608,7.5599,7.5599,7.5591,7.5514,7.5509,0.0,0.0,0.0,0.0,0.0,0.0,5.7369,0.0,5.7188,0.0,0.0,0.0,0.0,0.0,0.0,0.0,5.8571,5.9096,5.9096,6.0293,6.1649,6.3029,6.356,6.371,6.3392,6.3013,6.2939,6.3319,6.4127,6.4751,6.5094,6.5852,6.6512,6.7003,6.5888,6.5288,6.5288,6.4127,6.3319,6.2793,6.3172,6.3429,6.3613,6.5118,6.5618,6.5398,6.699,6.7444,6.7026,6.7517,6.77,6.7727,6.7928,6.7982,6.8007,6.8235,6.8272,6.8272,6.8272,6.8479,6.8723,6.9003,6.9229,6.9426,6.9711,6.9928,7.0109,7.0315,7.0411,7.0602,7.1459,7.1421,7.1259,7.1612,7.1421,7.103,7.0525,7.0411,7.0411,7.0411,7.0411,7.0411,7.0411,7.0411,7.0411,7.0411,7.1145,7.1994,7.2911,7.3705,7.4545,7.5395,7.5509,7.5509,7.5509,7.5509,7.5509,7.5509,7.5509,7.5509,7.5509,7.5544,7.5523,7.5523,7.5566,7.5566,7.5523,7.5523,7.5523,7.5523,7.5527,7.5509,5.7188,0.0,0.0,0.0,0.0,0.0,0.0,0.0,0.0,0.0,0.0,0.0,0.0,0.0,0.0,0.0,0.0,5.8197,5.8197,5.8832,5.9819,6.1315,6.1847,6.2082,6.2082,6.1924,6.1912,6.2132,6.2732,6.3282,6.3723,6.4738,6.5668,6.6476,6.5925,6.5508,6.5288,6.4494,6.3649,6.2793,6.305,6.3356,6.3796,6.5044,6.5508,6.5398,6.699,6.737,6.688,6.748,6.77,6.77,6.77,6.77,6.77,6.77,6.77,6.77,6.77,6.7928,6.8247,6.8621,6.8791,6.897,6.9303,6.9604,6.9872,7.0153,7.0298,7.0602,7.1459,7.1688,7.1764,7.1994,7.1879,7.1535,7.0877,7.0563,7.0411,7.0411,7.0411,7.0411,7.0411,7.0411,7.0411,7.0411,7.0954,7.165,7.2529,7.3361,7.4201,7.5051,7.5356,7.5509,7.5509,7.5509,7.5509,7.5509,7.5509,7.5509,7.5509,7.5509,7.5509,7.5509,7.5509,7.5509,7.5509,7.5509,7.5509,7.5509,7.5509,7.5509,0.0,0.0,0.0,5.7406,0.0,0.0,0.0,0.0,5.813,0.0,0.0,0.0,0.0,0.0,0.0,0.0,0.0,0.0,0.0,0.0,0.0,0.0,0.0,6.0274,6.0274,5.9712,5.9636,6.0407,6.0481,6.1178,6.2756,6.4407,6.5668,6.6476,6.6476,6.6109,6.5288,6.4494,6.3649,6.2793,6.3649,6.3613,6.2903,6.5338,6.6035,6.5398,6.699,6.77,6.7664,6.77,6.77,6.77,6.77,6.77,6.77,6.77,6.77,6.77,6.77,6.7714,6.7727,6.7754,6.8046,6.843,6.8442,6.9069,6.9816,6.9835,7.0109,7.0602,7.1459,7.1688,7.1917,7.2758,7.2299,7.1688,7.165,7.0992,7.0411,7.0411,7.0411,7.0411,7.0411,7.0411,7.0411,7.0411,7.0411,7.0763,7.165,7.2482,7.3361,7.4155,7.5013,7.5509,7.5509,7.5509,7.5509,7.5509,7.5509,7.5509,7.5509,7.5509,7.5509,7.5509,7.5509,7.5509,7.5509,7.5509,7.5509,7.5509,7.5509,7.5509,0.0,0.0,5.8202,5.7406,0.0,0.0,0.0,0.0,0.0,0.0,0.0,0.0,0.0,0.0,0.0,0.0,0.0,0.0,0.0,0.0,0.0,0.0,0.0,0.0,0.0,5.9188,5.9211,5.9588,6.0114,6.0627,6.1178,6.3319,6.4861,6.5692,6.5692,6.5582,6.5288,6.4494,6.3649,6.2793,6.3086,6.3086,6.2866,6.4273,6.4457,6.3783,6.5962,6.6586,6.6182,6.726,6.77,6.77,6.77,6.77,6.77,6.77,6.77,6.77,6.77,6.77,6.77,6.77,6.7797,6.7982,6.8297,6.8607,6.9003,6.9623,6.991,7.0264,7.14,7.1688,7.1764,7.207,7.1917,7.1535,7.0954,7.0602,7.0411,7.0411,7.0411,7.0411,7.0411,7.0411,7.0411,7.0411,7.0411,7.0724,7.1573,7.1956,7.2452,7.3323,7.3667,7.4057,7.4584,7.5165,7.5509,7.5509,7.5509,7.5509,7.5509,7.5509,7.5509,7.5509,7.5509,7.5509,7.5509,7.5509,7.5509,7.5509,7.5509,7.5509,5.7188,5.7587,0.0,5.7333,5.7587,0.0,5.7333,0.0,5.755,0.0,0.0,0.0,0.0,0.0,0.0,0.0,0.0,0.0,0.0,5.5124,0.0,0.0,0.0,0.0,0.0,0.0,5.8626,5.8744,5.9526,6.0114,6.0382,6.2732,6.4457,6.5251,6.5582,6.5582,6.5288,6.4494,6.3649,6.2793,6.2793,6.2793,6.2829,6.3686,6.3796,6.338,6.5558,6.6219,6.5852,6.7136,6.77,6.77,6.77,6.77,6.77,6.77,6.77,6.77,6.77,6.77,6.77,6.77,6.77,6.7767,6.8058,6.826,6.8574,6.9323,6.9662,7.0023,7.0976,7.1459,7.1688,7.1688,7.1688,7.1535,7.0992,7.061,7.0411,7.0411,7.0411,7.0411,7.0411,7.0411,7.0411,7.0411,7.0411,7.0602,7.1183,7.1497,7.1917,7.249,7.3055,7.3743,7.4584,7.5165,7.5509,7.5509,7.5509,7.5509,7.5509,7.5509,7.5509,7.5509,7.5509,7.5509,7.5509,7.5509,7.5509,7.5509,7.5509,7.5509]}]]